[[{"header":{"parameterUnit":"m.s-1","parameterCategory":1,"la1":30.6,"la2":29.2853,"lo1":-89.7004,"lo2":-87.6739,"dy":0.0162,"dx":0.0183,"nx":112,"ny":82,"refTime":"2024-05-15T06:00:00:Z","depth":0,"parameterNumber":2,"parameterNumberName":"U-component_of_WINDS"},"data":[0.0,0.0,0.0,0.0,0.0,0.0,0.0,0.0,0.0,0.0,0.0,0.0,0.0,0.0,0.0,0.0,0.0,0.0,0.0,0.0,0.0,0.0,0.0,0.0,0.0,0.0,0.0,0.0,0.0,0.0,0.0,0.0,0.0,0.0,0.0,0.0,0.0,0.0,0.0,0.0,0.0,0.0,0.0,0.0,0.0,0.0,0.0,0.0,0.0,0.0,0.0,0.0,0.0,0.0,0.0,0.0,0.0,0.0,0.0,0.0,0.0,0.0,0.0,0.0,0.0,0.0,0.0,0.0,0.0,0.0,0.0,0.0,0.0,0.0,0.0,0.0,0.0,0.0,0.0,0.0,0.0,0.0,0.0,0.0,0.0,0.0,0.0,0.0,0.0,0.0,-7.1129,-7.7784,-8.5863,-9.0517,-8.9787,-8.8363,-8.3862,-7.5245,0.0,0.0,0.0,0.0,0.0,0.0,0.0,0.0,0.0,0.0,0.0,0.0,0.0,0.0,0.0,0.0,0.0,0.0,0.0,0.0,0.0,0.0,0.0,0.0,0.0,0.0,0.0,0.0,0.0,0.0,0.0,0.0,0.0,0.0,0.0,0.0,0.0,0.0,0.0,0.0,0.0,0.0,0.0,0.0,0.0,0.0,0.0,0.0,0.0,0.0,0.0,0.0,0.0,0.0,0.0,0.0,0.0,0.0,0.0,0.0,0.0,0.0,0.0,0.0,0.0,0.0,0.0,0.0,0.0,0.0,0.0,0.0,0.0,0.0,0.0,0.0,0.0,0.0,0.0,0.0,0.0,0.0,0.0,0.0,0.0,0.0,0.0,0.0,0.0,0.0,0.0,0.0,0.0,0.0,0.0,0.0,0.0,0.0,0.0,0.0,0.0,0.0,0.0,0.0,-7.3168,-8.2747,-8.694,-8.9017,-8.8902,-8.4824,-8.0092,-7.5014,0.0,0.0,0.0,0.0,0.0,0.0,0.0,0.0,0.0,0.0,0.0,0.0,0.0,0.0,0.0,0.0,0.0,0.0,0.0,0.0,0.0,0.0,0.0,0.0,0.0,0.0,0.0,0.0,0.0,0.0,0.0,0.0,0.0,0.0,0.0,0.0,0.0,0.0,0.0,0.0,0.0,0.0,0.0,0.0,0.0,0.0,0.0,0.0,0.0,0.0,0.0,0.0,0.0,0.0,0.0,0.0,0.0,0.0,0.0,0.0,0.0,0.0,0.0,0.0,0.0,0.0,0.0,0.0,0.0,0.0,0.0,0.0,0.0,0.0,0.0,0.0,0.0,0.0,0.0,0.0,0.0,0.0,0.0,0.0,0.0,0.0,0.0,0.0,0.0,0.0,0.0,0.0,0.0,0.0,0.0,0.0,0.0,0.0,0.0,0.0,0.0,0.0,0.0,-7.2129,-7.7515,-8.5401,-8.8094,-8.9171,-8.8748,-8.3593,-7.8784,-7.4938,-7.2552,0.0,0.0,0.0,0.0,0.0,0.0,0.0,0.0,0.0,0.0,0.0,0.0,0.0,0.0,0.0,0.0,0.0,0.0,0.0,0.0,0.0,0.0,0.0,0.0,0.0,0.0,0.0,0.0,0.0,0.0,0.0,0.0,0.0,0.0,0.0,0.0,0.0,0.0,0.0,0.0,0.0,0.0,0.0,0.0,0.0,0.0,0.0,0.0,0.0,0.0,0.0,0.0,0.0,0.0,0.0,0.0,0.0,0.0,0.0,0.0,0.0,0.0,0.0,0.0,0.0,0.0,0.0,0.0,0.0,0.0,0.0,0.0,0.0,0.0,0.0,0.0,0.0,0.0,0.0,0.0,0.0,0.0,0.0,0.0,0.0,0.0,0.0,0.0,0.0,0.0,0.0,0.0,0.0,0.0,0.0,0.0,0.0,0.0,0.0,0.0,0.0,0.0,-7.6245,-8.0362,-8.5901,-8.7825,-8.8402,-8.7555,-8.2208,-7.763,-7.463,-7.0437,0.0,0.0,0.0,0.0,0.0,0.0,0.0,0.0,0.0,0.0,0.0,0.0,0.0,0.0,0.0,0.0,0.0,0.0,0.0,0.0,0.0,0.0,0.0,0.0,0.0,0.0,0.0,0.0,0.0,0.0,0.0,0.0,0.0,0.0,0.0,0.0,0.0,0.0,0.0,0.0,0.0,0.0,0.0,0.0,0.0,0.0,0.0,0.0,0.0,0.0,0.0,0.0,0.0,0.0,0.0,0.0,0.0,0.0,0.0,0.0,0.0,0.0,0.0,0.0,0.0,0.0,0.0,0.0,0.0,0.0,0.0,0.0,0.0,0.0,0.0,0.0,0.0,0.0,0.0,0.0,0.0,0.0,0.0,0.0,0.0,0.0,0.0,0.0,0.0,0.0,0.0,0.0,0.0,0.0,0.0,0.0,0.0,0.0,0.0,0.0,0.0,0.0,-7.5784,-7.9054,-8.3401,-8.4709,-8.4901,-8.4016,-7.9246,-7.5515,-7.3707,-6.9552,0.0,0.0,0.0,0.0,0.0,0.0,0.0,0.0,0.0,0.0,0.0,0.0,0.0,0.0,0.0,0.0,0.0,0.0,0.0,0.0,0.0,0.0,0.0,0.0,0.0,0.0,0.0,0.0,0.0,0.0,0.0,0.0,0.0,0.0,0.0,0.0,0.0,0.0,0.0,0.0,0.0,0.0,0.0,0.0,0.0,0.0,0.0,0.0,0.0,0.0,0.0,0.0,0.0,0.0,0.0,0.0,0.0,0.0,0.0,0.0,0.0,0.0,0.0,0.0,0.0,0.0,0.0,0.0,0.0,0.0,0.0,0.0,0.0,0.0,0.0,0.0,0.0,0.0,0.0,0.0,0.0,0.0,0.0,0.0,0.0,0.0,0.0,0.0,0.0,0.0,0.0,0.0,0.0,0.0,0.0,0.0,0.0,0.0,0.0,0.0,0.0,0.0,-7.5678,-7.89,-8.3131,-8.4362,-8.4132,-8.2208,-7.8823,-7.5399,-7.2091,0.0,0.0,0.0,0.0,0.0,0.0,0.0,0.0,0.0,0.0,0.0,0.0,0.0,0.0,0.0,0.0,0.0,0.0,0.0,0.0,0.0,0.0,0.0,0.0,0.0,0.0,0.0,0.0,0.0,0.0,0.0,0.0,0.0,0.0,0.0,0.0,0.0,0.0,0.0,0.0,0.0,0.0,0.0,0.0,0.0,0.0,0.0,0.0,0.0,0.0,0.0,0.0,0.0,0.0,0.0,0.0,0.0,0.0,0.0,0.0,0.0,0.0,0.0,0.0,0.0,0.0,0.0,0.0,0.0,0.0,0.0,0.0,0.0,0.0,0.0,0.0,0.0,0.0,0.0,0.0,0.0,0.0,0.0,0.0,0.0,0.0,0.0,0.0,0.0,0.0,0.0,0.0,0.0,0.0,0.0,0.0,0.0,0.0,0.0,0.0,0.0,0.0,-7.2443,-7.5255,-7.8284,-8.2016,-8.317,-8.2785,-8.0477,-7.7707,-7.4591,-7.1129,0.0,0.0,0.0,0.0,0.0,0.0,0.0,0.0,0.0,0.0,0.0,0.0,0.0,0.0,0.0,0.0,0.0,0.0,0.0,0.0,0.0,0.0,0.0,0.0,0.0,0.0,0.0,0.0,0.0,0.0,0.0,0.0,0.0,0.0,0.0,0.0,0.0,0.0,0.0,0.0,0.0,0.0,0.0,0.0,0.0,0.0,0.0,0.0,0.0,0.0,0.0,0.0,0.0,0.0,0.0,0.0,0.0,0.0,0.0,0.0,0.0,0.0,0.0,0.0,0.0,0.0,0.0,0.0,0.0,0.0,0.0,0.0,0.0,0.0,0.0,0.0,0.0,0.0,0.0,0.0,0.0,0.0,0.0,0.0,0.0,0.0,0.0,0.0,0.0,0.0,0.0,0.0,0.0,0.0,0.0,0.0,0.0,0.0,0.0,0.0,0.0,0.0,-7.1731,-7.4399,-7.6938,-7.9515,-8.0554,-8.0362,-7.8592,-7.5438,-7.2783,0.0,0.0,0.0,0.0,0.0,0.0,0.0,0.0,0.0,0.0,0.0,0.0,0.0,0.0,0.0,0.0,0.0,0.0,0.0,0.0,0.0,0.0,0.0,0.0,0.0,0.0,0.0,0.0,0.0,0.0,0.0,0.0,0.0,0.0,0.0,0.0,0.0,0.0,0.0,0.0,0.0,0.0,0.0,0.0,0.0,0.0,0.0,0.0,0.0,0.0,0.0,0.0,0.0,0.0,0.0,0.0,0.0,0.0,0.0,0.0,0.0,0.0,0.0,0.0,0.0,0.0,0.0,0.0,0.0,0.0,0.0,0.0,0.0,0.0,0.0,0.0,0.0,0.0,0.0,0.0,0.0,0.0,0.0,0.0,0.0,0.0,0.0,0.0,0.0,0.0,0.0,0.0,0.0,0.0,0.0,0.0,0.0,0.0,0.0,0.0,0.0,0.0,0.0,-7.0782,-7.2875,-7.511,-7.7746,-7.8784,-7.8323,-7.6015,-7.4899,-7.286,-6.936,0.0,0.0,0.0,0.0,0.0,0.0,0.0,0.0,0.0,0.0,0.0,0.0,0.0,0.0,0.0,0.0,0.0,0.0,0.0,0.0,0.0,0.0,0.0,0.0,0.0,0.0,0.0,0.0,0.0,0.0,0.0,0.0,0.0,0.0,0.0,0.0,0.0,0.0,0.0,0.0,0.0,0.0,0.0,0.0,0.0,0.0,0.0,0.0,0.0,0.0,0.0,0.0,0.0,0.0,0.0,0.0,0.0,0.0,0.0,0.0,0.0,0.0,0.0,0.0,0.0,0.0,0.0,0.0,0.0,0.0,0.0,0.0,0.0,0.0,0.0,0.0,0.0,0.0,0.0,0.0,0.0,0.0,0.0,0.0,0.0,0.0,0.0,0.0,0.0,0.0,0.0,0.0,0.0,0.0,0.0,0.0,0.0,0.0,0.0,0.0,0.0,0.0,-6.9951,-7.1507,-7.3356,-7.5976,-7.6707,-7.6245,-7.4399,-7.3591,-7.1822,-6.859,0.0,0.0,0.0,0.0,0.0,0.0,0.0,0.0,0.0,0.0,0.0,0.0,0.0,0.0,0.0,0.0,0.0,0.0,0.0,0.0,0.0,0.0,0.0,0.0,0.0,0.0,0.0,0.0,0.0,0.0,0.0,0.0,0.0,0.0,0.0,0.0,0.0,0.0,0.0,0.0,0.0,0.0,0.0,0.0,0.0,0.0,0.0,0.0,0.0,0.0,0.0,0.0,0.0,0.0,0.0,0.0,0.0,0.0,0.0,0.0,0.0,0.0,0.0,0.0,0.0,0.0,0.0,0.0,0.0,0.0,0.0,0.0,0.0,0.0,0.0,0.0,0.0,0.0,0.0,0.0,0.0,0.0,0.0,0.0,0.0,0.0,0.0,0.0,0.0,0.0,0.0,0.0,0.0,0.0,0.0,0.0,0.0,0.0,0.0,0.0,0.0,0.0,-6.9319,-7.0385,-7.1846,-7.4322,-7.4668,-7.4361,-7.3437,-7.1937,-7.0283,-6.85,0.0,0.0,0.0,0.0,0.0,0.0,0.0,0.0,0.0,0.0,0.0,0.0,0.0,0.0,0.0,0.0,0.0,0.0,0.0,0.0,0.0,0.0,0.0,0.0,0.0,0.0,0.0,0.0,0.0,0.0,0.0,0.0,0.0,0.0,0.0,0.0,0.0,0.0,0.0,0.0,0.0,0.0,0.0,0.0,0.0,0.0,0.0,0.0,0.0,0.0,0.0,0.0,0.0,0.0,0.0,0.0,0.0,0.0,0.0,0.0,-6.1959,0.0,0.0,0.0,0.0,0.0,0.0,0.0,0.0,0.0,0.0,0.0,0.0,0.0,0.0,0.0,0.0,0.0,0.0,0.0,0.0,0.0,0.0,0.0,0.0,0.0,0.0,0.0,0.0,0.0,0.0,0.0,0.0,0.0,0.0,0.0,0.0,0.0,0.0,0.0,0.0,0.0,-6.9102,-7.0191,-7.1502,-7.3538,-7.4322,-7.4091,-7.2591,-7.2129,-7.0898,-6.8552,-6.8244,0.0,0.0,0.0,0.0,0.0,0.0,0.0,0.0,0.0,0.0,0.0,0.0,0.0,0.0,0.0,0.0,0.0,0.0,0.0,0.0,0.0,0.0,0.0,0.0,0.0,0.0,0.0,0.0,0.0,0.0,0.0,0.0,0.0,0.0,0.0,0.0,0.0,0.0,0.0,0.0,0.0,0.0,0.0,0.0,0.0,0.0,0.0,0.0,0.0,0.0,0.0,0.0,0.0,0.0,0.0,0.0,0.0,0.0,0.0,0.0,-6.3231,0.0,0.0,0.0,0.0,0.0,0.0,0.0,0.0,0.0,0.0,0.0,0.0,0.0,0.0,0.0,0.0,0.0,0.0,0.0,0.0,0.0,0.0,0.0,0.0,0.0,0.0,0.0,0.0,0.0,0.0,0.0,0.0,0.0,0.0,0.0,0.0,0.0,0.0,0.0,0.0,-6.8622,-6.9327,-7.0277,-7.2038,-7.2629,-7.2514,-7.1629,-7.0821,-6.9821,-6.8475,-6.7628,0.0,0.0,0.0,0.0,0.0,0.0,0.0,0.0,0.0,0.0,0.0,0.0,0.0,0.0,0.0,0.0,0.0,0.0,0.0,0.0,0.0,0.0,0.0,0.0,0.0,0.0,0.0,0.0,0.0,0.0,0.0,0.0,0.0,0.0,0.0,0.0,0.0,0.0,0.0,0.0,0.0,0.0,0.0,0.0,0.0,0.0,0.0,0.0,0.0,0.0,0.0,0.0,0.0,-6.6729,-6.7599,-6.9207,-6.9083,-6.9472,-7.0056,-6.734,-6.5441,-6.4293,-6.47,0.0,0.0,0.0,0.0,0.0,0.0,0.0,0.0,0.0,0.0,0.0,0.0,0.0,0.0,0.0,0.0,0.0,0.0,0.0,0.0,0.0,0.0,0.0,0.0,-6.8432,-6.8394,-6.8508,0.0,0.0,0.0,0.0,0.0,0.0,0.0,0.0,0.0,0.0,0.0,-6.832,-6.8602,-6.9269,-7.0937,-7.1129,-7.1014,-7.0706,-6.9436,-6.8513,-6.8205,-6.6859,-6.6051,0.0,0.0,0.0,0.0,0.0,0.0,0.0,0.0,0.0,0.0,0.0,0.0,0.0,0.0,0.0,0.0,0.0,0.0,0.0,0.0,0.0,0.0,0.0,0.0,0.0,0.0,0.0,0.0,0.0,0.0,0.0,0.0,-5.685,-5.6908,0.0,0.0,0.0,0.0,0.0,0.0,0.0,0.0,0.0,0.0,0.0,0.0,0.0,-6.5282,-6.7791,-6.8346,-6.9097,-7.0081,-7.0654,-7.144,-7.2374,-7.2396,-7.28,-7.3586,-7.3875,0.0,-6.8364,-6.7683,0.0,0.0,0.0,0.0,0.0,0.0,0.0,0.0,0.0,0.0,0.0,0.0,0.0,0.0,0.0,0.0,0.0,0.0,0.0,0.0,0.0,0.0,-6.912,-7.0801,-7.061,-7.0266,0.0,-6.9387,-6.7744,-6.7744,-6.7095,0.0,0.0,0.0,0.0,0.0,0.0,0.0,-6.902,-6.9418,-7.0099,-7.186,-7.2014,-7.1437,-6.9975,-6.9667,-6.8898,-6.7359,-6.7051,-6.6628,-6.5936,-6.5897,0.0,0.0,0.0,0.0,0.0,0.0,0.0,0.0,0.0,0.0,0.0,0.0,0.0,0.0,0.0,0.0,0.0,0.0,0.0,0.0,0.0,0.0,0.0,0.0,0.0,0.0,0.0,0.0,0.0,-5.6498,-5.7104,-5.75,-5.7872,-5.8218,0.0,0.0,0.0,0.0,0.0,0.0,0.0,0.0,0.0,-6.7706,-6.8242,-6.9091,-7.0292,-7.103,-7.2094,-7.3396,-7.3679,-7.4792,-7.6494,-7.6036,-7.6265,-7.7067,-7.6953,-7.5577,-7.3284,-7.1489,-6.9425,-6.7324,0.0,0.0,0.0,0.0,-6.8623,-6.9387,-6.9846,-7.0037,-6.996,-6.9464,0.0,0.0,0.0,0.0,0.0,0.0,0.0,0.0,0.0,0.0,-6.9502,-7.0686,-7.0686,-7.0495,-7.0877,-7.0075,-6.9158,0.0,-6.7591,-6.6713,-6.6713,0.0,0.0,0.0,0.0,-6.6183,-6.7947,-6.8166,-6.8679,-6.9937,-7.0052,-6.9783,-6.9052,-6.8513,-6.7898,-6.7128,-6.6667,-6.6282,-6.5897,-6.5897,-6.5897,0.0,0.0,0.0,0.0,0.0,0.0,0.0,0.0,0.0,0.0,0.0,0.0,0.0,0.0,0.0,0.0,0.0,0.0,0.0,0.0,0.0,0.0,0.0,0.0,0.0,0.0,0.0,0.0,-5.7299,-5.7825,-5.8167,-5.8765,-5.8994,0.0,0.0,0.0,0.0,0.0,0.0,-6.6269,-6.74,-6.8929,-7.0992,-7.1871,-7.2559,-7.2979,-7.4049,-7.5233,-7.6473,-7.6685,-7.787,-7.9895,-7.9283,-7.9551,-8.0544,-7.9895,-7.913,-7.8061,-7.4927,-7.2024,-6.9502,-6.9273,-6.8967,-6.8738,-6.9807,-7.0686,-7.145,-7.1871,-7.2024,-7.1871,-7.103,-7.0037,-6.9043,-6.8165,0.0,0.0,0.0,0.0,-6.8432,-6.9273,-6.9502,-6.9693,-7.0533,-7.0572,-7.0457,-7.0686,-7.0419,-6.9999,0.0,-6.8317,-6.7362,-6.7362,0.0,0.0,0.0,0.0,-6.597,-6.6962,-6.7282,-6.7782,-6.8629,-6.8744,-6.8629,-6.8436,-6.759,-6.7013,-6.6821,-6.6244,-6.5897,-6.5897,-6.5897,-6.5897,-6.5897,0.0,0.0,0.0,0.0,0.0,0.0,0.0,0.0,0.0,0.0,0.0,0.0,0.0,0.0,0.0,0.0,0.0,0.0,0.0,0.0,0.0,0.0,0.0,0.0,0.0,0.0,0.0,0.0,0.0,-5.9147,-6.1172,0.0,0.0,0.0,0.0,-6.3823,-6.6193,-6.7989,-6.8967,-7.0572,-7.1871,-7.2826,-7.3667,-7.4851,-7.6418,-7.8137,-7.9034,-7.9111,-7.9856,-8.0735,-8.169,-8.1614,-8.2493,-8.4059,-8.3983,-8.3486,-8.2302,-7.7373,-7.4775,-7.3819,-7.3055,-7.3208,-7.3743,-7.3055,-7.3323,-7.3896,-7.317,-7.2941,-7.2788,-7.1909,-7.0533,-6.9043,-6.8165,-6.7897,0.0,0.0,-6.912,-6.9311,-7.0151,-7.0342,-7.0572,-7.1412,-7.0992,-7.0648,-7.145,-7.0381,-6.9464,0.0,-6.9655,-6.9082,-6.9082,0.0,-6.672,-6.6806,-6.6145,-6.597,-6.6962,-6.7821,-6.8667,-6.9552,-6.9629,-6.9321,-6.8475,-6.759,-6.6782,-6.6013,-6.5897,-6.5897,-6.5897,-6.5897,-6.5897,-6.5897,-6.5897,0.0,0.0,0.0,0.0,0.0,0.0,0.0,0.0,0.0,0.0,0.0,0.0,0.0,0.0,0.0,0.0,0.0,0.0,0.0,0.0,0.0,0.0,0.0,0.0,0.0,0.0,0.0,0.0,-6.3121,-6.5872,0.0,-6.6904,-6.7095,-6.7515,-6.8126,-6.954,-7.0954,-7.2329,-7.401,-7.5577,-7.6991,-7.7831,-7.8557,-7.913,-8.0315,-8.0926,-8.0926,-8.1729,-8.2569,-8.3372,-8.2837,-8.3181,-8.425,-8.3715,-8.3295,-8.2798,-8.0506,-7.8061,-7.5768,-7.5501,-7.4889,-7.4163,-7.3896,-7.4622,-7.5692,-7.4889,-7.4584,-7.4278,-7.2329,-7.0916,-6.9922,-6.9616,-6.9502,-6.9578,-6.9884,-6.996,-7.0037,-7.0342,-7.0419,-7.0495,-7.0801,-7.0648,-7.0495,-7.0801,-7.0381,-7.0075,-7.0342,-6.9769,-6.9021,-6.8533,-6.7936,-6.7217,-6.634,-6.5945,-6.587,-6.6269,-6.659,-6.6898,-6.7205,-6.7244,-6.7128,-6.6821,-6.6513,-6.6205,-6.5897,-6.5897,-6.5897,-6.5897,-6.5897,-6.5897,-6.5897,-6.5897,-6.5897,0.0,0.0,0.0,0.0,0.0,0.0,0.0,0.0,0.0,0.0,0.0,0.0,0.0,0.0,0.0,0.0,0.0,0.0,0.0,0.0,0.0,0.0,0.0,0.0,0.0,0.0,-6.5566,-6.6942,-6.9578,-7.1298,-7.1298,-7.103,-7.1298,-7.2444,-7.3055,-7.424,-7.6227,-7.7678,-7.8939,-8.0086,-8.0926,-8.1347,-8.1347,-8.192,-8.2187,-8.2225,-8.276,-8.3448,-8.4289,-8.3677,-8.3907,-8.4671,-8.4098,-8.383,-8.3792,-8.299,-8.1156,-7.8748,-7.8213,-7.7144,-7.5883,-7.5577,-7.5997,-7.657,-7.5768,-7.531,-7.4736,-7.2788,-7.1565,-7.0801,-7.0495,-7.0419,-7.0419,-7.0419,-7.0419,-7.0419,-7.0419,-7.0419,-7.0419,-7.0419,-7.0419,-7.0419,-7.0419,-7.0419,-7.0419,-7.0419,-6.996,-6.9441,-6.8947,-6.8388,-6.7682,-6.6765,-6.6178,-6.582,-6.5897,-6.6128,-6.6282,-6.6282,-6.6282,-6.6282,-6.6282,-6.6051,-6.5897,-6.5897,-6.5897,-6.5897,-6.5897,-6.5897,-6.5897,-6.5897,-6.5897,-6.5897,-6.5897,0.0,0.0,0.0,0.0,0.0,0.0,0.0,0.0,0.0,0.0,0.0,0.0,0.0,0.0,0.0,0.0,0.0,0.0,0.0,0.0,0.0,0.0,0.0,-6.293,-6.5261,-6.7859,-7.0381,-7.2215,-7.3284,-7.3284,-7.252,-7.3399,-7.6647,-7.6914,-7.7984,-8.0506,-8.1385,-8.1843,-8.1881,-8.2607,-8.299,-8.299,-8.3028,-8.3028,-8.3028,-8.3066,-8.3524,-8.4327,-8.4327,-8.4747,-8.5511,-8.5473,-8.5473,-8.5397,-8.4556,-8.3715,-8.2798,-8.1156,-8.0009,-7.9187,-7.8328,-7.7449,-7.657,-7.5844,-7.5004,-7.4087,-7.3284,-7.2406,-7.1527,-7.0648,-7.0419,-7.0419,-7.0419,-7.0419,-7.0419,-7.0419,-7.0419,-7.0419,-7.0419,-7.0419,-7.0419,-7.0419,-7.0419,-7.0419,-7.0419,-7.0419,-7.0435,-7.0531,-6.9169,-6.8104,-6.8262,-6.6907,0.0,-6.5936,-6.659,-6.7051,-6.7051,-6.7051,-6.7051,-6.7051,-6.6359,-6.5897,-6.5897,-6.5897,-6.5897,-6.5897,-6.5897,-6.5897,-6.5897,-6.5897,-6.5897,-6.5897,0.0,0.0,0.0,0.0,0.0,0.0,0.0,0.0,0.0,0.0,0.0,0.0,0.0,0.0,0.0,0.0,0.0,0.0,0.0,0.0,0.0,0.0,-6.4496,-6.3923,-6.8623,-7.2635,-7.3972,-7.722,-7.9398,-7.9398,-7.9704,-8.0277,-8.1194,-8.127,-8.1843,-8.3181,-8.2875,-8.2951,-8.3601,-8.3219,-8.299,-8.299,-8.3639,-8.3945,-8.3945,-8.4518,-8.4938,-8.5167,-8.5167,-8.5282,-8.5473,-8.49,-8.4632,-8.4518,-8.3066,-8.234,-8.2073,-8.1614,-8.0544,-7.9187,-7.8328,-7.7449,-7.6761,-7.7182,-7.6341,-7.4889,-7.3476,-7.2406,-7.1527,-7.0648,-7.0419,-7.0419,-7.0419,-7.0419,-7.0419,-7.0419,-7.0419,-7.0419,-7.0419,-7.0419,-7.0419,-7.0419,-7.0419,-7.0435,-7.0538,-7.0538,-7.0362,-6.9781,-6.9291,-6.8867,-6.8377,-6.7409,0.0,-6.6782,-6.6436,-6.6244,-6.6244,-6.6244,-6.6244,-6.6244,-6.6013,-6.5897,-6.5897,-6.5897,-6.5897,-6.5897,-6.5897,-6.5897,-6.5897,-6.5897,-6.5897,0.0,0.0,0.0,0.0,0.0,0.0,0.0,0.0,0.0,0.0,0.0,0.0,0.0,0.0,0.0,0.0,0.0,0.0,0.0,0.0,0.0,0.0,-6.6254,-6.8241,-6.8868,-7.2291,-7.5577,-7.787,-8.0315,-8.234,-8.3754,-8.3677,-8.3983,-8.5053,-8.4441,-8.4441,-8.532,-8.4862,-8.4671,-8.4785,-8.4671,-8.4403,-8.4059,-8.4556,-8.4785,-8.4824,-8.5282,-8.5511,-8.5511,-8.5511,-8.5511,-8.5473,-8.5015,-8.4785,-8.4671,-8.299,-8.2302,0.0,0.0,0.0,0.0,0.0,-7.6914,-7.6265,-7.6761,-7.6303,-7.5212,-7.3552,-7.2673,-7.2024,-7.0801,-7.0419,-7.0419,-7.0419,-7.0419,-7.0419,-7.0419,-7.0419,-7.0419,-7.0419,-7.0419,-7.0419,-7.0419,-7.0435,-7.0522,-7.0569,-7.0616,0.0,-6.9957,-6.9634,-6.9323,-6.8932,-6.8179,-6.7513,-6.7128,-6.6667,-6.6397,-6.6397,-6.609,-6.6167,-6.6898,-6.659,0.0,0.0,0.0,-6.6244,-6.5897,-6.5897,0.0,0.0,0.0,0.0,0.0,0.0,0.0,0.0,-6.6551,-6.659,0.0,0.0,0.0,0.0,0.0,0.0,0.0,0.0,0.0,0.0,0.0,0.0,0.0,0.0,0.0,0.0,-6.9502,-7.3055,-7.5692,-7.6168,-7.7602,-8.1347,-8.1881,-8.3181,-8.6352,-8.5397,-8.555,-8.7918,-8.6658,-8.6161,-8.704,0.0,0.0,0.0,0.0,-8.6543,-8.5664,-8.5664,-8.5588,-8.5511,-8.5511,-8.5511,-8.5511,-8.5511,-8.5511,-8.5511,-8.5397,-8.5358,-8.5244,-8.3563,-8.2798,-8.2569,-8.0964,-7.9856,-7.8996,-7.7411,-7.6265,-7.5518,-7.5577,0.0,0.0,-7.3552,-7.2979,-7.2673,-7.0916,-7.0419,-7.0419,-7.0419,-7.0419,-7.0419,-7.0419,-7.0419,-7.0419,-7.0419,-7.0419,-7.0419,-7.0419,-7.0522,-7.0585,-7.0585,-7.0662,-7.0699,-7.0699,-7.0129,-6.9687,-6.9794,-6.9,-6.8129,-6.7359,-6.709,-6.6974,-6.6974,0.0,0.0,-6.8129,-6.7628,-6.7244,-6.7244,-6.7244,-6.6936,-6.6205,-6.6167,-6.6167,-6.6167,-6.6859,-6.7205,-6.709,-6.7898,-6.8321,-6.8385,-6.7628,-6.7667,0.0,0.0,0.0,0.0,0.0,0.0,0.0,0.0,0.0,0.0,0.0,0.0,0.0,0.0,0.0,-6.9884,-7.2881,-7.5883,-7.9092,-8.0124,-8.0888,-8.169,-8.2378,-8.3563,-8.555,-8.6084,-8.681,-8.7995,-8.7804,-8.7957,-8.8759,-8.8186,-8.8071,-8.8568,-8.811,-8.7422,-8.6581,-8.6543,-8.6199,-8.5511,0.0,0.0,-8.5511,-8.5511,-8.5511,-8.5473,-8.4824,-8.4518,-8.4403,-8.2722,-8.1614,-8.0888,-7.9895,-7.9016,-7.8213,-7.787,-7.68,-7.5594,-7.6227,-7.6036,-7.5212,-7.3552,-7.2979,-7.2673,-7.0916,-7.0419,0.0,-7.0419,-7.0419,-7.0419,-7.0419,-7.0419,-7.0419,-7.0419,-7.0419,-7.0419,-7.0419,-7.0522,-7.0639,-7.0678,-7.0714,-7.0787,-7.0843,-7.07,-7.057,-7.0584,-6.9358,-6.8346,-6.8167,-6.6974,-6.6128,-6.6128,-6.6551,-6.7013,-6.7321,-6.7859,-6.8167,-6.8167,-6.8167,-6.809,-6.7936,-6.7936,-6.7936,-6.7936,-6.809,-6.7782,-6.709,-6.7282,-6.7705,-6.8385,-6.8244,-6.8244,0.0,0.0,0.0,0.0,0.0,0.0,0.0,0.0,0.0,0.0,0.0,-6.3923,0.0,0.0,-7.0304,-7.3667,-7.5997,-7.8423,-8.1347,-8.2111,-8.2569,-8.299,-8.3754,-8.4938,-8.6658,-8.7575,-8.8415,-8.9294,-8.9714,-8.9944,-8.9944,-8.9944,-8.9752,-8.9332,-8.8912,-8.8301,-8.746,-8.704,-8.6581,-8.6161,-8.5702,-8.5511,-8.5511,-8.5091,-8.5129,-8.5435,-8.4174,-8.3907,-8.4174,-8.2493,-8.1308,-8.0468,-8.0047,-7.913,-7.8022,-7.8022,-7.6953,-7.5518,-7.5462,-7.5195,-7.4584,-7.2902,-7.2329,-7.21,-7.0801,-7.0419,-7.0419,-7.0419,-7.0419,-7.0419,-7.0419,-7.0419,-7.0419,-7.0419,-7.0419,-7.0419,-7.0506,-7.0585,-7.0678,-7.0752,-7.0801,-7.0857,-7.0898,-7.0871,-7.0728,-7.0305,-6.9563,-6.8744,-6.7859,-6.7013,-6.6667,-6.709,-6.7128,-6.7628,-6.8898,-6.9013,-6.9052,-6.9052,-6.8629,-6.8385,-6.8385,-6.8385,-6.8385,-6.8385,-6.8821,-6.8859,-6.8398,-6.8821,-6.9244,-6.9667,-6.9667,-6.9667,0.0,0.0,0.0,0.0,0.0,0.0,0.0,0.0,-6.3083,-6.4802,-6.6369,-6.7706,-6.8699,-7.1527,-7.4469,-7.6838,-7.8787,-8.0792,-8.2951,-8.3104,-8.3295,-8.4212,-8.4862,-8.6008,-8.7918,-8.8835,-8.9714,-9.0784,-9.1586,-9.1701,-9.0899,-9.1434,-9.109,-8.96,-8.9561,-8.9179,-8.8339,-8.7498,-8.6963,-8.679,-8.5932,-8.5511,-8.5473,-8.4671,-8.4632,-8.5167,-8.3639,-8.341,-8.3945,-8.2607,-8.1538,-8.0735,-8.0582,-7.9474,-7.8022,-7.8022,-7.6838,-7.5157,-7.4431,-7.4087,-7.3705,-7.2176,-7.168,-7.1527,-7.0648,-7.0419,-7.0419,-7.0419,-7.0419,-7.0419,-7.0419,-7.0419,-7.0419,-7.0419,-7.0419,-7.0435,-7.0554,-7.0647,-7.0737,-7.0772,-7.0843,-7.0898,-7.0898,-7.0898,-7.0667,-7.0014,-6.9821,-6.9129,-6.7552,-6.7205,-6.7321,-6.7859,-6.759,-6.8321,-7.0706,-7.0321,-6.9937,-6.9937,-6.9283,-6.8898,-6.8898,-6.8898,-6.8898,-6.8898,-6.959,-6.986,-6.9706,-7.036,-7.0667,-7.0667,-7.0667,-7.0744,-6.1478,-6.1478,-6.1478,-6.1478,-6.2051,-6.3045,0.0,0.0,-6.6598,-6.8279,-6.9349,-7.0495,-7.2138,-7.4545,-7.6876,-7.871,-8.1003,-8.2951,-8.4021,-8.3486,-8.3295,-8.4212,-8.4365,-8.5397,-8.7842,-8.8835,-8.9944,-9.1548,-9.2465,-9.258,-9.1701,-9.1739,-9.1395,-9.0478,-9.044,-9.0058,-8.9179,-8.8339,-8.7575,-8.679,-8.5932,-8.5511,-8.5473,-8.4671,-8.4327,-8.4365,-8.341,-8.3066,-8.3104,-8.2913,-8.2378,-8.1576,-8.0812,-7.9474,-7.8022,-7.8022,-7.6456,-7.4316,-7.424,-7.3743,-7.2979,-7.1985,-7.168,-7.1527,-7.0648,-7.0419,-7.0419,-7.0419,-7.0419,-7.0419,-7.0419,-7.0419,-7.0419,-7.0419,-7.0419,-7.0435,-7.0554,-7.0647,-7.0737,-7.0772,-7.0843,-7.0898,-7.0898,-7.0898,-7.086,-7.0783,-7.0167,-6.936,-6.8398,-6.759,-6.6859,-6.6244,-6.7436,-6.8975,-7.0744,-7.0821,-7.0783,-7.0783,-7.0667,-7.0629,-7.0629,-7.0629,-7.0629,-7.0629,-7.0706,-7.0398,-6.9706,-6.9783,-6.9821,-6.9821,-6.9821,-7.0206,-6.2357,-6.1975,-6.1975,-6.3427,-6.4458,-6.5681,-6.7821,-6.8967,-7.0075,-7.1756,-7.317,-7.4431,-7.5692,-7.7984,-8.0238,0.0,-8.3486,-8.4594,-8.4938,-8.4671,-8.3868,-8.2264,-8.2951,-8.4518,-8.7116,-8.811,-8.9485,-9.1625,-9.2121,-9.2198,-9.1816,-9.1816,-9.1434,-9.0631,-9.0593,-9.044,-9.0058,-8.8759,-8.7918,-8.7536,-8.5664,-8.4785,-8.4747,-8.3448,-8.2569,-8.2111,-8.2225,-8.1996,-8.1499,-8.1041,-8.0659,-8.0238,-7.9398,-7.8328,-7.7258,-7.7258,-7.6265,-7.4813,-7.3858,-7.3284,-7.275,-7.1374,-7.0954,-7.0877,-7.0533,-7.0419,-7.0419,-7.0419,-7.0419,-7.0419,-7.0419,-7.0419,-7.0419,-7.0419,-7.0451,-7.0554,-7.0647,-7.0723,-7.0772,-7.0843,-7.0871,-7.0898,-7.0898,-7.0898,-7.0898,-7.0898,-7.0206,-6.9398,-6.85,-6.809,-6.7744,-6.7398,-6.8436,-6.9244,-6.9436,-6.9436,-6.9667,-7.0167,-7.0206,-7.0398,-7.0898,-7.0898,-7.0898,-7.0898,-7.0898,-7.0744,-7.0398,-7.0398,-7.0398,-7.0398,-7.0398,-7.0591,-6.2624,-6.293,-6.377,-6.5643,-6.7286,-6.9043,-7.1298,-7.2482,-7.3552,-7.5271,-7.6761,-7.7946,-7.8557,-8.0391,-8.234,-8.4021,-8.4785,-8.5244,-8.5473,-8.49,-8.341,-8.0506,-8.0812,-8.2264,-8.4824,-8.6696,-8.8683,-9.0937,-9.1548,-9.1816,-9.1816,-9.1816,-9.1434,-9.0631,-9.0593,-9.0478,-9.0249,-8.8835,-8.7842,-8.7345,-8.5282,-8.4174,-8.3868,-8.2455,-8.1308,-8.0544,-8.1156,-8.1232,-8.0812,-8.0238,-7.9856,-7.9551,-7.8672,-7.7678,-7.6647,-7.6188,-7.5501,-7.4622,-7.3399,-7.2673,-7.2062,-7.0801,-7.0419,-7.0419,-7.0419,-7.0419,-7.0419,-7.0419,-7.0419,-7.0419,-7.0419,-7.0419,-7.0419,-7.0435,-7.0538,-7.0693,-7.1029,-7.1142,-7.1199,-7.1231,-7.1245,-7.1168,-7.0937,-7.0898,-7.0898,-7.0898,-7.0398,-6.9706,-6.8859,-6.8552,-6.8513,-6.8744,-6.9129,-6.9167,-6.8783,-6.8552,-6.8667,-6.9321,-6.936,-6.959,-7.0206,-7.0206,-7.0206,-7.0206,-7.0206,-7.0206,-7.0206,-7.0437,-7.0552,-7.0552,-7.0783,-7.0898,-6.186,-6.4611,-6.7706,-6.7782,-7.0342,-7.3246,-7.4983,-7.5959,-7.7029,-7.8805,-7.9818,-8.0391,-8.043,-8.1194,-8.234,-8.4021,-8.4327,-8.4594,-8.5397,-8.3448,-8.127,-7.9531,-7.787,-7.787,0.0,-8.4441,-8.7536,-8.9256,-9.0899,-9.1816,-9.1816,-9.1816,-9.1434,-9.0631,-9.0593,-9.0211,-8.937,-8.853,-8.7231,-8.5588,-8.4709,-8.3868,-8.299,-8.2187,-8.1308,-8.0506,-8.0544,-8.1003,-8.1767,-8.1729,-8.1232,-8.0391,-7.9589,-7.8213,-7.6494,-7.4889,-7.3781,-7.3055,-7.3017,-7.1909,-7.0495,-7.0419,-7.0419,-7.0419,-7.0419,-7.0419,-7.0419,-7.0419,-7.0419,-7.0419,-7.0419,-7.0419,-7.0435,-7.0554,-7.0608,-7.0861,-7.1833,-7.2069,-7.2083,-7.2154,-7.2168,-7.1898,-7.1052,-7.0898,-7.0898,-7.0898,-7.0898,-7.0552,-6.9744,-6.8936,-6.8744,-6.959,-6.8936,-6.8783,-6.959,-6.8898,-6.8398,-6.8423,-6.8423,-6.8462,-6.8475,-6.8475,-6.8475,-6.8475,-6.8475,-6.8475,-6.8475,-6.9321,-6.9744,-6.9744,-7.0552,-7.0898,-6.6101,-6.7668,-6.9425,-7.2215,-7.4201,-7.5921,-7.762,-7.8634,-7.9245,-7.9302,-7.8596,-7.764,-7.6532,-7.7487,-7.8978,-8.0697,-8.3295,-8.5015,-8.4747,-8.4938,-8.3028,-7.7449,-7.8213,0.0,0.0,0.0,0.0,-8.895,-8.9829,-9.0631,-9.1739,-9.1816,-9.1434,-9.0631,-9.0058,-8.96,-8.9294,-8.7345,-8.6084,-8.5473,-8.3563,-8.2493,-8.2187,-8.1308,-8.0773,-8.0506,-8.0506,-8.0659,-8.085,-7.9742,-7.913,-7.871,-7.7296,-7.6418,-7.5844,-7.5271,-7.4545,-7.3628,-7.252,-7.1756,-7.1183,-7.061,-7.0419,-7.0419,-7.0419,-7.0419,-7.0419,-7.0419,-7.0419,-7.0419,-7.0419,-7.0451,-7.0538,-7.0569,-7.1122,-7.1688,-7.2016,-7.2597,-7.287,-7.2322,-7.2668,-7.2591,-7.1168,-7.136,-7.1552,-7.0975,-7.0898,-7.0783,-7.0514,-7.0244,-6.9744,-6.8936,-6.859,-6.809,-6.7244,-6.6898,-6.6974,-6.7513,-6.7552,-6.7782,-6.8398,-6.8385,-6.8385,-6.8385,-6.8385,-6.8385,-6.8385,-6.8706,-6.8859,-6.8859,-6.9706,-7.009,-6.805,-7.0266,-7.2597,-7.5653,-7.722,-7.8443,-7.9856,-8.0124,-7.9665,-7.8232,-7.68,-7.5195,-7.3208,-7.3972,-7.5577,-7.762,-8.0162,-8.2264,-8.3257,-8.3563,-8.1958,-7.7373,-7.8213,-7.8519,0.0,0.0,0.0,-8.7116,-8.8071,-8.9141,-9.0822,-9.1204,-9.0975,-9.0173,-8.96,-8.9027,-8.8415,-8.6772,-8.5511,-8.4594,-8.2378,-8.1347,-8.1308,-8.0773,-8.0506,-8.0506,-8.0506,-8.0506,-8.0391,-7.9016,-7.829,-7.787,-7.6456,-7.573,-7.548,-7.5157,-7.4507,-7.3628,-7.252,-7.1947,-7.1565,-7.0686,-7.0419,-7.0419,-7.0419,-7.0419,-7.0419,-7.0419,-7.0419,-7.0419,-7.0451,-7.0538,-7.0601,-7.0662,-7.1174,-7.18,-7.2482,-7.3048,-7.3322,-7.2783,-7.3129,-7.2937,-7.1206,-7.136,-7.1629,-7.1398,-7.1091,-7.0898,-7.0898,-7.0898,-7.0398,-6.9013,-6.859,-6.7859,-6.6436,-6.6051,-6.6128,-6.6628,-6.6667,-6.6936,-6.7475,-6.7513,-6.7513,-6.7513,-6.7513,-6.7513,-6.7513,-6.7821,-6.809,-6.8398,-6.8975,-6.9552,-6.805,-7.2482,-7.7067,-7.8022,-7.9436,-8.0773,-8.1499,-8.0353,-7.8423,-7.5862,-7.4545,-7.3132,0.0,0.0,-7.2291,-7.4945,-7.5556,-7.7144,-8.1347,-7.9933,-7.871,0.0,0.0,0.0,0.0,0.0,0.0,-8.4136,0.0,-8.7575,-8.9294,-9.0211,-9.0249,-8.9332,-8.9256,-8.8453,-8.681,-8.6696,-8.5397,-8.3028,-8.1308,-8.0544,-8.0621,-8.0544,-8.0506,-8.0506,-8.0506,-8.0468,-8.0391,-7.9551,-7.871,-7.787,-7.6991,-7.615,-7.5403,-7.4584,-7.3781,-7.3132,-7.3017,-7.2406,-7.1489,-7.0686,-7.0419,-7.0419,-7.0419,-7.0419,-7.0419,-7.0419,-7.0419,-7.0435,-7.0569,-7.0623,-7.0632,-7.0758,-7.0825,-7.1353,-7.3077,-7.3476,-7.35,-7.3437,-7.3399,-7.286,-7.1245,-7.0937,-7.1168,-7.2014,-7.1437,-7.0898,-7.0898,-7.0898,-7.0552,-6.9706,-6.8898,-6.8052,-6.7167,-6.6397,-6.5974,-6.5974,-6.5974,-6.5936,-6.5897,-6.5897,-6.5897,-6.5897,-6.5897,-6.5897,-6.5897,-6.6667,-6.7475,-6.8321,-6.8385,-6.9244,-7.3208,-7.6494,-7.913,-8.1194,-8.1614,-8.1194,-8.0162,-7.8596,-7.6456,-7.3323,-7.0992,-6.8929,0.0,0.0,0.0,-7.3017,-7.6282,0.0,-8.3142,-8.4174,0.0,-8.2264,0.0,-8.2264,-8.2073,-8.2416,0.0,0.0,-8.6581,-8.7842,-9.0135,-9.1052,-9.0822,-8.937,-8.8721,-8.788,-8.681,-8.4938,-8.3983,-8.3945,-8.1614,-8.1156,-8.2302,-8.1079,-8.0506,-8.0506,-8.0506,-8.0162,-7.9531,-7.8672,-7.7831,-7.6953,-7.6112,-7.5653,-7.5462,-7.5233,-7.5042,-7.466,-7.3437,-7.1985,-7.0686,-7.0495,-7.0419,-7.0419,-7.0419,-7.0419,-7.0419,-7.0522,-7.0554,-7.0569,-7.0662,-7.0723,-7.0782,-7.0787,-7.1329,-7.1962,-7.2437,-7.3053,-7.3322,-7.2668,-7.2014,-7.1629,-7.1822,-7.1321,-7.0975,-7.1206,-7.1052,-7.0898,-7.0898,-7.0898,-7.036,-6.8898,-6.8552,-6.8052,-6.7167,-6.6898,-6.6782,-6.6782,-6.6782,-6.6513,-6.5897,-6.5897,-6.5897,-6.5897,-6.5897,-6.5897,-6.5897,-6.609,-6.6628,-6.7436,-6.809,-6.8615,-7.6265,-7.9054,-8.1251,-8.2665,-8.2111,-8.0773,-7.9092,-7.6838,-7.401,-7.0266,-6.7782,0.0,-6.4038,-6.4458,-6.6407,0.0,0.0,0.0,-8.2455,-8.3677,-8.4174,0.0,-8.5091,0.0,-8.4709,-8.5129,-8.6084,0.0,-8.7575,-8.8148,-8.9944,-9.0478,-9.0096,-8.8797,-8.7957,-8.6925,-8.5702,-8.4289,-8.3601,-8.3715,-8.192,-8.1576,-8.2416,-8.1079,-8.0506,-8.0506,0.0,-8.0238,-7.9704,-7.8519,-7.7717,-7.7144,-7.5959,-7.5518,-7.5518,-7.5518,-7.5271,-7.4736,-7.3437,-7.21,-7.0916,-7.0533,-7.0419,-7.0419,-7.0451,-7.0506,-7.0522,-7.0616,-7.0647,-7.0662,-7.0737,-7.0758,-7.0916,-7.1329,-7.1525,-7.1822,-7.2591,-7.286,-7.2783,-7.2283,-7.1514,-7.1168,-7.2052,-7.1475,-7.1014,-7.1398,-7.1129,-7.0898,-7.0898,-7.0898,-7.0398,-6.9129,-6.8975,-6.8629,-6.7744,-6.7667,-6.7667,-6.7667,-6.7321,-6.6898,-6.6436,-6.609,-6.5897,-6.5897,-6.5897,-6.5897,-6.5897,-6.5897,-6.6513,-6.7667,-6.7782,-6.8436,-7.8481,-8.1117,-8.3486,-8.3486,-8.1996,-7.9971,-7.7946,-7.4813,-7.1145,-6.7056,0.0,-6.3427,-6.2013,-6.2395,-6.4382,-6.8967,0.0,-7.3552,-8.1079,-8.1576,-8.2684,-8.681,-8.7287,-8.7345,-8.746,-8.746,-8.8033,-8.937,-8.8721,-8.8568,-8.9256,-8.9294,-8.8874,-8.7957,-8.7078,-8.5893,-8.4327,-8.4289,-8.3868,-8.299,-8.2187,-8.1805,-8.1767,-8.0888,-8.0506,-8.0506,-8.0506,-8.043,-8.0238,-7.8787,-7.8061,-7.7678,-7.6227,-7.5594,-7.5518,-7.5518,-7.5004,-7.4278,-7.3437,-7.269,-7.1887,-7.0763,-7.0495,-7.0604,-7.0592,-7.07,-7.0769,-7.0746,-7.0814,-7.0906,-7.0979,-7.107,-7.1353,-7.2192,-7.1783,-7.1668,-7.3168,-7.2822,-7.2168,-7.2052,-7.1398,-7.1129,-7.1898,-7.1514,-7.1283,-7.1937,-7.1475,-7.1052,-7.1052,-7.0975,-7.0591,-6.9783,-6.9821,-6.9513,-6.8667,-6.8667,-6.8706,-6.859,-6.7744,-6.7205,-6.709,-6.632,-6.5897,-6.5897,-6.6013,-6.6051,-6.6051,-6.6167,-6.7051,-6.8552,-6.7782,-6.8629,-8.2225,-8.4632,-8.6161,-8.6161,-8.3295,-7.9513,-7.573,-7.1718,0.0,0.0,-6.2739,-6.2166,-6.2586,-6.2815,-6.4955,-7.1298,-7.3017,-7.5959,-8.2875,-8.4327,-8.597,0.0,-8.9944,-9.0211,-9.0861,-9.0937,0.0,0.0,-8.96,-8.9141,-8.9294,-8.9294,-8.8606,-8.7078,-8.6199,-8.5282,-8.4289,-8.4289,-8.3868,-8.299,-8.2187,-8.1805,-8.1767,-8.0888,-8.0506,-8.0506,-8.0506,0.0,-7.9493,-7.9169,-7.8213,-7.6914,-7.6609,-7.6074,-7.5518,-7.5518,-7.5386,-7.5157,-7.4278,-7.3985,-7.3538,-7.1161,-7.0926,-7.145,-7.0799,-7.113,-7.1628,-7.0974,-7.131,-7.1862,-7.1948,-7.25,-7.3063,-7.3231,-7.3168,-7.3129,-7.3423,-7.2822,-7.1975,-7.1283,-7.1014,-7.0937,-7.1091,-7.1591,-7.1783,-7.1206,-7.1591,-7.1975,-7.1975,-7.136,-7.0591,-6.9783,-7.0283,-7.036,-6.9552,-7.009,-7.0167,-6.9513,-6.8667,-6.7859,-6.7128,-6.632,-6.5897,-6.5897,-6.6551,-6.6898,-6.6898,-6.7628,-6.8475,-6.9475,-6.9321,-6.9475,-8.3754,-8.5855,-8.7154,-8.5817,-8.2646,-7.8634,-7.3972,0.0,0.0,0.0,-6.2204,-6.2013,-6.3312,-6.3197,0.0,-7.0151,-7.0954,-7.3437,-8.0659,-8.276,0.0,-8.9409,-9.0708,-9.1395,0.0,-9.1816,-9.1472,-9.0669,-8.9791,-8.9294,-8.9294,-8.8033,-8.6963,-8.6161,-8.4862,-8.4021,-8.3639,-8.3601,-8.3181,-8.2378,-8.1996,-8.1805,-8.1767,-8.0888,-8.0506,-8.0506,-8.0506,-8.0277,-7.9895,-7.9493,-7.8519,-7.7335,-7.6876,-7.6188,-7.5518,-7.5518,-7.5518,-7.5403,-7.4559,-7.4341,-7.4107,-7.2422,-7.188,-7.185,-7.1513,-7.1697,-7.2063,-7.2174,-7.2496,-7.2856,-7.2885,-7.3206,-7.363,-7.4014,-7.413,-7.4014,-7.3577,-7.3168,-7.2745,-7.2322,-7.2245,-7.2245,-7.2245,-7.2591,-7.2745,-7.2322,-7.2206,-7.236,-7.2822,-7.2129,-7.1437,-7.1052,-7.0937,-7.0937,-7.1014,-7.136,-7.1398,-7.1014,-7.0167,-6.9321,-6.8475,-6.7667,-6.7205,-6.7205,-6.759,-6.7782,-6.7782,-6.8205,-6.8859,-6.9706,-6.9706,-6.9937,-8.4671,-8.6543,-8.7804,-8.5435,-8.1767,-7.7467,-7.2559,-6.8012,0.0,-6.293,-6.2089,-6.2128,-6.39,-6.3618,-6.4496,0.0,-6.8623,-7.0648,-7.7773,-8.0506,-8.3524,0.0,-9.0555,0.0,-9.1816,-9.1816,0.0,-9.0402,-8.937,-8.8759,-8.8759,-8.6543,-8.5244,-8.5244,-8.3792,-8.2913,-8.2722,-8.2913,-8.2493,-8.1538,-8.1729,-8.169,-8.1499,-8.0812,-8.0506,-8.0506,-8.0506,-8.0506,-8.043,-7.9818,-7.8939,-7.7946,-7.7449,-7.6647,-7.5768,-7.5959,-7.5938,-7.5744,-7.5162,-7.4829,-7.4593,-7.3791,-7.3077,-7.2517,-7.2385,-7.2491,-7.2751,-7.3346,-7.363,-7.3783,-7.3783,-7.3899,-7.4207,-7.4822,-7.4976,-7.4745,-7.3937,-7.3783,-7.3707,-7.3538,-7.3514,-7.3514,-7.3514,-7.363,-7.3707,-7.3553,-7.3053,-7.2976,-7.3668,-7.3014,-7.2552,-7.2706,-7.2129,-7.1937,-7.2437,-7.2629,-7.2591,-7.2206,-7.136,-7.0552,-6.9744,-6.8859,-6.8385,-6.8385,-6.859,-6.8667,-6.8667,-6.8859,-6.9283,-6.9975,-6.9975,-7.0283,-8.5932,-8.7842,-8.8759,-8.7001,-8.1729,-7.5844,-7.1565,0.0,-6.2853,-6.1898,-6.1669,-6.2128,-6.39,-6.4129,-6.5184,-6.8623,0.0,-7.0916,-7.6188,-7.9742,-8.3104,-8.6619,0.0,0.0,-9.1816,-9.1816,0.0,-8.9561,-8.7957,-8.7019,-8.7019,-8.5358,-8.4403,-8.4403,-8.3486,-8.2646,-8.192,-8.2607,-8.2187,-8.0621,-8.1423,-8.1385,-8.0621,-8.0544,-8.0506,-8.0506,-8.0506,-8.0506,0.0,-8.043,-7.9436,-7.8061,-7.8787,-7.8061,-7.6685,-7.7487,-7.735,-7.6769,-7.6692,-7.6273,-7.5595,-7.4727,-7.4435,-7.4205,-7.3437,-7.3788,-7.4346,-7.3692,-7.4053,-7.4591,-7.4591,-7.5168,-7.5784,-7.5861,-7.5861,-7.563,-7.4784,-7.4591,-7.4361,-7.363,-7.3514,-7.3514,-7.3514,-7.413,-7.4361,-7.363,-7.4053,-7.4514,-7.4591,-7.3899,-7.3668,-7.4399,-7.4399,-7.4091,-7.3437,-7.4053,-7.3822,-7.2283,-7.136,-7.0552,-6.9744,-6.8859,-6.8385,-6.8385,-6.9167,-6.959,-6.959,-7.0321,-7.0706,-7.0783,-7.0783,-7.0821,-8.5072,-8.7309,-8.8229,-8.6448,-8.1346,-7.5646,-7.1516,0.0,-6.2891,-6.2519,-6.2428,-6.2949,-6.4626,-6.4535,-6.4802,-6.6636,-6.6522,-6.7591,-7.1603,-7.466,-7.8481,-8.3868,-8.6581,0.0,0.0,0.0,-9.0364,-8.8683,-8.746,-8.6581,-8.6046,-8.4938,-8.4289,-8.4289,-8.299,-8.2111,-8.1805,-8.1614,-8.1156,-8.0506,-8.085,-8.085,-8.0506,-8.0506,-8.0506,-8.0506,-8.0506,-8.0506,0.0,-7.9971,-7.9092,-7.8022,-7.8438,-7.7844,-7.6943,-7.7837,-7.7986,-7.7675,-7.7188,-7.6831,-7.6471,-7.5686,-7.5432,-7.5278,-7.4433,-7.4409,-7.4745,-7.4938,-7.5245,-7.5476,-7.5476,-7.5745,-7.6015,-7.6015,-7.6015,-7.5899,-7.5553,-7.5476,-7.5399,-7.5053,-7.5014,-7.5014,-7.5014,-7.5284,-7.5361,-7.5053,-7.4822,-7.4899,-7.5438,-7.4745,-7.4553,-7.5399,-7.4591,-7.4053,-7.4207,-7.4514,-7.4207,-7.3053,-7.2668,-7.186,-7.0475,-7.009,-6.9898,-6.9898,-7.0244,-7.0437,-7.0437,-7.0744,-7.0898,-7.0898,-7.0898,-7.0898,-8.2416,-8.515,-8.6643,-8.4882,-8.0197,-7.5047,0.0,-6.6533,-6.3088,-6.302,-6.3006,-6.3413,-6.4779,-6.4764,-6.4649,-6.4993,-6.4764,-6.5528,-6.8394,-7.1221,-7.4927,0.0,0.0,-8.5358,0.0,-8.9561,-8.937,-8.8186,-8.704,-8.6161,-8.555,-8.4747,-8.4174,-8.3907,-8.2531,-8.169,-8.1423,-8.0812,-8.0506,-8.0506,-8.0506,-8.0506,-8.0506,-8.0506,-8.0506,-8.0506,-8.0506,-8.0506,0.0,-7.9646,-7.8939,-7.8384,-7.8474,-7.8126,-7.776,-7.8688,-7.8892,-7.8618,-7.8068,-7.7562,-7.7055,-7.6538,-7.6207,-7.5899,-7.5284,-7.5245,-7.5553,-7.5899,-7.6015,-7.6015,-7.6015,-7.6015,-7.6053,-7.6322,-7.6361,-7.6438,-7.6669,-7.6746,-7.6746,-7.6746,-7.6746,-7.6669,-7.6438,-7.6361,-7.6284,-7.6053,-7.5476,-7.5322,-7.5938,-7.5476,-7.5322,-7.5938,-7.4938,-7.4476,-7.5053,-7.5091,-7.463,-7.3591,-7.3514,-7.2706,-7.0975,-7.0898,-7.1014,-7.1283,-7.1283,-7.1398,-7.1668,-7.1668,-7.1668,-7.1668,-7.1668,-7.1668,-7.7722,-8.1226,-8.4059,-8.2375,-7.8108,-7.344,-7.0072,-6.6074,-6.3088,-6.302,-6.3006,-6.326,-6.4067,-6.484,-6.5146,-6.4344,-6.4879,-6.5987,-6.7668,-7.0839,0.0,0.0,0.0,-8.1881,-8.5244,-8.7116,-8.811,-8.811,-8.6505,0.0,-8.5511,-8.4747,-8.3907,-8.3028,-8.2225,-8.1385,-8.0506,-8.0506,-8.0506,-8.0506,-8.0506,-8.0506,-8.0506,-8.0506,-8.0506,-8.0506,-8.0506,-8.0506,0.0,-7.9646,-7.9302,-7.9302,-7.9371,-7.9407,-7.9483,-8.0413,-8.0306,-7.9697,-7.9697,-7.8631,-7.7284,-7.7284,-7.6707,-7.6015,-7.5976,-7.6592,-7.7092,-7.6245,-7.6015,-7.6015,-7.6015,-7.6015,-7.6207,-7.7092,-7.7284,-7.7476,-7.8284,-7.8477,-7.8477,-7.8477,-7.8477,-7.8207,-7.74,-7.7284,-7.6976,-7.613,-7.5976,-7.5976,-7.6015,-7.5976,-7.5976,-7.6015,-7.5976,-7.5976,-7.5976,-7.5976,-7.5284,-7.363,-7.3514,-7.2706,-7.0975,-7.0898,-7.1321,-7.2168,-7.2168,-7.2591,-7.3476,-7.3476,-7.3476,-7.3476,-7.3476,-7.3476,-7.451,-7.6635,-7.7703,-7.7675,-7.474,-7.1183,-6.8359,-6.5843,-6.3911,-6.3217,-6.3075,-6.3316,-6.4067,-6.4435,-6.4511,-6.4244,-6.4879,0.0,0.0,0.0,0.0,-7.5174,-8.0468,-8.4556,0.0,0.0,-8.6084,-8.555,-8.5511,-8.5282,-8.4709,-8.4441,-8.3907,-8.3028,-8.2225,-8.1385,-8.0506,-8.0506,-8.0506,-8.0506,-8.0506,-8.0506,-8.0506,-8.0506,-8.0506,-8.0506,-8.0506,-8.02,0.0,-7.9451,-7.9009,-7.855,-7.9297,-7.9632,-7.9709,-8.0674,-8.0876,-8.0584,-7.9969,-7.9408,-7.89,-7.8323,-7.7938,-7.7707,-7.7707,-7.7092,-7.6361,-7.6092,-7.6438,-7.6899,-7.6899,-7.6899,-7.7092,-7.79,-7.813,-7.8169,-7.8438,-7.8477,-7.8477,-7.8477,-7.8477,-7.84,-7.8169,-7.813,-7.8015,-7.7746,-7.7707,-7.7515,-7.6938,-7.7361,-7.7284,-7.613,-7.6515,-7.663,-7.6053,-7.6015,-7.5515,-7.4399,-7.4322,-7.3822,-7.2706,-7.2668,-7.2822,-7.3091,-7.3091,-7.3206,-7.3514,-7.3514,-7.3514,-7.3514,-7.3514,-7.3514,0.0,-7.2149,-7.3292,-7.373,-7.1827,-6.926,-6.7009,-6.5257,-6.3821,-6.2835,-6.263,-6.2795,-6.3165,-6.3762,-6.412,-6.3785,-6.442,-6.5031,0.0,0.0,0.0,-7.5059,0.0,0.0,0.0,-8.4785,-8.4824,-8.4327,-8.4441,-8.4327,-8.383,-8.3524,-8.3104,-8.2569,-8.2073,-8.1385,-8.0506,-8.0506,-8.0506,-8.0506,-8.0506,-8.0506,-8.0506,-8.0506,-8.0506,-8.0506,-8.0506,-8.0219,0.0,-7.9524,-7.9309,-7.9152,-7.9533,-7.9905,-8.0213,-8.0869,-8.1093,-8.1016,-8.0477,-8.0092,-7.9708,-7.9169,-7.8746,-7.8477,-7.8477,-7.7746,-7.7015,-7.7323,-7.7592,-7.7746,-7.7746,-7.7746,-7.7938,-7.8784,-7.8977,-7.9092,-7.94,-7.9477,-7.9477,-7.9477,-7.9477,-7.9361,-7.9054,-7.8977,-7.8861,-7.8554,-7.8477,-7.8323,-7.7823,-7.8169,-7.8092,-7.7053,-7.7169,-7.7092,-7.6553,-7.6207,-7.563,-7.4784,-7.4707,-7.4361,-7.3538,-7.3514,-7.363,-7.3937,-7.3976,-7.413,-7.4437,-7.4437,-7.4437,-7.4437,-7.4437,-7.4437,0.0,-6.7766,-7.021,-7.0326,-6.9198,-6.7623,-6.5972,-6.4449,0.0,-6.2183,-6.1979,-6.1927,-6.175,-6.3064,-6.3896,-6.2968,-6.3579,-6.4458,0.0,-6.7706,0.0,0.0,-7.8634,0.0,-8.043,-8.2722,-8.4174,0.0,0.0,-8.299,-8.2913,-8.2225,-8.1805,-8.1805,-8.1729,-8.1308,-8.0506,-8.0506,-8.0468,-8.043,-8.0468,-8.0468,-8.043,-8.0468,-8.0506,0.0,-8.043,-8.0447,0.0,-7.9713,-7.9918,-8.0656,-8.0027,-8.0251,-8.0943,-8.1061,-8.1093,-8.1093,-8.1093,-8.0554,-7.99,-7.99,-7.9323,-7.8669,-7.8669,-7.8631,-7.8746,-7.9515,-7.9169,-7.8592,-7.8592,-7.8592,-7.8823,-7.9708,-7.99,-8.0131,-8.0939,-8.1093,-8.1093,-8.1093,-8.1093,-8.0823,-8.0054,-7.99,-7.9631,-7.8784,-7.8669,-7.8669,-7.8592,-7.8631,-7.8631,-7.8515,-7.79,-7.7438,-7.74,-7.6515,-7.5668,-7.4861,-7.4784,-7.4476,-7.3707,-7.3668,-7.4053,-7.4784,-7.4784,-7.5207,-7.6015,-7.6015,-7.6015,-7.6015,-7.6015,-7.6015,-6.1769,0.0,-6.4449,-6.5756,-6.5756,-6.5359,0.0,-6.4577,-6.4206,-6.3871,-6.2823,-6.2119,-6.2515,-6.2988,-6.2978,-6.2065,-6.3197,-6.4282,-6.4473,0.0,0.0,-7.7926,-8.0238,-8.1003,-7.9704,-8.1843,0.0,0.0,0.0,-8.2722,-8.2111,-8.192,-8.1805,-8.1805,-8.1156,-8.0697,-8.0506,-8.0506,-8.02,-7.9607,-8.02,-8.0162,-7.9589,-8.02,-8.0506,-8.0468,-7.9856,-7.9624,-7.9675,-7.9514,-7.9676,-7.9988,-8.0568,-8.0869,-8.1061,-8.1093,-8.1093,-8.1093,-8.1093,-8.0977,-8.0785,-8.0785,-8.0669,-8.0477,-8.0477,-8.0015,-7.94,-7.8938,-7.9131,-7.9477,-7.9477,-7.9477,-7.9708,-8.0592,-8.0785,-8.0862,-8.1054,-8.1093,-8.1093,-8.1093,-8.1093,-8.1016,-8.0823,-8.0785,-8.0708,-8.0516,-8.0477,-8.0246,-7.9592,-8.0092,-7.9977,-7.8631,-7.8938,-7.8938,-7.8246,-7.6861,-7.5899,-7.5707,-7.5707,-7.563,-7.5438,-7.5399,-7.5515,-7.5707,-7.5707,-7.5784,-7.6015,-7.6015,-7.6015,-7.6015,-7.6015,-7.6015,-6.1858,-6.1743,-6.1897,-6.3589,-6.4012,-6.4128,-6.4512,-6.4589,-6.4436,-6.3909,-6.2849,-6.2081,-6.2285,-6.2366,-6.2254,-6.1683,-6.2739,0.0,0.0,0.0,-7.3361,-7.7602,-7.9245,-8.0009,0.0,0.0,0.0,0.0,-8.1347,-8.1652,-8.1232,-8.1194,-8.1194,-8.1194,-8.0735,-8.0506,-8.0506,-8.0124,-7.9704,-7.9302,-7.9321,-7.9321,-7.9302,-7.9321,-7.978,-8.0468,-7.9627,-7.9565,-8.0033,-8.0085,-8.0186,-8.0376,-8.0885,-8.1093,-8.1093,-8.1093,-8.1093,-8.1093,-8.1093,-8.1093,-8.1093,-8.1093,-8.1093,-8.1093,-8.1093,-8.0785,-8.0285,-7.9823,-8.0015,-8.04,-8.04,-8.04,-8.0516,-8.0977,-8.1093,-8.1093,-8.1093,-8.1093,-8.1093,-8.1093,-8.1093,-8.1093,-8.1093,-8.1093,-8.1093,-8.1093,-8.1093,-8.0939,-8.0477,-8.0823,-8.0746,-7.9785,-7.9746,-7.9631,-7.9131,-7.79,-7.6976,-7.663,-7.6592,-7.6592,-7.6592,-7.6207,-7.6015,-7.6015,-7.6015,-7.6015,-7.6015,-7.6015,-7.6015,-7.6015,-7.6015,-7.6015,-6.282,-6.1973,-6.1358,-6.2897,-6.3308,-6.3512,-6.4243,0.0,0.0,0.0,0.0,0.0,0.0,-6.1833,0.0,0.0,0.0,0.0,-6.8356,-7.019,-7.2597,-7.6456,-7.7793,0.0,0.0,0.0,0.0,0.0,-8.0506,-8.0506,-8.0506,-8.0506,-8.0506,-8.0506,-8.0506,-8.043,-8.0333,-7.9646,-7.9302,-7.9302,-7.8557,-7.8519,-7.9054,-7.8481,-7.8978,-8.0295,0.0,0.0,-8.0809,-8.0656,-8.0718,-8.09,-8.1054,-8.1016,-8.0939,-8.1054,-8.1093,-8.1093,-8.1093,-8.1093,-8.1093,-8.1093,-8.1093,-8.1093,-8.1093,-8.1093,-8.1093,-8.1093,-8.1093,-8.1093,-8.1093,-8.1093,-8.1093,-8.1093,-8.1093,-8.1093,-8.1093,-8.1093,-8.1093,-8.1093,-8.1093,-8.1093,-8.1093,-8.1093,-8.1093,-8.1093,-8.1093,-8.1093,-8.1093,-8.1093,-8.1093,-8.1093,-8.0439,-8.0015,-8.0015,-7.9323,-7.8554,-7.7707,-7.7553,-7.7476,-7.7476,-7.6784,-7.6361,-7.6361,-7.6361,-7.6322,-7.6207,-7.6207,-7.613,-7.6015,-7.6015,-7.6015,-6.155,-6.1512,-6.2139,-6.3089,-6.3308,-6.3346,-6.3462,-6.2974,-6.2591,0.0,0.0,0.0,0.0,-6.2331,-6.2602,0.0,0.0,-6.7782,0.0,0.0,-7.5462,-7.7564,0.0,0.0,0.0,0.0,0.0,0.0,-8.0506,-8.0506,-8.0506,-8.0506,-8.0506,-8.0506,-8.0506,-8.0199,-7.9545,-7.9396,-7.9302,-7.9302,-7.9187,-7.8787,-7.8213,-7.8825,-7.9262,-7.9524,0.0,-7.9284,-8.0833,-8.0142,-7.9937,-8.0092,-8.0823,-8.0669,-8.0092,-8.0823,-8.1093,-8.1093,-8.1093,-8.1093,-8.1093,-8.1093,-8.1093,-8.1093,-8.1093,-8.1093,-8.1093,-8.1093,-8.1093,-8.1093,-8.1093,-8.1093,-8.1093,-8.1093,-8.1093,-8.1093,-8.1093,-8.1093,-8.1093,-8.1093,-8.1093,-8.1093,-8.1093,-8.1093,-8.1093,-8.1093,-8.1093,-8.1093,-8.1093,-8.1093,-8.1093,-8.1093,-8.0977,-8.09,-8.09,-8.0785,-8.0323,-7.9477,-7.8707,-7.8323,-7.8323,-7.8169,-7.813,-7.813,-7.813,-7.7784,-7.7092,-7.7092,-7.6707,-7.6015,-7.6015,-7.6015,-6.2935,-6.3474,-6.4012,-6.3435,-6.2974,-6.2769,-6.3155,-6.2963,-6.2784,-6.3052,0.0,0.0,0.0,0.0,-6.3674,-6.5444,0.0,-6.9846,-7.3093,-7.4278,-7.5424,0.0,0.0,0.0,0.0,0.0,0.0,0.0,-8.0506,-8.0315,-7.9856,-8.0238,-8.0086,-7.9169,-7.9644,-7.9527,-7.87,-7.8279,-7.8067,-7.8067,-7.7569,-7.7377,-7.7437,-7.7377,-7.7892,-7.8769,0.0,-7.8738,-7.9582,-7.9659,-7.9745,-7.9862,-8.0246,-8.0439,-8.0554,-8.0939,-8.1093,-8.1093,-8.1093,-8.1093,-8.1093,-8.1093,-8.1093,-8.1093,-8.1093,-8.1093,-8.1093,-8.1093,-8.1093,-8.1093,-8.1093,-8.1093,-8.1093,-8.1093,-8.1093,-8.1093,-8.1093,-8.1093,-8.1093,-8.1093,-8.1093,-8.1093,-8.1093,-8.1093,-8.1093,-8.1093,-8.1093,-8.1093,-8.1093,-8.1093,-8.1093,-8.1093,-8.1093,-8.1093,-8.1093,-8.1093,-8.0746,-7.9862,-7.9438,-7.8977,-7.853,-7.8938,-7.8977,-7.8515,-7.8477,-7.8323,-7.7938,-7.7938,-7.7515,-7.6707,-7.6707,-7.6438,-6.3705,-6.4474,-6.4897,-6.3166,-6.2551,-6.2462,-6.281,-6.2913,-6.2964,-6.3064,-6.249,0.0,0.0,-6.2752,0.0,-6.883,-7.0495,-7.2062,-7.4163,-7.5004,-7.5959,-7.7411,-7.8175,0.0,0.0,0.0,0.0,-8.0506,-8.0315,-7.9933,-7.934,-7.9704,-7.9321,-7.8061,-7.8724,-7.87,-7.7854,-7.7287,-7.7128,-7.7287,-7.6421,-7.6344,-7.6996,-7.6306,-7.6728,-7.801,-7.8026,-7.819,-7.8484,-7.9153,-7.9338,-7.9246,-7.9438,-8.0015,-8.0823,-8.1016,-8.1093,-8.1093,-8.1093,-8.1093,-8.1093,-8.1093,-8.1093,-8.1093,-8.1093,-8.1093,-8.1093,-8.1093,-8.1093,-8.1093,-8.1093,-8.1093,-8.1093,-8.1093,-8.1093,-8.1093,-8.1093,-8.1093,-8.1093,-8.1093,-8.1093,-8.1093,-8.1093,-8.1093,-8.1093,-8.1093,-8.1093,-8.1093,-8.1093,-8.1093,-8.1093,-8.1093,-8.1093,-8.1093,-8.1093,-8.1093,-8.0823,-8.0169,-8.0092,-7.9823,-7.9131,-7.9746,-7.9785,-7.9131,-7.9092,-7.9015,-7.8784,-7.8784,-7.8361,-7.7592,-7.7592,-7.713,-6.1704,-6.2243,-6.3089,-6.1396,-6.2127,-6.2988,-6.2196,-6.2029,-6.226,-6.2894,-6.2385,-6.1772,0.0,-6.3594,-6.6346,-6.9769,-7.2367,-7.508,-7.8366,0.0,-7.9245,-8.0124,-8.0277,0.0,0.0,0.0,0.0,-8.0506,-7.9818,-7.9378,-7.9302,-7.8596,-7.8137,-7.8022,-7.8112,-7.7816,-7.7095,-7.7115,-7.7461,-7.8207,-7.7341,-7.6958,-7.6996,-7.6958,-7.699,-7.7185,-7.7185,-7.767,-7.8515,-7.8554,-7.8169,-7.7553,-7.8284,-7.9131,-7.9977,-8.0785,-8.1093,-8.1093,-8.1093,-8.1093,-8.1093,-8.1093,-8.1093,-8.1093,-8.1093,-8.1093,-8.1093,-8.1093,-8.1093,-8.1093,-8.1093,-8.1093,-8.1093,-8.1093,-8.1093,-8.1093,-8.1093,-8.1093,-8.1093,-8.1093,-8.1093,-8.1093,-8.1093,-8.1093,-8.1093,-8.1093,-8.1093,-8.1093,-8.1093,-8.1093,-8.1093,-8.1093,-8.1093,-8.1093,-8.1093,-8.1093,-8.1054,-8.1016,-8.1016,-8.0977,-8.09,-8.0977,-8.0977,-8.09,-8.09,-8.0516,-7.9708,-7.9708,-7.9246,-7.84,-7.84,-7.7977,-6.187,-6.2435,-6.3051,-6.1897,-6.2089,-6.2577,-6.2695,-6.3105,-6.3411,-6.318,-6.4085,-6.4719,-6.4111,0.0,-6.7477,-7.1374,-7.4125,-7.6761,-7.9627,-8.0047,-8.0162,-8.0468,0.0,0.0,0.0,0.0,0.0,-8.0468,-7.9245,-7.8481,-7.8481,-7.8175,-7.7258,-7.5692,-7.6288,-7.595,-7.4657,-7.4781,-7.5018,-7.5334,-7.6041,-7.6386,-7.6386,-7.6386,-7.6402,-7.6432,-7.697,-7.71,-7.6976,-7.7515,-7.7553,-7.7361,-7.8169,-7.9015,-7.9862,-8.0169,-8.0631,-8.1093,-8.1093,-8.1093,-8.1093,-8.1093,-8.1093,-8.1093,-8.1093,-8.1093,-8.1093,-8.1093,-8.1093,-8.1093,-8.1093,-8.1093,-8.1093,-8.1093,-8.1093,-8.1093,-8.1093,-8.1093,-8.1093,-8.1093,-8.1093,-8.1093,-8.1093,-8.1093,-8.1093,-8.1093,-8.1093,-8.1169,-8.128,-8.1176,-8.1131,-8.1256,-8.1176,-8.1093,-8.1093,-8.1093,-8.1093,-8.1093,-8.1093,-8.1093,-8.1093,-8.1093,-8.1093,-8.1093,-8.1093,-8.0939,-8.0592,-8.0592,-8.0169,-7.9323,-7.9323,-7.8861,-6.1755,-6.2281,-6.2743,-6.1885,-6.1654,-6.2115,-6.3668,-6.4435,-6.4841,-6.506,-6.5997,-6.6598,-6.5986,0.0,0.0,0.0,-7.4889,-7.7602,-8.0124,0.0,0.0,0.0,0.0,0.0,0.0,0.0,0.0,-7.9702,-7.8423,-7.7505,-7.7291,-7.7006,-7.5935,-7.3925,-7.4571,-7.4382,-7.3246,-7.3404,-7.3514,-7.3514,-7.4668,-7.5361,-7.5592,-7.5861,-7.6015,-7.6015,-7.663,-7.6553,-7.6053,-7.663,-7.6899,-7.6976,-7.7784,-7.8631,-7.9438,-7.9708,-8.0362,-8.1093,-8.1093,-8.1093,-8.1093,-8.1093,-8.1093,-8.1093,-8.1093,-8.1093,-8.1093,-8.1093,-8.1093,-8.1093,-8.1093,-8.1093,-8.1093,-8.1093,-8.1093,-8.1093,-8.1093,-8.1093,-8.1093,-8.1093,-8.1093,-8.1093,-8.1093,-8.1093,-8.1124,-8.1191,-8.1167,-8.128,-8.1484,-8.1323,-8.121,-8.1283,-8.1191,-8.1093,-8.1093,-8.1093,-8.1093,-8.1093,-8.1093,-8.1093,-8.1093,-8.1093,-8.1093,-8.1093,-8.1093,-8.1093,-8.1093,-8.1093,-8.0785,-8.0208,-8.0208,-7.9768,-6.1012,-6.1435,-6.1846,-6.094,-6.0784,-6.1692,-6.5013,-6.5663,-6.6308,-6.8801,-6.7921,-6.6713,-6.6751,-6.74,0.0,-7.1298,-7.4507,-7.7564,-8.0124,0.0,0.0,0.0,0.0,0.0,0.0,0.0,-7.802,-7.8126,-7.7197,-7.6373,-7.5737,-7.479,-7.3932,-7.3223,-7.3238,-7.3283,-7.3283,-7.3394,-7.3462,-7.3462,-7.3462,-7.3899,-7.4745,-7.5592,-7.5976,-7.6015,-7.6015,-7.6015,-7.6015,-7.6015,-7.6015,-7.6092,-7.6938,-7.7784,-7.8592,-7.9477,-8.0323,-8.1093,-8.1093,-8.1093,-8.1093,-8.1093,-8.1093,-8.1093,-8.1093,-8.1093,-8.1093,-8.1093,-8.1093,-8.1093,-8.1093,-8.1093,-8.1093,-8.1093,-8.1093,-8.1093,-8.1093,-8.1093,-8.1093,-8.1093,-8.1093,-8.1093,-8.1093,-8.1093,-8.1176,-8.135,-8.14,-8.1484,-8.167,-8.1514,-8.1323,-8.1124,-8.1093,-8.1093,-8.1093,-8.1093,-8.1093,-8.1093,-8.1093,-8.1093,-8.1093,-8.1093,-8.1093,-8.1093,-8.1093,-8.1093,-8.1093,-8.1093,-8.1093,-8.1093,-8.1108,-8.0733,-6.0858,-6.1399,-6.1836,-6.0976,0.0,-6.3668,-6.4641,-6.4845,-6.5852,-6.9452,-6.8832,-6.7959,-6.9082,-6.9502,0.0,-7.2291,-7.4431,-7.6532,-7.8481,0.0,0.0,0.0,0.0,0.0,0.0,0.0,-7.6913,-7.8135,-7.5742,-7.467,-7.5638,-7.4319,-7.3169,-7.2303,-7.2394,-7.2169,-7.1555,-7.1626,-7.1668,-7.1668,-7.2283,-7.3322,-7.4707,-7.4976,-7.5438,-7.6015,-7.6015,-7.6015,-7.6015,-7.6015,-7.6015,-7.6015,-7.6284,-7.6899,-7.7746,-7.8592,-7.9438,-8.0285,-8.09,-8.1093,-8.1093,-8.1093,-8.1093,-8.1093,-8.1093,-8.1093,-8.1093,-8.1093,-8.1093,-8.1093,-8.1093,-8.1093,-8.1093,-8.1093,-8.1093,-8.1093,-8.1093,-8.1093,-8.1093,-8.1093,-8.1093,-8.1093,-8.1093,-8.121,-8.1336,-8.1375,-8.1503,-8.1568,-8.1519,-8.1547,-8.1496,-8.1154,-8.1093,-8.1093,-8.1093,-8.1093,-8.1093,-8.1093,-8.1093,-8.1093,-8.1093,-8.1093,-8.1093,-8.1093,-8.1093,-8.1093,-8.1093,-8.1239,-8.131,-8.131,-8.1461,-8.142,-6.0861,-6.1312,0.0,-6.135,-6.2593,-6.4128,-6.478,0.0,0.0,0.0,-7.1401,-7.0276,-7.1259,-7.0877,0.0,-7.2711,-7.4125,-7.5577,-7.7258,0.0,0.0,0.0,0.0,0.0,0.0,0.0,-7.5124,-7.6223,-7.4389,-7.3522,-7.4275,-7.3338,-7.2225,-7.1065,-7.1108,-7.0906,-7.0368,-7.0409,-7.0591,-7.0898,-7.1519,-7.2534,-7.3832,-7.4095,-7.4668,-7.5515,-7.5861,-7.6015,-7.6015,-7.6015,-7.6015,-7.6015,-7.6015,-7.6515,-7.74,-7.8207,-7.9054,-7.9939,-8.0785,-8.1093,-8.1093,-8.1093,-8.1093,-8.1093,-8.1093,-8.1093,-8.1093,-8.1093,-8.1093,-8.1093,-8.1093,-8.1093,-8.1093,-8.1093,-8.1093,-8.1093,-8.1093,-8.1093,-8.1093,-8.1093,-8.1093,-8.1139,-8.122,-8.1323,-8.1461,-8.161,-8.1804,-8.189,-8.167,-8.167,-8.1568,-8.1267,-8.1131,-8.1139,-8.1196,-8.121,-8.121,-8.121,-8.1283,-8.128,-8.1108,-8.1093,-8.1176,-8.1336,-8.1267,-8.1267,-8.1336,-8.1472,-8.1503,-8.1503,-8.164,-8.1735,-6.1031,-6.1365,-6.1927,-6.2003,-6.2732,0.0,-6.5747,-6.9712,-7.3538,-7.5594,0.0,-7.2979,-7.2996,-7.1718,-7.1145,-7.2766,-7.3628,-7.4584,-7.6036,0.0,0.0,0.0,0.0,0.0,0.0,-7.2974,-7.3038,-7.3091,-7.2954,-7.2624,-7.2014,-7.1905,-7.1161,-6.9629,-6.9667,-6.9667,-6.959,-6.959,-6.9988,-7.0823,-7.0996,-7.1534,-7.2435,-7.3125,-7.3878,-7.4788,-7.5586,-7.5971,-7.602,-7.6048,-7.6062,-7.6062,-7.6034,-7.652,-7.7328,-7.8184,-7.9015,-7.9823,-8.0777,-8.1124,-8.1108,-8.1131,-8.1139,-8.1093,-8.1124,-8.1124,-8.1093,-8.1093,-8.1108,-8.1139,-8.1139,-8.1139,-8.1139,-8.1139,-8.1108,-8.1093,-8.1093,-8.1093,-8.1093,-8.1093,-8.1124,-8.1191,-8.135,-8.1437,-8.1579,-8.1968,-8.2166,-8.2222,-8.1987,-8.1804,-8.161,-8.1387,-8.1196,-8.1191,-8.1375,-8.1387,-8.14,-8.1424,-8.1589,-8.1525,-8.1205,-8.1161,-8.131,-8.166,-8.1491,-8.1541,-8.1698,-8.1717,-8.1726,-8.1726,-8.1744,-8.1836,-6.1761,-6.2247,0.0,0.0,-6.4454,-6.6772,-6.9758,-7.1281,-7.1806,-7.1035,-7.2035,-7.2996,-7.3062,-7.2723,-7.2575,-7.2986,-7.3182,-7.3132,-7.2826,-7.3055,0.0,0.0,0.0,0.0,0.0,-7.1895,-7.2092,-7.1448,-7.0819,-7.0396,-7.0244,-7.0231,-6.9717,-6.8706,-6.936,-6.936,-6.8706,-6.8667,-6.9155,0.0,-7.0148,-7.0728,-7.1732,-7.254,-7.3622,-7.4949,-7.5309,-7.5752,-7.626,-7.6415,-7.6487,-7.6467,-7.632,-7.6352,-7.6675,-7.7988,-7.8631,-7.9022,-8.0729,-8.1224,-8.1131,-8.1472,-8.1363,-8.1139,-8.1269,-8.1224,-8.1093,-8.1093,-8.1196,-8.135,-8.135,-8.135,-8.135,-8.135,-8.1196,-8.1093,-8.1093,-8.1093,-8.1093,-8.1093,-8.1224,-8.1363,-8.1387,-8.166,-8.1955,-8.2214,-8.2284,-8.2162,-8.1804,-8.1726,-8.1547,-8.1181,-8.1139,-8.1191,-8.1375,-8.1387,-8.1484,-8.162,-8.167,-8.1726,-8.1795,-8.165,-8.1525,-8.1472,-8.1568,-8.165,-8.1698,-8.1843,-8.1941,-8.1948,-8.2084,-8.2175,-6.1991,0.0,0.0,-6.3444,0.0,-6.7355,-6.9467,-6.9916,-6.9633,-6.8785,-7.0948,-7.2898,-7.2559,-7.209,-7.1789,-7.1909,-7.15,-7.1047,-7.0598,-7.091,0.0,0.0,0.0,0.0,0.0,-7.0018,-7.0123,-6.9731,-6.9321,-6.909,-6.909,-6.909,-6.8667,-6.7821,-6.8205,-6.8244,-6.7782,-6.8205,-6.8923,-6.9899,-7.0438,-7.1054,-7.1767,-7.2835,-7.3751,-7.4586,-7.5516,-7.6128,-7.6467,-7.6573,-7.6618,-7.66,-7.6497,-7.6457,-7.6591,-7.7736,-7.8423,-7.8989,-8.0434,-8.1136,-8.1412,-8.163,-8.1547,-8.1375,-8.1387,-8.1387,-8.1375,-8.128,-8.1375,-8.1525,-8.1525,-8.1525,-8.1503,-8.1424,-8.1323,-8.121,-8.1124,-8.1176,-8.1196,-8.1124,-8.128,-8.1437,-8.1514,-8.1898,-8.2166,-8.2287,-8.2293,-8.2171,-8.1866,-8.1828,-8.1726,-8.1412,-8.1414,-8.1472,-8.167,-8.1689,-8.1735,-8.1828,-8.1941,-8.1948,-8.1843,-8.1948,-8.1941,-8.182,-8.1828,-8.1905,-8.1974,-8.2084,-8.2148,-8.2153,-8.2237,-8.2293,-6.2145,0.0,-6.259,-6.413,-6.5556,0.0,-6.7683,-6.7897,-6.7897,-6.7897,-7.0151,-7.1942,-7.1274,-7.0538,-7.0047,-7.0164,-6.952,-6.8992,-6.8885,0.0,0.0,0.0,0.0,0.0,0.0,-6.8123,-6.8202,-6.8,-6.809,-6.8129,-6.7975,-6.809,-6.7782,-6.6898,-6.7013,-6.7013,-6.6898,-6.7795,-6.8714,-6.9729,-7.0968,-7.1728,-7.2062,-7.3463,-7.4079,-7.4125,-7.5759,-7.6529,-7.6621,-7.6653,-7.6708,-7.6661,-7.6629,-7.6621,-7.673,-7.7503,-7.8348,-7.9221,-8.0141,-8.0988,-8.1708,-8.177,-8.1753,-8.167,-8.1536,-8.1589,-8.166,-8.1519,-8.1589,-8.1744,-8.1744,-8.1744,-8.1708,-8.1536,-8.148,-8.1424,-8.1146,-8.1308,-8.1375,-8.1205,-8.135,-8.1558,-8.1761,-8.2073,-8.2293,-8.2293,-8.2293,-8.2222,-8.1974,-8.1974,-8.1927,-8.167,-8.1679,-8.1779,-8.1981,-8.1987,-8.1999,-8.2062,-8.2218,-8.2153,-8.1804,-8.2138,-8.2293,-8.2293,-8.2148,-8.2143,-8.2293,-8.2293,-8.2293,-8.2293,-8.2293,-8.2293,0.0,0.0,-6.4207,0.0,-6.5474,-6.6002,0.0,0.0,-6.7897,0.0,-6.8241,-6.8594,-6.867,-6.8472,-6.8365,-6.8493,-6.8416,0.0,0.0,0.0,0.0,0.0,0.0,0.0,0.0,0.0,0.0,0.0,-6.6859,-6.6974,-6.6282,-6.6898,-6.6898,-6.609,-6.6744,-6.6782,-6.6051,-6.7023,-6.8045,-6.9056,-7.0985,-7.1972,-7.2065,-7.3686,-7.4377,-7.4326,-7.5443,-7.6249,-7.6786,-7.6965,-7.7032,-7.7028,-7.6822,-7.678,-7.6878,-7.7554,-7.8348,-7.9239,-8.0316,-8.1127,-8.1753,-8.2128,-8.1974,-8.1726,-8.1898,-8.1812,-8.1689,-8.166,-8.1795,-8.1961,-8.1961,-8.1961,-8.1955,-8.1941,-8.1934,-8.177,-8.121,-8.1375,-8.1589,-8.1387,-8.166,-8.1981,-8.221,-8.2241,-8.2293,-8.2293,-8.2293,-8.2157,-8.1779,-8.1873,-8.1843,-8.1496,-8.1589,-8.1779,-8.1981,-8.1987,-8.2073,-8.2234,-8.2287,-8.2284,-8.2222,-8.2284,-8.2293,-8.2293,-8.2284,-8.2284,-8.2293,-8.2293,-8.2293,-8.2293,-8.2293,-8.2293,-6.1502,-6.2746,-6.3767,0.0,-6.4461,-6.4862,-6.5046,0.0,-6.5108,-6.5108,-6.5108,-6.5573,-6.719,-6.6993,-6.6519,0.0,0.0,0.0,0.0,0.0,0.0,0.0,0.0,0.0,0.0,0.0,0.0,0.0,-6.6244,-6.6282,-6.5897,-6.6244,-6.6282,-6.5897,-6.6314,-6.6383,-6.6036,-6.7503,-6.8979,-7.0493,-7.1511,-7.1987,-7.2065,-7.3744,-7.447,-7.4476,-7.5918,-7.6695,-7.6973,-7.705,-7.7101,-7.7098,-7.6985,-7.6973,-7.7008,-7.7311,-7.8264,-7.9483,-7.9998,-8.0958,-8.2067,-8.2234,-8.2166,-8.2044,-8.1993,-8.2038,-8.1993,-8.1912,-8.1993,-8.2162,-8.2162,-8.2162,-8.2148,-8.2044,-8.2078,-8.205,-8.1525,-8.166,-8.1828,-8.1753,-8.1859,-8.2067,-8.228,-8.2293,-8.2293,-8.2293,-8.2293,-8.2214,-8.192,-8.2056,-8.2062,-8.177,-8.1927,-8.2073,-8.2157,-8.2162,-8.2218,-8.229,-8.2293,-8.2293,-8.2293,-8.2293,-8.2293,-8.2293,-8.2293,-8.2293,-8.2293,-8.2293,-8.2293,-8.2293,-8.2293,-8.2293,0.0,0.0,-6.2926,-6.3012,-6.3532,-6.382,0.0,0.0,-6.3159,0.0,-6.2892,-6.347,-6.5245,-6.5193,0.0,0.0,0.0,0.0,0.0,0.0,0.0,0.0,0.0,0.0,0.0,0.0,0.0,0.0,-6.5897,-6.5897,-6.5958,-6.5958,-6.5955,-6.6013,-6.6108,-6.6264,-6.6467,-6.8319,-7.011,-7.1785,-7.1927,-7.1987,-7.2065,-7.3744,-7.4486,-7.4603,-7.632,-7.7101,-7.7101,-7.7101,-7.7101,-7.7101,-7.7101,-7.7257,-7.7414,-7.7414,-7.8546,-8.0029,-8.0029,-8.1044,-8.2293,-8.2293,-8.2293,-8.2284,-8.2138,-8.2166,-8.228,-8.2138,-8.2171,-8.2293,-8.2293,-8.2293,-8.228,-8.2094,-8.2171,-8.2222,-8.1927,-8.1941,-8.2038,-8.2067,-8.2073,-8.2099,-8.2284,-8.2293,-8.2293,-8.2293,-8.2293,-8.2226,-8.2044,-8.2166,-8.2226,-8.2005,-8.2166,-8.2293,-8.2293,-8.2293,-8.2293,-8.2293,-8.2293,-8.2293,-8.2293,-8.2293,-8.2293,-8.2293,-8.2293,-8.2293,-8.2293,-8.2293,-8.2293,-8.2293,-8.2293,-8.2293,0.0,-6.0674,0.0,-6.2758,-6.2988,0.0,0.0,0.0,0.0,0.0,-6.2892,-6.2715,0.0,0.0,0.0,0.0,0.0,0.0,0.0,0.0,0.0,0.0,0.0,0.0,0.0,0.0,0.0,0.0,-6.5897,-6.597,-6.6077,-6.6088,-6.6138,-6.6283,-6.6291,-6.6687,-6.7519,-6.9376,-7.0892,-7.1984,-7.1987,-7.1987,-7.2065,-7.3744,-7.4486,-7.4603,-7.632,-7.7101,-7.7101,-7.7101,-7.7101,-7.7101,-7.7101,-7.7609,-7.8311,-7.8311,-7.9444,-8.0927,-8.0927,-8.1513,-8.2293,-8.2293,-8.2293,-8.2293,-8.2287,-8.229,-8.229,-8.2287,-8.229,-8.2293,-8.2293,-8.2293,-8.229,-8.2287,-8.229,-8.229,-8.2284,-8.2143,-8.2062,-8.2234,-8.2287,-8.2287,-8.2293,-8.2293,-8.2293,-8.2293,-8.2293,-8.2226,-8.2044,-8.2166,-8.2226,-8.2005,-8.2166,-8.2293,-8.2293,-8.2293,-8.2293,-8.2293,-8.2293,-8.2293,-8.2293,-8.2293,-8.2293,-8.2293,-8.2293,-8.2293,-8.2293,-8.2293,-8.2293,-8.2293,-8.2293,-8.2293,0.0,0.0,0.0,-6.2024,-6.2651,-6.2971,-6.2615,-6.3012,-6.3179,-6.2257,-6.251,0.0,0.0,0.0,0.0,0.0,0.0,0.0,0.0,0.0,0.0,0.0,0.0,0.0,0.0,0.0,0.0,0.0,0.0,-6.6129,-6.6108,-6.6194,-6.6251,-6.6307,-6.6445,-6.7231,-6.8748,-6.9986,-7.1068,-7.1987,-7.1987,-7.23,-7.2885,-7.3978,-7.4798,-7.5384,-7.6594,-7.7101,-7.7101,-7.7101,-7.7101,-7.7101,-7.7101,-7.7648,-7.839,-7.839,-7.9483,-8.1005,-8.1005,-8.1552,-8.2293,-8.2293,-8.2293,-8.2293,-8.2293,-8.2293,-8.2293,-8.2293,-8.2293,-8.2293,-8.2293,-8.2293,-8.2293,-8.2293,-8.2293,-8.2293,-8.2293,-8.2234,-8.2222,-8.2287,-8.2293,-8.2293,-8.2293,-8.2293,-8.2293,-8.2293,-8.2293,-8.2284,-8.2214,-8.2277,-8.2284,-8.2214,-8.2277,-8.2293,-8.2293,-8.2293,-8.2293,-8.2293,-8.2293,-8.2293,-8.2293,-8.2293,-8.2293,-8.2293,-8.2293,-8.2293,-8.2293,-8.2293,-8.2293,-8.2293,-8.2293,-8.2293,-6.0544,0.0,0.0,0.0,0.0,-6.2448,-6.1802,0.0,-6.2738,-6.1868,0.0,0.0,0.0,0.0,0.0,0.0,0.0,0.0,0.0,0.0,0.0,0.0,0.0,0.0,0.0,0.0,0.0,0.0,0.0,0.0,-6.6234,-6.6337,-6.6413,-6.6457,-6.7156,-6.8156,-6.9372,-7.0543,-7.1441,-7.1987,-7.1987,-7.2456,-7.3315,-7.4134,-7.4993,-7.5855,-7.6711,-7.7101,-7.7101,-7.7101,-7.7101,-7.7101,-7.7101,-7.7804,-7.8858,-7.8858,-7.9951,-8.1435,-8.1435,-8.1825,-8.2293,-8.2293,-8.2293,-8.2293,-8.2293,-8.2293,-8.2293,-8.2293,-8.2293,-8.2293,-8.2293,-8.2293,-8.2293,-8.2293,-8.2293,-8.2293,-8.2293,-8.2293,-8.2293,-8.2293,-8.2293,-8.2293,-8.2293,-8.2293,-8.2293,-8.2293,-8.2293,-8.2293,-8.2293,-8.2293,-8.2293,-8.2293,-8.2293,-8.2293,-8.2293,-8.2293,-8.2293,-8.2293,-8.2293,-8.2293,-8.2293,-8.2293,-8.2293,-8.2293,-8.2293,-8.2293,-8.2293,-8.2293,-8.2293,-8.2293,-8.2293,-8.2293,0.0,0.0,0.0,0.0,0.0,0.0,-6.1691,0.0,-6.2804,0.0,0.0,0.0,0.0,0.0,0.0,0.0,0.0,0.0,0.0,0.0,0.0,0.0,0.0,0.0,0.0,0.0,0.0,0.0,-6.4984,-6.5531,-6.6546,-6.6595,-6.6681,-6.6795,-6.8474,-6.9411,-6.9411,-7.1128,-7.2026,-7.2026,-7.2026,-7.2495,-7.3393,-7.4173,-7.4993,-7.5894,-7.6711,-7.7101,-7.7101,-7.7101,-7.7101,-7.7101,-7.714,-7.8194,-7.9717,-7.9717,-8.0849,-8.2293,-8.2293,-8.2293,-8.2293,-8.2293,-8.2293,-8.2293,-8.2293,-8.2293,-8.2293,-8.2293,-8.2293,-8.2293,-8.2293,-8.2293,-8.2293,-8.2293,-8.2293,-8.2293,-8.2293,-8.2293,-8.2293,-8.2293,-8.2293,-8.2293,-8.2293,-8.2293,-8.2293,-8.2293,-8.2293,-8.2293,-8.2293,-8.2293,-8.2293,-8.2293,-8.2293,-8.2293,-8.2293,-8.2293,-8.2293,-8.2293,-8.2293,-8.2293,-8.2293,-8.2293,-8.2293,-8.2293,-8.2293,-8.2293,-8.2293,-8.2293,-8.2293,-8.2293,-8.2293,-8.2293,-6.2552,0.0,0.0,0.0,0.0,0.0,0.0,0.0,0.0,0.0,0.0,0.0,0.0,0.0,0.0,0.0,0.0,0.0,0.0,0.0,0.0,0.0,0.0,0.0,0.0,0.0,0.0,0.0,-6.5272,-6.5784,-6.6556,-6.6701,-6.6778,-6.6795,-6.8474,-6.9411,-6.9411,-7.1128,-7.2339,-7.2924,-7.2924,-7.3705,-7.511,-7.5345,-7.593,-7.675,-7.6984,-7.7101,-7.7101,-7.7101,-7.7101,-7.7179,-7.7804,-7.8702,-7.9795,-8.042,-8.1356,-8.2293,-8.2293,-8.2293,-8.2293,-8.2293,-8.2293,-8.2293,-8.2293,-8.2293,-8.2293,-8.2293,-8.2293,-8.2293,-8.2293,-8.2293,-8.2293,-8.2293,-8.2293,-8.2293,-8.2293,-8.2293,-8.2293,-8.2293,-8.2293,-8.2293,-8.2293,-8.2293,-8.2293,-8.2293,-8.2293,-8.2293,-8.2293,-8.2293,-8.2293,-8.2293,-8.2293,-8.2293,-8.2293,-8.2293,-8.2293,-8.2293,-8.2293,-8.2293,-8.2293,-8.2293,-8.2293,-8.2293,-8.2293,-8.2293,-8.2293,-8.2293,-8.2293,-8.2293,-8.2293,-8.2293,-6.3726,-6.3274,-6.2835,-6.2299,0.0,0.0,-6.175,-6.2126,0.0,0.0,0.0,0.0,0.0,0.0,0.0,0.0,0.0,0.0,0.0,0.0,0.0,0.0,0.0,0.0,0.0,-6.3456,-6.3808,-6.5103,-6.5445,-6.592,-6.6658,-6.6775,-6.6795,-6.6795,-6.8474,-6.9411,-6.9411,-7.1128,-7.2456,-7.3312,-7.3312,-7.4173,-7.5816,-7.5816,-7.6281,-7.7101,-7.7101,-7.7101,-7.7101,-7.7101,-7.7101,-7.7179,-7.8077,-7.8936,-7.9795,-8.0693,-8.1552,-8.2293,-8.2293,-8.2293,-8.2293,-8.2293,-8.2293,-8.2293,-8.2293,-8.2293,-8.2293,-8.2293,-8.2293,-8.2293,-8.2293,-8.2293,-8.2293,-8.2293,-8.2293,-8.2293,-8.2293,-8.2293,-8.2293,-8.2293,-8.2293,-8.2293,-8.2293,-8.2293,-8.2293,-8.2293,-8.2293,-8.2293,-8.2293,-8.2293,-8.2293,-8.2293,-8.2293,-8.2293,-8.2293,-8.2293,-8.2293,-8.2293,-8.2293,-8.2293,-8.2293,-8.2293,-8.2293,-8.2293,-8.2293,-8.2293,-8.2293,-8.2293,-8.2293,-8.2293,-8.2293,-8.2293,-6.452,-6.3848,-6.3174,-6.3131,-6.2529,0.0,-6.1715,-6.1743,-6.1835,0.0,0.0,0.0,0.0,0.0,0.0,0.0,0.0,0.0,0.0,0.0,0.0,0.0,0.0,0.0,-6.4168,-6.4065,-6.4436,-6.5377,-6.5634,-6.6053,-6.6756,-6.6795,-6.6795,-6.6795,-6.8474,-6.9411,-6.9411,-7.1128,-7.2456,-7.3312,-7.3393,-7.4251,-7.5816,-7.5894,-7.636,-7.7101,-7.7101,-7.7101,-7.7101,-7.7101,-7.7101,-7.7179,-7.8077,-7.8936,-7.9795,-8.0693,-8.1552,-8.2293,-8.2293,-8.2293,-8.2293,-8.2293,-8.2293,-8.2293,-8.2293,-8.2293,-8.2293,-8.2293,-8.2293,-8.2293,-8.2293,-8.2293,-8.2293,-8.2293,-8.2293,-8.2293,-8.2293,-8.2293,-8.2293,-8.2293,-8.2293,-8.2293,-8.2293,-8.2293,-8.2293,-8.2293,-8.2293,-8.2293,-8.2293,-8.2293,-8.2293,-8.2293,-8.2293,-8.2293,-8.2293,-8.2293,-8.2293,-8.2293,-8.2293,-8.2293,-8.2293,-8.2293,-8.2293,-8.2293,-8.2293,-8.2293,-8.2293,-8.2293,-8.2293,-8.2293,-8.2293,-8.2293,-6.5293,-6.5106,-6.4764,-6.4106,-6.3823,0.0,-6.1951,-6.1663,-6.177,0.0,0.0,0.0,0.0,0.0,0.0,0.0,0.0,0.0,0.0,0.0,0.0,0.0,0.0,0.0,-6.6018,-6.4938,-6.4869,-6.6391,-6.6556,-6.6639,-6.6795,-6.6795,-6.6795,-6.6795,-6.8474,-6.9411,-6.9411,-7.1128,-7.2456,-7.3315,-7.3978,-7.4798,-7.5816,-7.6516,-7.6945,-7.7101,-7.7101,-7.7101,-7.7101,-7.7101,-7.7101,-7.7179,-7.8077,-7.8936,-7.9795,-8.0693,-8.1552,-8.2293,-8.2293,-8.2293,-8.2293,-8.2293,-8.2293,-8.2293,-8.2293,-8.2293,-8.2293,-8.2293,-8.2293,-8.2293,-8.2293,-8.2293,-8.2293,-8.2293,-8.2293,-8.2293,-8.2293,-8.2293,-8.2293,-8.2293,-8.2293,-8.2293,-8.2293,-8.2293,-8.2293,-8.2293,-8.2293,-8.2293,-8.2293,-8.2293,-8.2293,-8.2293,-8.2293,-8.2293,-8.2293,-8.2293,-8.2293,-8.2293,-8.2293,-8.2293,-8.2293,-8.2293,-8.2293,-8.2293,-8.2293,-8.2293,-8.2293,-8.2293,-8.2293,-8.2293,-8.2293,-8.2293,-6.5566,-6.5523,-6.5403,-6.4953,-6.4556,0.0,0.0,-6.1955,-6.1603,-6.13,-6.1288,0.0,0.0,0.0,0.0,0.0,0.0,0.0,0.0,0.0,0.0,0.0,0.0,0.0,-6.6662,-6.5998,-6.59,-6.6756,-6.6795,-6.6795,-6.6795,-6.6795,-6.6795,-6.6795,-6.8474,-6.9411,-6.9411,-7.1128,-7.2456,-7.3315,-7.4134,-7.4954,-7.5816,-7.6711,-7.7101,-7.7101,-7.7101,-7.7101,-7.7101,-7.7101,-7.7101,-7.7179,-7.8077,-7.8663,-7.9209,-8.0537,-8.1278,-8.1708,-8.2137,-8.2293,-8.2293,-8.2293,-8.2293,-8.2293,-8.2293,-8.2293,-8.2293,-8.2293,-8.2293,-8.2293,-8.2293,-8.2293,-8.2293,-8.2293,-8.2293,-8.2293,-8.2293,-8.2293,-8.2293,-8.2293,-8.2293,-8.2293,-8.2293,-8.2293,-8.2293,-8.2293,-8.2293,-8.2293,-8.2293,-8.2293,-8.2293,-8.2293,-8.2293,-8.2293,-8.2293,-8.2293,-8.2293,-8.2293,-8.2293,-8.2293,-8.2293,-8.2293,-8.2293,-8.2293,-8.2293,-8.2293,-8.2293,-8.2293,-8.2293,-8.2293,-8.2293,-8.2293,-6.5866,-6.5838,-6.5901,-6.5997,-6.5408,-6.4537,0.0,0.0,0.0,-6.1275,-6.1032,0.0,0.0,0.0,0.0,0.0,0.0,0.0,0.0,0.0,0.0,0.0,0.0,0.0,-6.6558,-6.6717,-6.6795,-6.6795,-6.6795,-6.6795,-6.6795,-6.6795,-6.6795,-6.6795,-6.8474,-6.9411,-6.9411,-7.1128,-7.2339,-7.308,-7.4056,-7.4876,-7.5579,-7.6633,-7.7101,-7.7101,-7.7101,-7.7101,-7.7101,-7.7101,-7.7101,-7.7179,-7.8077,-7.8507,-7.8858,-8.042,-8.1122,-8.1356,-8.2059,-8.2293,-8.2293,-8.2293,-8.2293,-8.2293,-8.2293,-8.2293,-8.2293,-8.2293,-8.2293,-8.2293,-8.2293,-8.2293,-8.2293,-8.2293,-8.2293,-8.2293,-8.2293,-8.2293,-8.2293,-8.2293,-8.2293,-8.2293,-8.2293,-8.2293,-8.2293,-8.2293,-8.2293,-8.2293,-8.2293,-8.2293,-8.2293,-8.2293,-8.2293,-8.2293,-8.2293,-8.2293,-8.2293,-8.2293,-8.2293,-8.2293,-8.2293,-8.2293,-8.2293,-8.2293,-8.2293,-8.2293,-8.2293,-8.2293,-8.2293,-8.2293,-8.2293,-8.2293,-6.6663,-6.6814,0.0,0.0,-6.7242,-6.6361,-6.5479,0.0,-6.3857,-6.3079,0.0,0.0,0.0,0.0,0.0,0.0,0.0,0.0,0.0,0.0,0.0,0.0,0.0,0.0,0.0,-6.6366,-6.6795,-6.6795,-6.6795,-6.6795,-6.6795,-6.6795,-6.6795,-6.6795,-6.8474,-6.9411,-6.9411,-7.1128,-7.2065,-7.2182,-7.3744,-7.4564,-7.4681,-7.636,-7.7101,-7.7101,-7.7101,-7.7101,-7.7101,-7.7101,-7.7101,-7.7179,-7.8077,-7.8858,-7.9678,-8.0654,-8.1474,-8.2176,-8.2254,-8.2293,-8.2293,-8.2293,-8.2293,-8.2293,-8.2293,-8.2293,-8.2293,-8.2293,-8.2293,-8.2293,-8.2293,-8.2293,-8.2293,-8.2293,-8.2293,-8.2293,-8.2293,-8.2293,-8.2293,-8.2293,-8.2293,-8.2293,-8.2293,-8.2293,-8.2293,-8.2293,-8.2293,-8.2293,-8.2293,-8.2293,-8.2293,-8.2293,-8.2293,-8.2293,-8.2293,-8.2293,-8.2293,-8.2293,-8.2293,-8.2293,-8.2293,-8.2293,-8.2293,-8.2293,-8.2293,-8.2293,-8.2293,-8.2293,-8.2293,-8.2293,-8.2293,-8.2293,0.0,0.0,0.0,0.0,0.0,0.0,-6.5931,0.0,-6.4832,0.0,0.0,0.0,0.0,0.0,0.0,0.0,-6.399,0.0,0.0,0.0,0.0,0.0,0.0,0.0,0.0,0.0,0.0,0.0,-6.6795,-6.6795,-6.6795,-6.6795,-6.6795,-6.6795,-6.8474,-6.9411,-6.9411,-7.1128,-7.1987,-7.2026,-7.3705,-7.4486,-7.4564,-7.632,-7.7101,-7.7101,-7.7101,-7.7101,-7.7101,-7.7101,-7.7101,-7.7179,-7.8077,-7.8624,-7.9092,-8.0498,-8.1239,-8.163,-8.2137,-8.2293,-8.2293,-8.2293,-8.2293,-8.2293,-8.2293,-8.2293,-8.2293,-8.2293,-8.2293,-8.2293,-8.2293,-8.2293,-8.2293,-8.2293,-8.2293,-8.2293,-8.2293,-8.2293,-8.2293,-8.2293,-8.2293,-8.2293,-8.2293,-8.2293,-8.2293,-8.2293,-8.2293,-8.2293,-8.2293,-8.2293,-8.2293,-8.2293,-8.2293,-8.2293,-8.2293,-8.2293,-8.2293,-8.2293,-8.2293,-8.2293,-8.2293,-8.2293,-8.2293,-8.2293,-8.2293,-8.2293,-8.2293,-8.2293,-8.2293,-8.2293,-8.2293,-8.2293,-6.6945,0.0,0.0,0.0,0.0,0.0,0.0,0.0,0.0,0.0,0.0,0.0,0.0,0.0,0.0,0.0,0.0,-6.4924,0.0,0.0,0.0,0.0,0.0,0.0,0.0,0.0,0.0,0.0,0.0,-6.6483,-6.6483,-6.6678,-6.6912,-6.7146,-6.863,-6.9528,-6.9762,-7.1245,-7.1987,-7.2026,-7.3705,-7.4486,-7.4564,-7.632,-7.7101,-7.7101,-7.7101,-7.7101,-7.7101,-7.7101,-7.7101,-7.7179,-7.8077,-7.839,-7.8624,-8.0341,-8.1161,-8.1435,-8.2098,-8.2293,-8.2293,-8.2293,-8.2293,-8.2293,-8.2293,-8.2293,-8.2293,-8.2293,-8.2293,-8.2293,-8.2293,-8.2293,-8.2293,-8.2293,-8.2293,-8.2293,-8.2293,-8.2293,-8.2293,-8.2293,-8.2293,-8.2293,-8.2293,-8.2293,-8.2293,-8.2293,-8.2293,-8.2293,-8.2293,-8.2293,-8.2293,-8.2293,-8.2293,-8.2293,-8.2293,-8.2293,-8.2293,-8.2293,-8.2293,-8.2293,-8.2293,-8.2293,-8.2293,-8.2293,-8.2293,-8.2293,-8.2293,-8.2293,-8.2293,-8.2293,-8.2293,-8.2293,0.0,0.0,0.0,-6.9464,0.0,0.0,0.0,0.0,-6.8038,0.0,0.0,0.0,0.0,0.0,-6.4488,-6.2825,0.0,0.0,0.0,0.0,0.0,0.0,0.0,0.0,0.0,0.0,0.0,0.0,-6.5155,0.0,-6.5624,-6.6366,-6.7185,-6.8044,-6.8942,-6.9801,-7.066,-7.1558,-7.1987,-7.2026,-7.3705,-7.4486,-7.4564,-7.632,-7.7101,-7.7101,-7.7101,-7.7101,-7.7101,-7.7101,-7.7101,-7.7179,-7.8077,-7.839,-7.8624,-8.0341,-8.1513,-8.2254,-8.2293,-8.2293,-8.2293,-8.2293,-8.2293,-8.2293,-8.2293,-8.2293,-8.2293,-8.2293,-8.2293,-8.2293,-8.2293,-8.2293,-8.2293,-8.2293,-8.2293,-8.2293,-8.2293,-8.2293,-8.2293,-8.2293,-8.2293,-8.2293,-8.2293,-8.2293,-8.2293,-8.2293,-8.2293,-8.2293,-8.2293,-8.2293,-8.2293,-8.2293,-8.2293,-8.2293,-8.2293,-8.2293,-8.2293,-8.2293,-8.2293,-8.2293,-8.2293,-8.2293,-8.2293,-8.2293,-8.2293,-8.2293,-8.2293,-8.2293,-8.2293,-8.2293,-8.2293,-8.2293,0.0,0.0,-6.9157,-6.9856,0.0,0.0,0.0,0.0,0.0,0.0,0.0,0.0,0.0,-6.6718,-6.6361,-6.5195,-6.5732,0.0,0.0,0.0,0.0,0.0,0.0,0.0,0.0,0.0,0.0,0.0,-6.5116,0.0,0.0,-6.6366,-6.7185,-6.8083,-6.8942,-6.9801,-7.0699,-7.1558,-7.1987,-7.2026,-7.3158,-7.3978,-7.4525,-7.5696,-7.6555,-7.7101,-7.7101,-7.7101,-7.7101,-7.7101,-7.7101,-7.714,-7.7414,-7.7882,-7.8624,-8.0341,-8.12,-8.1513,-8.2098,-8.2293,-8.2293,-8.2293,-8.2293,-8.2293,-8.2293,-8.2293,-8.2293,-8.2293,-8.2293,-8.2293,-8.2293,-8.2293,-8.2293,-8.2293,-8.2293,-8.2293,-8.2293,-8.2293,-8.2293,-8.2293,-8.2293,-8.2293,-8.2293,-8.2293,-8.2293,-8.2293,-8.2293,-8.2293,-8.2293,-8.2293,-8.2293,-8.2293,-8.2293,-8.2293,-8.2293,-8.2293,-8.2293,-8.2293,-8.2293,-8.2293,-8.2293,-8.2293,-8.2293,-8.2293,-8.2293,-8.2293,-8.2293,-8.2293,-8.2293,-8.2293,-8.2293,-8.2293,-6.71,-6.817,0.0,-6.9655,-7.0275,0.0,-6.9846,0.0,-6.9553,0.0,0.0,0.0,0.0,0.0,-6.7481,-6.6624,-6.6468,-6.6218,0.0,-6.5013,0.0,0.0,0.0,0.0,0.0,0.0,-6.4648,-6.3477,-6.4453,0.0,0.0,0.0,-6.7654,-6.8513,-6.9411,-7.027,-7.1167,-7.1714,-7.1987,-7.2026,-7.2885,-7.3705,-7.4525,-7.5384,-7.6281,-7.7101,-7.7101,-7.7101,-7.7101,-7.7101,-7.7101,-7.7101,-7.7101,-7.7453,-7.8155,-7.9873,-8.0927,-8.1552,-8.2098,-8.2293,-8.2293,-8.2293,-8.2293,-8.2293,-8.2293,-8.2293,-8.2293,-8.2293,-8.2293,-8.2293,-8.2293,-8.2293,-8.2293,-8.2293,-8.2293,-8.2293,-8.2293,-8.2293,-8.2293,-8.2293,-8.2293,-8.2293,-8.2293,-8.2293,-8.2293,-8.2293,-8.2293,-8.2293,-8.2293,-8.2293,-8.2293,-8.2293,-8.2293,-8.2293,-8.2293,-8.2293,-8.2293,-8.2293,-8.2293,-8.2293,-8.2293,-8.2293,-8.2723,-8.3621,-8.2762,-8.2762,-8.366,-8.2723,-8.2293,-8.2293,-8.2293,-8.2293]},{"header":{"parameterUnit":"m.s-1","parameterCategory":1,"la1":30.6,"la2":29.2853,"lo1":-89.7004,"lo2":-87.6739,"dy":0.0162,"dx":0.0183,"nx":112,"ny":82,"refTime":"2024-05-15T06:00:00:Z","depth":0,"parameterNumber":3,"parameterNumberName":"V-component_of_WINDS"},"data":[0.0,0.0,0.0,0.0,0.0,0.0,0.0,0.0,0.0,0.0,0.0,0.0,0.0,0.0,0.0,0.0,0.0,0.0,0.0,0.0,0.0,0.0,0.0,0.0,0.0,0.0,0.0,0.0,0.0,0.0,0.0,0.0,0.0,0.0,0.0,0.0,0.0,0.0,0.0,0.0,0.0,0.0,0.0,0.0,0.0,0.0,0.0,0.0,0.0,0.0,0.0,0.0,0.0,0.0,0.0,0.0,0.0,0.0,0.0,0.0,0.0,0.0,0.0,0.0,0.0,0.0,0.0,0.0,0.0,0.0,0.0,0.0,0.0,0.0,0.0,0.0,0.0,0.0,0.0,0.0,0.0,0.0,0.0,0.0,0.0,0.0,0.0,0.0,0.0,0.0,-1.2542,-1.3715,-1.514,-1.5961,-1.5832,-1.5581,-1.4787,-1.3268,0.0,0.0,0.0,0.0,0.0,0.0,0.0,0.0,0.0,0.0,0.0,0.0,0.0,0.0,0.0,0.0,0.0,0.0,0.0,0.0,0.0,0.0,0.0,0.0,0.0,0.0,0.0,0.0,0.0,0.0,0.0,0.0,0.0,0.0,0.0,0.0,0.0,0.0,0.0,0.0,0.0,0.0,0.0,0.0,0.0,0.0,0.0,0.0,0.0,0.0,0.0,0.0,0.0,0.0,0.0,0.0,0.0,0.0,0.0,0.0,0.0,0.0,0.0,0.0,0.0,0.0,0.0,0.0,0.0,0.0,0.0,0.0,0.0,0.0,0.0,0.0,0.0,0.0,0.0,0.0,0.0,0.0,0.0,0.0,0.0,0.0,0.0,0.0,0.0,0.0,0.0,0.0,0.0,0.0,0.0,0.0,0.0,0.0,0.0,0.0,0.0,0.0,0.0,0.0,-1.2901,-1.459,-1.533,-1.5696,-1.5676,-1.4957,-1.4122,-1.3227,0.0,0.0,0.0,0.0,0.0,0.0,0.0,0.0,0.0,0.0,0.0,0.0,0.0,0.0,0.0,0.0,0.0,0.0,0.0,0.0,0.0,0.0,0.0,0.0,0.0,0.0,0.0,0.0,0.0,0.0,0.0,0.0,0.0,0.0,0.0,0.0,0.0,0.0,0.0,0.0,0.0,0.0,0.0,0.0,0.0,0.0,0.0,0.0,0.0,0.0,0.0,0.0,0.0,0.0,0.0,0.0,0.0,0.0,0.0,0.0,0.0,0.0,0.0,0.0,0.0,0.0,0.0,0.0,0.0,0.0,0.0,0.0,0.0,0.0,0.0,0.0,0.0,0.0,0.0,0.0,0.0,0.0,0.0,0.0,0.0,0.0,0.0,0.0,0.0,0.0,0.0,0.0,0.0,0.0,0.0,0.0,0.0,0.0,0.0,0.0,0.0,0.0,0.0,-1.2718,-1.3668,-1.5059,-1.5533,-1.5723,-1.5649,-1.474,-1.3892,-1.3214,-1.2793,0.0,0.0,0.0,0.0,0.0,0.0,0.0,0.0,0.0,0.0,0.0,0.0,0.0,0.0,0.0,0.0,0.0,0.0,0.0,0.0,0.0,0.0,0.0,0.0,0.0,0.0,0.0,0.0,0.0,0.0,0.0,0.0,0.0,0.0,0.0,0.0,0.0,0.0,0.0,0.0,0.0,0.0,0.0,0.0,0.0,0.0,0.0,0.0,0.0,0.0,0.0,0.0,0.0,0.0,0.0,0.0,0.0,0.0,0.0,0.0,0.0,0.0,0.0,0.0,0.0,0.0,0.0,0.0,0.0,0.0,0.0,0.0,0.0,0.0,0.0,0.0,0.0,0.0,0.0,0.0,0.0,0.0,0.0,0.0,0.0,0.0,0.0,0.0,0.0,0.0,0.0,0.0,0.0,0.0,0.0,0.0,0.0,0.0,0.0,0.0,0.0,0.0,-1.3444,-1.417,-1.5147,-1.5486,-1.5588,-1.5438,-1.4496,-1.3688,-1.3159,-1.242,0.0,0.0,0.0,0.0,0.0,0.0,0.0,0.0,0.0,0.0,0.0,0.0,0.0,0.0,0.0,0.0,0.0,0.0,0.0,0.0,0.0,0.0,0.0,0.0,0.0,0.0,0.0,0.0,0.0,0.0,0.0,0.0,0.0,0.0,0.0,0.0,0.0,0.0,0.0,0.0,0.0,0.0,0.0,0.0,0.0,0.0,0.0,0.0,0.0,0.0,0.0,0.0,0.0,0.0,0.0,0.0,0.0,0.0,0.0,0.0,0.0,0.0,0.0,0.0,0.0,0.0,0.0,0.0,0.0,0.0,0.0,0.0,0.0,0.0,0.0,0.0,0.0,0.0,0.0,0.0,0.0,0.0,0.0,0.0,0.0,0.0,0.0,0.0,0.0,0.0,0.0,0.0,0.0,0.0,0.0,0.0,0.0,0.0,0.0,0.0,0.0,0.0,-1.3363,-1.3939,-1.4706,-1.4936,-1.497,-1.4814,-1.3973,-1.3315,-1.2996,-1.2264,0.0,0.0,0.0,0.0,0.0,0.0,0.0,0.0,0.0,0.0,0.0,0.0,0.0,0.0,0.0,0.0,0.0,0.0,0.0,0.0,0.0,0.0,0.0,0.0,0.0,0.0,0.0,0.0,0.0,0.0,0.0,0.0,0.0,0.0,0.0,0.0,0.0,0.0,0.0,0.0,0.0,0.0,0.0,0.0,0.0,0.0,0.0,0.0,0.0,0.0,0.0,0.0,0.0,0.0,0.0,0.0,0.0,0.0,0.0,0.0,0.0,0.0,0.0,0.0,0.0,0.0,0.0,0.0,0.0,0.0,0.0,0.0,0.0,0.0,0.0,0.0,0.0,0.0,0.0,0.0,0.0,0.0,0.0,0.0,0.0,0.0,0.0,0.0,0.0,0.0,0.0,0.0,0.0,0.0,0.0,0.0,0.0,0.0,0.0,0.0,0.0,0.0,-1.3514,-1.3912,-1.4658,-1.4875,-1.4835,-1.4496,-1.3899,-1.3295,-1.2712,0.0,0.0,0.0,0.0,0.0,0.0,0.0,0.0,0.0,0.0,0.0,0.0,0.0,0.0,0.0,0.0,0.0,0.0,0.0,0.0,0.0,0.0,0.0,0.0,0.0,0.0,0.0,0.0,0.0,0.0,0.0,0.0,0.0,0.0,0.0,0.0,0.0,0.0,0.0,0.0,0.0,0.0,0.0,0.0,0.0,0.0,0.0,0.0,0.0,0.0,0.0,0.0,0.0,0.0,0.0,0.0,0.0,0.0,0.0,0.0,0.0,0.0,0.0,0.0,0.0,0.0,0.0,0.0,0.0,0.0,0.0,0.0,0.0,0.0,0.0,0.0,0.0,0.0,0.0,0.0,0.0,0.0,0.0,0.0,0.0,0.0,0.0,0.0,0.0,0.0,0.0,0.0,0.0,0.0,0.0,0.0,0.0,0.0,0.0,0.0,0.0,0.0,-1.3181,-1.3439,-1.3804,-1.4462,-1.4665,-1.4597,-1.419,-1.3702,-1.3152,-1.2542,0.0,0.0,0.0,0.0,0.0,0.0,0.0,0.0,0.0,0.0,0.0,0.0,0.0,0.0,0.0,0.0,0.0,0.0,0.0,0.0,0.0,0.0,0.0,0.0,0.0,0.0,0.0,0.0,0.0,0.0,0.0,0.0,0.0,0.0,0.0,0.0,0.0,0.0,0.0,0.0,0.0,0.0,0.0,0.0,0.0,0.0,0.0,0.0,0.0,0.0,0.0,0.0,0.0,0.0,0.0,0.0,0.0,0.0,0.0,0.0,0.0,0.0,0.0,0.0,0.0,0.0,0.0,0.0,0.0,0.0,0.0,0.0,0.0,0.0,0.0,0.0,0.0,0.0,0.0,0.0,0.0,0.0,0.0,0.0,0.0,0.0,0.0,0.0,0.0,0.0,0.0,0.0,0.0,0.0,0.0,0.0,0.0,0.0,0.0,0.0,0.0,0.0,-1.2729,-1.3119,-1.3566,-1.4021,-1.4204,-1.417,-1.3858,-1.3302,-1.2834,0.0,0.0,0.0,0.0,0.0,0.0,0.0,0.0,0.0,0.0,0.0,0.0,0.0,0.0,0.0,0.0,0.0,0.0,0.0,0.0,0.0,0.0,0.0,0.0,0.0,0.0,0.0,0.0,0.0,0.0,0.0,0.0,0.0,0.0,0.0,0.0,0.0,0.0,0.0,0.0,0.0,0.0,0.0,0.0,0.0,0.0,0.0,0.0,0.0,0.0,0.0,0.0,0.0,0.0,0.0,0.0,0.0,0.0,0.0,0.0,0.0,0.0,0.0,0.0,0.0,0.0,0.0,0.0,0.0,0.0,0.0,0.0,0.0,0.0,0.0,0.0,0.0,0.0,0.0,0.0,0.0,0.0,0.0,0.0,0.0,0.0,0.0,0.0,0.0,0.0,0.0,0.0,0.0,0.0,0.0,0.0,0.0,0.0,0.0,0.0,0.0,0.0,0.0,-1.3358,-1.3424,-1.3582,-1.3709,-1.3892,-1.381,-1.3403,-1.3207,-1.2847,-1.223,0.0,0.0,0.0,0.0,0.0,0.0,0.0,0.0,0.0,0.0,0.0,0.0,0.0,0.0,0.0,0.0,0.0,0.0,0.0,0.0,0.0,0.0,0.0,0.0,0.0,0.0,0.0,0.0,0.0,0.0,0.0,0.0,0.0,0.0,0.0,0.0,0.0,0.0,0.0,0.0,0.0,0.0,0.0,0.0,0.0,0.0,0.0,0.0,0.0,0.0,0.0,0.0,0.0,0.0,0.0,0.0,0.0,0.0,0.0,0.0,0.0,0.0,0.0,0.0,0.0,0.0,0.0,0.0,0.0,0.0,0.0,0.0,0.0,0.0,0.0,0.0,0.0,0.0,0.0,0.0,0.0,0.0,0.0,0.0,0.0,0.0,0.0,0.0,0.0,0.0,0.0,0.0,0.0,0.0,0.0,0.0,0.0,0.0,0.0,0.0,0.0,0.0,-1.3123,-1.3092,-1.3182,-1.3397,-1.3526,-1.3444,-1.3119,-1.2976,-1.2664,-1.2094,0.0,0.0,0.0,0.0,0.0,0.0,0.0,0.0,0.0,0.0,0.0,0.0,0.0,0.0,0.0,0.0,0.0,0.0,0.0,0.0,0.0,0.0,0.0,0.0,0.0,0.0,0.0,0.0,0.0,0.0,0.0,0.0,0.0,0.0,0.0,0.0,0.0,0.0,0.0,0.0,0.0,0.0,0.0,0.0,0.0,0.0,0.0,0.0,0.0,0.0,0.0,0.0,0.0,0.0,0.0,0.0,0.0,0.0,0.0,0.0,0.0,0.0,0.0,0.0,0.0,0.0,0.0,0.0,0.0,0.0,0.0,0.0,0.0,0.0,0.0,0.0,0.0,0.0,0.0,0.0,0.0,0.0,0.0,0.0,0.0,0.0,0.0,0.0,0.0,0.0,0.0,0.0,0.0,0.0,0.0,0.0,0.0,0.0,0.0,0.0,0.0,0.0,-1.2457,-1.249,-1.2749,-1.3105,-1.3166,-1.3112,-1.2949,-1.2684,-1.2393,-1.2155,0.0,0.0,0.0,0.0,0.0,0.0,0.0,0.0,0.0,0.0,0.0,0.0,0.0,0.0,0.0,0.0,0.0,0.0,0.0,0.0,0.0,0.0,0.0,0.0,0.0,0.0,0.0,0.0,0.0,0.0,0.0,0.0,0.0,0.0,0.0,0.0,0.0,0.0,0.0,0.0,0.0,0.0,0.0,0.0,0.0,0.0,0.0,0.0,0.0,0.0,0.0,0.0,0.0,0.0,0.0,0.0,0.0,0.0,0.0,0.0,-0.8777,0.0,0.0,0.0,0.0,0.0,0.0,0.0,0.0,0.0,0.0,0.0,0.0,0.0,0.0,0.0,0.0,0.0,0.0,0.0,0.0,0.0,0.0,0.0,0.0,0.0,0.0,0.0,0.0,0.0,0.0,0.0,0.0,0.0,0.0,0.0,0.0,0.0,0.0,0.0,0.0,0.0,-1.3198,-1.3326,-1.3333,-1.305,-1.3105,-1.3064,-1.28,-1.2718,-1.2501,-1.2088,-1.2033,0.0,0.0,0.0,0.0,0.0,0.0,0.0,0.0,0.0,0.0,0.0,0.0,0.0,0.0,0.0,0.0,0.0,0.0,0.0,0.0,0.0,0.0,0.0,0.0,0.0,0.0,0.0,0.0,0.0,0.0,0.0,0.0,0.0,0.0,0.0,0.0,0.0,0.0,0.0,0.0,0.0,0.0,0.0,0.0,0.0,0.0,0.0,0.0,0.0,0.0,0.0,0.0,0.0,0.0,0.0,0.0,0.0,0.0,0.0,0.0,-1.122,0.0,0.0,0.0,0.0,0.0,0.0,0.0,0.0,0.0,0.0,0.0,0.0,0.0,0.0,0.0,0.0,0.0,0.0,0.0,0.0,0.0,0.0,0.0,0.0,0.0,0.0,0.0,0.0,0.0,0.0,0.0,0.0,0.0,0.0,0.0,0.0,0.0,0.0,0.0,0.0,-1.2796,-1.2849,-1.2867,-1.2783,-1.2807,-1.2786,-1.263,-1.2488,-1.2311,-1.2074,-1.1925,0.0,0.0,0.0,0.0,0.0,0.0,0.0,0.0,0.0,0.0,0.0,0.0,0.0,0.0,0.0,0.0,0.0,0.0,0.0,0.0,0.0,0.0,0.0,0.0,0.0,0.0,0.0,0.0,0.0,0.0,0.0,0.0,0.0,0.0,0.0,0.0,0.0,0.0,0.0,0.0,0.0,0.0,0.0,0.0,0.0,0.0,0.0,0.0,0.0,0.0,0.0,0.0,0.0,-1.2292,-1.2529,-1.197,-1.2882,-1.3347,-1.3617,-1.3853,-1.3389,-1.2352,-1.331,0.0,0.0,0.0,0.0,0.0,0.0,0.0,0.0,0.0,0.0,0.0,0.0,0.0,0.0,0.0,0.0,0.0,0.0,0.0,0.0,0.0,0.0,0.0,0.0,-1.4546,-1.4538,-1.4562,0.0,0.0,0.0,0.0,0.0,0.0,0.0,0.0,0.0,0.0,0.0,-1.2277,-1.2251,-1.2292,-1.2508,-1.2542,-1.2522,-1.2467,-1.2244,-1.2081,-1.2026,-1.1789,-1.1647,0.0,0.0,0.0,0.0,0.0,0.0,0.0,0.0,0.0,0.0,0.0,0.0,0.0,0.0,0.0,0.0,0.0,0.0,0.0,0.0,0.0,0.0,0.0,0.0,0.0,0.0,0.0,0.0,0.0,0.0,0.0,0.0,-0.8877,-0.9013,0.0,0.0,0.0,0.0,0.0,0.0,0.0,0.0,0.0,0.0,0.0,0.0,0.0,-1.1511,-1.0965,-1.2128,-1.2806,-1.3068,-1.4214,-1.4859,-1.4971,-1.5058,-1.5225,-1.5473,-1.5618,0.0,-1.4298,-1.4309,0.0,0.0,0.0,0.0,0.0,0.0,0.0,0.0,0.0,0.0,0.0,0.0,0.0,0.0,0.0,0.0,0.0,0.0,0.0,0.0,0.0,0.0,-1.4692,-1.5049,-1.5009,-1.4935,0.0,-1.4749,-1.4399,-1.4399,-1.4261,0.0,0.0,0.0,0.0,0.0,0.0,0.0,-1.2792,-1.2788,-1.2755,-1.2671,-1.2698,-1.2596,-1.2338,-1.2284,-1.2149,-1.1877,-1.1823,-1.1748,-1.1626,-1.1619,0.0,0.0,0.0,0.0,0.0,0.0,0.0,0.0,0.0,0.0,0.0,0.0,0.0,0.0,0.0,0.0,0.0,0.0,0.0,0.0,0.0,0.0,0.0,0.0,0.0,0.0,0.0,0.0,0.0,-0.9581,-1.0198,-1.0852,-1.0987,-1.1053,0.0,0.0,0.0,0.0,0.0,0.0,0.0,0.0,0.0,-1.3621,-1.3729,-1.3665,-1.3425,-1.4129,-1.4586,-1.4849,-1.5409,-1.5812,-1.6259,-1.6162,-1.6211,-1.6381,-1.6357,-1.6064,-1.5577,-1.5195,-1.4757,-1.431,0.0,0.0,0.0,0.0,-1.4586,-1.4749,-1.4846,-1.4887,-1.4871,-1.4765,0.0,0.0,0.0,0.0,0.0,0.0,0.0,0.0,0.0,0.0,-1.4773,-1.5025,-1.5025,-1.4984,-1.5065,-1.4895,-1.47,0.0,-1.4367,-1.418,-1.418,0.0,0.0,0.0,0.0,-1.2865,-1.2363,-1.225,-1.2265,-1.2332,-1.2352,-1.2305,-1.2176,-1.2081,-1.1972,-1.1837,-1.1755,-1.1687,-1.1619,-1.1619,-1.1619,0.0,0.0,0.0,0.0,0.0,0.0,0.0,0.0,0.0,0.0,0.0,0.0,0.0,0.0,0.0,0.0,0.0,0.0,0.0,0.0,0.0,0.0,0.0,0.0,0.0,0.0,0.0,0.0,-1.1073,-1.1437,-1.2298,-1.2491,-1.254,0.0,0.0,0.0,0.0,0.0,0.0,-1.401,-1.4326,-1.4651,-1.509,-1.5277,-1.5423,-1.5512,-1.574,-1.5991,-1.6168,-1.63,-1.6552,-1.6982,-1.6852,-1.6909,-1.712,-1.6982,-1.682,-1.6592,-1.5926,-1.5309,-1.4773,-1.4724,-1.4659,-1.4611,-1.4838,-1.5025,-1.5187,-1.5277,-1.5309,-1.5277,-1.5098,-1.4887,-1.4676,-1.4489,0.0,0.0,0.0,0.0,-1.4546,-1.4724,-1.4773,-1.4814,-1.4992,-1.5,-1.4976,-1.5025,-1.4968,-1.4879,0.0,-1.4521,-1.4318,-1.4318,0.0,0.0,0.0,0.0,-1.2525,-1.1882,-1.1864,-1.1952,-1.2101,-1.2121,-1.2101,-1.2067,-1.1918,-1.1816,-1.1782,-1.1681,-1.1619,-1.1619,-1.1619,-1.1619,-1.1619,0.0,0.0,0.0,0.0,0.0,0.0,0.0,0.0,0.0,0.0,0.0,0.0,0.0,0.0,0.0,0.0,0.0,0.0,0.0,0.0,0.0,0.0,0.0,0.0,0.0,0.0,0.0,0.0,0.0,-1.2572,-1.3003,0.0,0.0,0.0,0.0,-1.3493,-1.3994,-1.4374,-1.4659,-1.5,-1.5277,-1.548,-1.5658,-1.591,-1.6243,-1.6609,-1.6709,-1.6725,-1.6974,-1.7161,-1.7364,-1.7348,-1.7534,-1.7867,-1.7851,-1.7746,-1.7494,-1.6446,-1.5894,-1.5691,-1.5528,-1.5561,-1.5675,-1.5528,-1.5585,-1.5707,-1.5553,-1.5504,-1.5472,-1.5285,-1.4992,-1.4676,-1.4489,-1.4432,0.0,0.0,-1.4692,-1.4732,-1.4911,-1.4952,-1.5,-1.5179,-1.509,-1.5017,-1.5187,-1.496,-1.4765,0.0,-1.4806,-1.4684,-1.4684,0.0,-1.3954,-1.3137,-1.2857,-1.2525,-1.1882,-1.1959,-1.2108,-1.2264,-1.2277,-1.2223,-1.2074,-1.1918,-1.1775,-1.164,-1.1619,-1.1619,-1.1619,-1.1619,-1.1619,-1.1619,-1.1619,0.0,0.0,0.0,0.0,0.0,0.0,0.0,0.0,0.0,0.0,0.0,0.0,0.0,0.0,0.0,0.0,0.0,0.0,0.0,0.0,0.0,0.0,0.0,0.0,0.0,0.0,0.0,0.0,-1.3417,-1.4002,0.0,-1.4221,-1.4261,-1.4351,-1.4481,-1.4781,-1.5082,-1.5374,-1.5731,-1.6064,-1.6365,-1.6544,-1.6698,-1.682,-1.7071,-1.7201,-1.7201,-1.7372,-1.7551,-1.7721,-1.7607,-1.7681,-1.7908,-1.7794,-1.7705,-1.7599,-1.7112,-1.6592,-1.6105,-1.6048,-1.5918,-1.5764,-1.5707,-1.5861,-1.6089,-1.5918,-1.5853,-1.5788,-1.5374,-1.5074,-1.4862,-1.4797,-1.4773,-1.4789,-1.4854,-1.4871,-1.4887,-1.4952,-1.4968,-1.4984,-1.5049,-1.5017,-1.4984,-1.5049,-1.496,-1.4895,-1.4952,-1.483,-1.4592,-1.4255,-1.4054,-1.3675,-1.267,-1.2446,-1.2208,-1.176,-1.1742,-1.1796,-1.185,-1.1857,-1.1837,-1.1782,-1.1728,-1.1674,-1.1619,-1.1619,-1.1619,-1.1619,-1.1619,-1.1619,-1.1619,-1.1619,-1.1619,0.0,0.0,0.0,0.0,0.0,0.0,0.0,0.0,0.0,0.0,0.0,0.0,0.0,0.0,0.0,0.0,0.0,0.0,0.0,0.0,0.0,0.0,0.0,0.0,0.0,0.0,-1.3937,-1.4229,-1.4789,-1.5155,-1.5155,-1.5098,-1.5155,-1.5398,-1.5528,-1.578,-1.6202,-1.6511,-1.6779,-1.7023,-1.7201,-1.7291,-1.7291,-1.7413,-1.7469,-1.7478,-1.7591,-1.7737,-1.7916,-1.7786,-1.7835,-1.7997,-1.7875,-1.7819,-1.7811,-1.764,-1.725,-1.6738,-1.6625,-1.6397,-1.6129,-1.6064,-1.6154,-1.6276,-1.6105,-1.6008,-1.5886,-1.5472,-1.5212,-1.5049,-1.4984,-1.4968,-1.4968,-1.4968,-1.4968,-1.4968,-1.4968,-1.4968,-1.4968,-1.4968,-1.4968,-1.4968,-1.4968,-1.4968,-1.4968,-1.4968,-1.4871,-1.4681,-1.4184,-1.3991,-1.354,-1.2525,-1.2265,-1.2051,-1.1619,-1.166,-1.1687,-1.1687,-1.1687,-1.1687,-1.1687,-1.1647,-1.1619,-1.1619,-1.1619,-1.1619,-1.1619,-1.1619,-1.1619,-1.1619,-1.1619,-1.1619,-1.1619,0.0,0.0,0.0,0.0,0.0,0.0,0.0,0.0,0.0,0.0,0.0,0.0,0.0,0.0,0.0,0.0,0.0,0.0,0.0,0.0,0.0,0.0,0.0,-1.3376,-1.3872,-1.4424,-1.496,-1.535,-1.5577,-1.5577,-1.5415,-1.5601,-1.6292,-1.6349,-1.6576,-1.7112,-1.7299,-1.7396,-1.7404,-1.7559,-1.764,-1.764,-1.7648,-1.7648,-1.7648,-1.7656,-1.7754,-1.7924,-1.7924,-1.8014,-1.8176,-1.8168,-1.8168,-1.8152,-1.7973,-1.7794,-1.7599,-1.725,-1.7006,-1.6741,-1.6649,-1.6462,-1.6276,-1.6121,-1.5943,-1.5748,-1.5577,-1.539,-1.5204,-1.5017,-1.4968,-1.4968,-1.4968,-1.4968,-1.4968,-1.4968,-1.4968,-1.4968,-1.4968,-1.4968,-1.4968,-1.4968,-1.4968,-1.4968,-1.4968,-1.4968,-1.4891,-1.443,-1.4073,-1.3624,-1.2806,-1.2401,0.0,-1.1626,-1.1742,-1.1823,-1.1823,-1.1823,-1.1823,-1.1823,-1.1701,-1.1619,-1.1619,-1.1619,-1.1619,-1.1619,-1.1619,-1.1619,-1.1619,-1.1619,-1.1619,-1.1619,0.0,0.0,0.0,0.0,0.0,0.0,0.0,0.0,0.0,0.0,0.0,0.0,0.0,0.0,0.0,0.0,0.0,0.0,0.0,0.0,0.0,0.0,-1.3709,-1.3587,-1.4586,-1.5439,-1.5723,-1.6414,-1.6877,-1.6877,-1.6942,-1.7063,-1.7258,-1.7274,-1.7396,-1.7681,-1.7616,-1.7632,-1.777,-1.7689,-1.764,-1.764,-1.7778,-1.7843,-1.7843,-1.7965,-1.8054,-1.8103,-1.8103,-1.8127,-1.8168,-1.8046,-1.7989,-1.7965,-1.7656,-1.7502,-1.7445,-1.7348,-1.712,-1.6741,-1.6649,-1.6462,-1.6316,-1.6405,-1.6227,-1.5918,-1.5618,-1.539,-1.5204,-1.5017,-1.4968,-1.4968,-1.4968,-1.4968,-1.4968,-1.4968,-1.4968,-1.4968,-1.4968,-1.4968,-1.4968,-1.4968,-1.4968,-1.4891,-1.4592,-1.4592,-1.4475,-1.4197,-1.3861,-1.3386,-1.2827,-1.2265,0.0,-1.1775,-1.1714,-1.1681,-1.1681,-1.1681,-1.1681,-1.1681,-1.164,-1.1619,-1.1619,-1.1619,-1.1619,-1.1619,-1.1619,-1.1619,-1.1619,-1.1619,-1.1619,0.0,0.0,0.0,0.0,0.0,0.0,0.0,0.0,0.0,0.0,0.0,0.0,0.0,0.0,0.0,0.0,0.0,0.0,0.0,0.0,0.0,0.0,-1.4083,-1.4505,-1.456,-1.5366,-1.6064,-1.6552,-1.7071,-1.7502,-1.7802,-1.7786,-1.7851,-1.8079,-1.7949,-1.7949,-1.8135,-1.8038,-1.7997,-1.8022,-1.7997,-1.794,-1.7867,-1.7973,-1.8022,-1.803,-1.8127,-1.8176,-1.8176,-1.8176,-1.8176,-1.8168,-1.807,-1.8022,-1.7997,-1.764,-1.7494,0.0,0.0,0.0,0.0,0.0,-1.6349,-1.6211,-1.6316,-1.6219,-1.5901,-1.5634,-1.5447,-1.5309,-1.5049,-1.4968,-1.4968,-1.4968,-1.4968,-1.4968,-1.4968,-1.4968,-1.4968,-1.4968,-1.4968,-1.4968,-1.4968,-1.4891,-1.4669,-1.4438,-1.4207,0.0,-1.3915,-1.3535,-1.3083,-1.262,-1.2175,-1.1904,-1.1837,-1.1755,-1.1708,-1.1708,-1.1653,-1.1667,-1.1796,-1.1742,0.0,0.0,0.0,-1.1681,-1.1619,-1.1619,0.0,0.0,0.0,0.0,0.0,0.0,0.0,0.0,-1.1735,-1.1742,0.0,0.0,0.0,0.0,0.0,0.0,0.0,0.0,0.0,0.0,0.0,0.0,0.0,0.0,0.0,0.0,-1.4773,-1.5528,-1.6089,-1.6103,-1.6495,-1.7291,-1.7404,-1.7681,-1.8355,-1.8152,-1.8184,-1.8688,-1.842,-1.8314,-1.8501,0.0,0.0,0.0,0.0,-1.8395,-1.8208,-1.8208,-1.8192,-1.8176,-1.8176,-1.8176,-1.8176,-1.8176,-1.8176,-1.8176,-1.8152,-1.8144,-1.8119,-1.7762,-1.7599,-1.7551,-1.721,-1.6974,-1.6701,-1.6454,-1.6211,-1.5966,-1.6064,0.0,0.0,-1.5634,-1.5512,-1.5447,-1.5074,-1.4968,-1.4968,-1.4968,-1.4968,-1.4968,-1.4968,-1.4968,-1.4968,-1.4968,-1.4968,-1.4968,-1.4968,-1.4669,-1.4361,-1.4361,-1.3975,-1.3583,-1.3583,-1.3235,-1.2837,-1.2464,-1.2244,-1.2013,-1.1877,-1.183,-1.1809,-1.1809,0.0,0.0,-1.2013,-1.1925,-1.1857,-1.1857,-1.1857,-1.1803,-1.1674,-1.1667,-1.1667,-1.1667,-1.1789,-1.185,-1.183,-1.1972,-1.2047,-1.2135,-1.1925,-1.1932,0.0,0.0,0.0,0.0,0.0,0.0,0.0,0.0,0.0,0.0,0.0,0.0,0.0,0.0,0.0,-1.4854,-1.5408,-1.6129,-1.6812,-1.7031,-1.7193,-1.7364,-1.751,-1.7762,-1.8184,-1.8298,-1.8452,-1.8704,-1.8663,-1.8696,-1.8866,-1.8744,-1.872,-1.8826,-1.8728,-1.8582,-1.8403,-1.8395,-1.8322,-1.8176,0.0,0.0,-1.8176,-1.8176,-1.8176,-1.8168,-1.803,-1.7965,-1.794,-1.7583,-1.7348,-1.7193,-1.6982,-1.6795,-1.6625,-1.6552,-1.6324,-1.5982,-1.6202,-1.6162,-1.5901,-1.5634,-1.5512,-1.5447,-1.5074,-1.4968,0.0,-1.4968,-1.4968,-1.4968,-1.4968,-1.4968,-1.4968,-1.4968,-1.4968,-1.4968,-1.4968,-1.4669,-1.4291,-1.3898,-1.3505,-1.312,-1.2811,-1.2944,-1.3,-1.2923,-1.2464,-1.2128,-1.202,-1.1809,-1.166,-1.166,-1.1735,-1.1816,-1.187,-1.1965,-1.202,-1.202,-1.202,-1.2006,-1.1979,-1.1979,-1.1979,-1.1979,-1.2006,-1.1952,-1.183,-1.1864,-1.1938,-1.2135,-1.2033,-1.2033,0.0,0.0,0.0,0.0,0.0,0.0,0.0,0.0,0.0,0.0,0.0,-1.3587,0.0,0.0,-1.4944,-1.5658,-1.6154,-1.658,-1.7291,-1.7453,-1.7551,-1.764,-1.7802,-1.8054,-1.842,-1.8615,-1.8793,-1.898,-1.9069,-1.9118,-1.9118,-1.9118,-1.9077,-1.8988,-1.8899,-1.8769,-1.859,-1.8501,-1.8403,-1.8314,-1.8217,-1.8176,-1.8176,-1.8087,-1.8095,-1.816,-1.7892,-1.7835,-1.7892,-1.7534,-1.7283,-1.7104,-1.7015,-1.682,-1.6584,-1.6584,-1.6357,-1.5966,-1.604,-1.5983,-1.5853,-1.5496,-1.5374,-1.5325,-1.5049,-1.4968,-1.4968,-1.4968,-1.4968,-1.4968,-1.4968,-1.4968,-1.4968,-1.4968,-1.4968,-1.4968,-1.4745,-1.4361,-1.3898,-1.3513,-1.3042,-1.2733,-1.2501,-1.2656,-1.279,-1.2713,-1.2422,-1.2121,-1.1965,-1.1816,-1.1755,-1.183,-1.1837,-1.1925,-1.2149,-1.2169,-1.2176,-1.2176,-1.2101,-1.2135,-1.2135,-1.2135,-1.2135,-1.2135,-1.2135,-1.2142,-1.206,-1.2135,-1.221,-1.2284,-1.2284,-1.2284,0.0,0.0,0.0,0.0,0.0,0.0,0.0,0.0,-1.3409,-1.3774,-1.4107,-1.4391,-1.4603,-1.5204,-1.5829,-1.6332,-1.6747,-1.7081,-1.7632,-1.7664,-1.7705,-1.79,-1.8038,-1.8282,-1.8688,-1.8883,-1.9069,-1.9297,-1.9467,-1.9492,-1.9321,-1.9435,-1.9362,-1.9045,-1.9037,-1.8956,-1.8777,-1.8598,-1.8485,-1.8547,-1.8265,-1.8176,-1.8168,-1.7997,-1.7989,-1.8103,-1.7778,-1.7729,-1.7843,-1.7559,-1.7331,-1.7161,-1.7128,-1.6893,-1.6584,-1.6584,-1.6332,-1.5975,-1.5821,-1.5748,-1.5666,-1.5342,-1.5236,-1.5204,-1.5017,-1.4968,-1.4968,-1.4968,-1.4968,-1.4968,-1.4968,-1.4968,-1.4968,-1.4968,-1.4968,-1.4891,-1.4515,-1.4053,-1.359,-1.3197,-1.2811,-1.2501,-1.2501,-1.2501,-1.2461,-1.2345,-1.2311,-1.2189,-1.1911,-1.185,-1.187,-1.1965,-1.1918,-1.2047,-1.2467,-1.24,-1.2332,-1.2332,-1.2216,-1.2149,-1.2149,-1.2149,-1.2149,-1.2149,-1.2271,-1.2318,-1.2291,-1.2406,-1.2461,-1.2461,-1.2461,-1.2474,-1.3068,-1.3068,-1.3068,-1.3068,-1.3189,-1.3401,0.0,0.0,-1.4156,-1.4513,-1.4741,-1.4984,-1.5333,-1.5845,-1.6341,-1.673,-1.7218,-1.7632,-1.7859,-1.7746,-1.7705,-1.79,-1.7932,-1.8152,-1.8671,-1.8883,-1.9118,-1.9459,-1.9654,-1.9678,-1.9492,-1.95,-1.9427,-1.9232,-1.9224,-1.9142,-1.8956,-1.8777,-1.8615,-1.8547,-1.8265,-1.8176,-1.8168,-1.7997,-1.7924,-1.7932,-1.7729,-1.7656,-1.7664,-1.7624,-1.751,-1.7339,-1.7177,-1.6893,-1.6584,-1.6584,-1.6251,-1.5796,-1.578,-1.5675,-1.5512,-1.5301,-1.5236,-1.5204,-1.5017,-1.4968,-1.4968,-1.4968,-1.4968,-1.4968,-1.4968,-1.4968,-1.4968,-1.4968,-1.4968,-1.4891,-1.4515,-1.4053,-1.359,-1.3197,-1.2811,-1.2501,-1.2501,-1.2501,-1.2494,-1.2481,-1.2372,-1.223,-1.206,-1.1918,-1.1789,-1.1681,-1.1891,-1.2162,-1.2474,-1.2488,-1.2481,-1.2481,-1.2461,-1.2454,-1.2454,-1.2454,-1.2454,-1.2454,-1.2467,-1.2413,-1.2291,-1.2305,-1.2311,-1.2311,-1.2311,-1.2379,-1.3254,-1.3173,-1.3173,-1.3482,-1.3701,-1.3961,-1.4416,-1.4659,-1.4895,-1.5252,-1.5553,-1.5821,-1.6089,-1.6576,-1.7055,0.0,-1.7746,-1.7981,-1.8054,-1.7997,-1.7827,-1.7486,-1.7632,-1.7965,-1.8517,-1.8728,-1.9021,-1.9475,-1.9581,-1.9597,-1.9516,-1.9516,-1.9435,-1.9264,-1.9256,-1.9224,-1.9142,-1.8866,-1.8688,-1.8606,-1.8208,-1.8022,-1.8014,-1.7737,-1.7551,-1.7453,-1.7478,-1.7429,-1.7323,-1.7226,-1.7145,-1.7055,-1.6877,-1.6649,-1.6422,-1.6422,-1.6211,-1.5902,-1.5699,-1.5577,-1.5463,-1.5171,-1.5082,-1.5065,-1.4992,-1.4968,-1.4968,-1.4968,-1.4968,-1.4968,-1.4968,-1.4968,-1.4968,-1.4968,-1.4814,-1.4515,-1.4053,-1.3667,-1.3197,-1.2811,-1.2656,-1.2501,-1.2501,-1.2501,-1.2501,-1.2501,-1.2379,-1.2237,-1.2155,-1.2006,-1.1945,-1.1884,-1.2067,-1.221,-1.2244,-1.2244,-1.2284,-1.2372,-1.2379,-1.2413,-1.2501,-1.2501,-1.2501,-1.2501,-1.2501,-1.2474,-1.2413,-1.2413,-1.2413,-1.2413,-1.2413,-1.2447,-1.3311,-1.3376,-1.3555,-1.3953,-1.4302,-1.4676,-1.5155,-1.5407,-1.5634,-1.5999,-1.6316,-1.6568,-1.6698,-1.7088,-1.7502,-1.7859,-1.8022,-1.8119,-1.8168,-1.8046,-1.7729,-1.7112,-1.7177,-1.7486,-1.803,-1.8428,-1.885,-1.9329,-1.9459,-1.9516,-1.9516,-1.9516,-1.9435,-1.9264,-1.9256,-1.9232,-1.9183,-1.8883,-1.8671,-1.8566,-1.8127,-1.7892,-1.7827,-1.7526,-1.7283,-1.712,-1.725,-1.7266,-1.7177,-1.7055,-1.6974,-1.6909,-1.6722,-1.6511,-1.6292,-1.6194,-1.6048,-1.5861,-1.5601,-1.5447,-1.5317,-1.5049,-1.4968,-1.4968,-1.4968,-1.4968,-1.4968,-1.4968,-1.4968,-1.4968,-1.4968,-1.4968,-1.4968,-1.4891,-1.4592,-1.4222,-1.3726,-1.3346,-1.3035,-1.264,-1.2562,-1.2549,-1.2508,-1.2501,-1.2501,-1.2501,-1.2413,-1.2291,-1.2142,-1.2088,-1.2081,-1.2121,-1.2189,-1.2196,-1.2128,-1.2088,-1.2108,-1.2223,-1.223,-1.2271,-1.2379,-1.2379,-1.2379,-1.2379,-1.2379,-1.2379,-1.2379,-1.242,-1.244,-1.244,-1.2481,-1.2501,-1.3149,-1.3734,-1.4391,-1.4408,-1.4952,-1.5569,-1.5853,-1.6146,-1.6373,-1.6661,-1.6966,-1.7088,-1.7096,-1.7258,-1.7502,-1.7859,-1.7924,-1.7981,-1.8152,-1.7737,-1.7274,-1.6814,-1.6552,-1.6552,0.0,-1.7949,-1.8606,-1.8972,-1.9321,-1.9516,-1.9516,-1.9516,-1.9435,-1.9264,-1.9256,-1.9175,-1.8996,-1.8818,-1.8541,-1.8192,-1.8005,-1.7827,-1.764,-1.7469,-1.7283,-1.7112,-1.712,-1.7218,-1.738,-1.7372,-1.7266,-1.7088,-1.6917,-1.6625,-1.6259,-1.5918,-1.5683,-1.5528,-1.552,-1.5285,-1.4984,-1.4968,-1.4968,-1.4968,-1.4968,-1.4968,-1.4968,-1.4968,-1.4968,-1.4968,-1.4968,-1.4968,-1.4891,-1.4515,-1.4446,-1.4176,-1.3476,-1.3276,-1.3197,-1.2804,-1.2725,-1.2678,-1.2528,-1.2501,-1.2501,-1.2501,-1.2501,-1.244,-1.2298,-1.2155,-1.2121,-1.2271,-1.2155,-1.2128,-1.2271,-1.2149,-1.206,-1.2142,-1.2142,-1.2149,-1.2074,-1.2074,-1.2074,-1.2074,-1.2074,-1.2074,-1.2074,-1.2223,-1.2298,-1.2298,-1.244,-1.2501,-1.405,-1.4383,-1.4757,-1.535,-1.5772,-1.6137,-1.641,-1.6714,-1.6844,-1.6766,-1.6706,-1.6503,-1.6267,-1.647,-1.6787,-1.7153,-1.7705,-1.807,-1.8014,-1.8054,-1.7648,-1.6462,-1.6625,0.0,0.0,0.0,0.0,-1.8907,-1.9094,-1.9264,-1.95,-1.9516,-1.9435,-1.9264,-1.9142,-1.9045,-1.898,-1.8566,-1.8298,-1.8168,-1.7762,-1.7534,-1.7469,-1.7283,-1.7169,-1.7112,-1.7112,-1.7145,-1.7185,-1.695,-1.682,-1.673,-1.643,-1.6243,-1.6121,-1.5999,-1.5845,-1.565,-1.5415,-1.5252,-1.513,-1.5009,-1.4968,-1.4968,-1.4968,-1.4968,-1.4968,-1.4968,-1.4968,-1.4968,-1.4968,-1.4814,-1.4592,-1.4438,-1.4066,-1.361,-1.3347,-1.3209,-1.3013,-1.2752,-1.2813,-1.28,-1.2549,-1.2583,-1.2617,-1.2515,-1.2501,-1.2481,-1.2433,-1.2386,-1.2298,-1.2155,-1.2094,-1.2006,-1.1857,-1.1796,-1.1809,-1.1904,-1.1911,-1.1952,-1.206,-1.2135,-1.2135,-1.2135,-1.2135,-1.2135,-1.2135,-1.2115,-1.2142,-1.2142,-1.2291,-1.2359,-1.4464,-1.4935,-1.5431,-1.6081,-1.6414,-1.6674,-1.6974,-1.7031,-1.6933,-1.6539,-1.6324,-1.5983,-1.5561,-1.5723,-1.6064,-1.641,-1.7039,-1.7486,-1.7697,-1.7762,-1.7421,-1.6446,-1.6625,-1.669,0.0,0.0,0.0,-1.8517,-1.872,-1.8948,-1.9305,-1.9386,-1.9337,-1.9167,-1.9045,-1.8923,-1.8793,-1.8444,-1.8176,-1.7981,-1.751,-1.7291,-1.7283,-1.7169,-1.7112,-1.7112,-1.7112,-1.7112,-1.7088,-1.6795,-1.6641,-1.6552,-1.6251,-1.6097,-1.5958,-1.5975,-1.5837,-1.565,-1.5415,-1.5293,-1.5212,-1.5025,-1.4968,-1.4968,-1.4968,-1.4968,-1.4968,-1.4968,-1.4968,-1.4968,-1.4814,-1.4592,-1.4284,-1.3975,-1.3593,-1.3226,-1.3188,-1.3127,-1.2929,-1.2834,-1.2895,-1.2861,-1.2556,-1.2583,-1.263,-1.2589,-1.2535,-1.2501,-1.2501,-1.2501,-1.2413,-1.2169,-1.2094,-1.1965,-1.1714,-1.1647,-1.166,-1.1748,-1.1755,-1.1803,-1.1898,-1.1904,-1.1904,-1.1904,-1.1904,-1.1904,-1.1904,-1.1959,-1.2006,-1.206,-1.2162,-1.2264,-1.4464,-1.5407,-1.6381,-1.6584,-1.6885,-1.7169,-1.7323,-1.708,-1.658,-1.6038,-1.5845,-1.5545,0.0,0.0,-1.5366,-1.5845,-1.5974,-1.6397,-1.7291,-1.699,-1.673,0.0,0.0,0.0,0.0,0.0,0.0,-1.7884,0.0,-1.8615,-1.898,-1.9175,-1.9183,-1.8988,-1.8972,-1.8801,-1.8452,-1.8428,-1.8152,-1.7648,-1.7283,-1.712,-1.7136,-1.712,-1.7112,-1.7112,-1.7112,-1.7104,-1.7088,-1.6909,-1.673,-1.6552,-1.6365,-1.6186,-1.5942,-1.5853,-1.5683,-1.5545,-1.552,-1.539,-1.5195,-1.5025,-1.4968,-1.4968,-1.4968,-1.4968,-1.4968,-1.4968,-1.4968,-1.4891,-1.4438,-1.4368,-1.413,-1.3274,-1.3127,-1.3064,-1.2968,-1.2956,-1.3043,-1.2949,-1.2942,-1.2847,-1.2562,-1.2508,-1.2549,-1.2698,-1.2596,-1.2501,-1.2501,-1.2501,-1.244,-1.2291,-1.2149,-1.1999,-1.1843,-1.1708,-1.1633,-1.1633,-1.1633,-1.1626,-1.1619,-1.1619,-1.1619,-1.1619,-1.1619,-1.1619,-1.1619,-1.1755,-1.1898,-1.2047,-1.2135,-1.221,-1.5561,-1.6259,-1.682,-1.7258,-1.7348,-1.7258,-1.7039,-1.6706,-1.6251,-1.5585,-1.509,-1.4651,0.0,0.0,0.0,-1.552,-1.6127,0.0,-1.7672,-1.7892,0.0,-1.7486,0.0,-1.7486,-1.7445,-1.7518,0.0,0.0,-1.8403,-1.8671,-1.9159,-1.9354,-1.9305,-1.8996,-1.8858,-1.868,-1.8452,-1.8054,-1.7851,-1.7843,-1.7348,-1.725,-1.7494,-1.7234,-1.7112,-1.7112,-1.7112,-1.7039,-1.6814,-1.6722,-1.6544,-1.6357,-1.6178,-1.6081,-1.604,-1.5991,-1.5951,-1.5869,-1.561,-1.5301,-1.5025,-1.4984,-1.4968,-1.4968,-1.4968,-1.4968,-1.4968,-1.4669,-1.4515,-1.4438,-1.3975,-1.3667,-1.3358,-1.312,-1.2979,-1.277,-1.2773,-1.2881,-1.2929,-1.2813,-1.2698,-1.263,-1.2664,-1.2576,-1.2515,-1.2556,-1.2528,-1.2501,-1.2501,-1.2501,-1.2406,-1.2149,-1.2088,-1.1999,-1.1843,-1.1796,-1.1775,-1.1775,-1.1775,-1.1728,-1.1619,-1.1619,-1.1619,-1.1619,-1.1619,-1.1619,-1.1619,-1.1653,-1.1748,-1.1891,-1.2006,-1.2176,-1.6211,-1.6803,-1.7178,-1.7477,-1.7453,-1.7169,-1.6812,-1.6332,-1.5731,-1.4935,-1.4408,0.0,-1.3612,-1.3701,-1.4115,0.0,0.0,0.0,-1.7526,-1.7786,-1.7892,0.0,-1.8087,0.0,-1.8005,-1.8095,-1.8298,0.0,-1.8615,-1.8736,-1.9118,-1.9232,-1.9151,-1.8874,-1.8696,-1.8476,-1.8217,-1.7916,-1.777,-1.7794,-1.7413,-1.7339,-1.7518,-1.7234,-1.7112,-1.7112,0.0,-1.7055,-1.6942,-1.669,-1.6519,-1.6397,-1.6146,-1.5966,-1.5966,-1.5966,-1.5999,-1.5886,-1.561,-1.5325,-1.5074,-1.4992,-1.4968,-1.4968,-1.4814,-1.4745,-1.4669,-1.4207,-1.4053,-1.3975,-1.359,-1.3274,-1.3064,-1.2979,-1.2773,-1.2664,-1.28,-1.2847,-1.2834,-1.2745,-1.261,-1.2549,-1.2705,-1.2603,-1.2522,-1.2589,-1.2542,-1.2501,-1.2501,-1.2501,-1.2413,-1.2189,-1.2162,-1.2101,-1.1945,-1.1932,-1.1932,-1.1932,-1.187,-1.1796,-1.1714,-1.1653,-1.1619,-1.1619,-1.1619,-1.1619,-1.1619,-1.1619,-1.1728,-1.1932,-1.1952,-1.2067,-1.6682,-1.7242,-1.7746,-1.7746,-1.7429,-1.6998,-1.6568,-1.5902,-1.5122,-1.4253,0.0,-1.3482,-1.3181,-1.3262,-1.3685,-1.4659,0.0,-1.5634,-1.7234,-1.7339,-1.7575,-1.8452,-1.8653,-1.8566,-1.859,-1.859,-1.8712,-1.8996,-1.8858,-1.8826,-1.8972,-1.898,-1.8891,-1.8696,-1.8509,-1.8257,-1.7924,-1.7916,-1.7827,-1.764,-1.7469,-1.7388,-1.738,-1.7193,-1.7112,-1.7112,-1.7112,-1.7096,-1.7055,-1.6747,-1.6592,-1.6511,-1.6202,-1.5982,-1.5966,-1.5966,-1.5943,-1.5788,-1.561,-1.5368,-1.5198,-1.5041,-1.4984,-1.4846,-1.4523,-1.4384,-1.4237,-1.3752,-1.3605,-1.3542,-1.3155,-1.3092,-1.3064,-1.2811,-1.2657,-1.2637,-1.2901,-1.284,-1.2725,-1.2705,-1.2589,-1.2542,-1.2678,-1.261,-1.2569,-1.2684,-1.2603,-1.2528,-1.2528,-1.2515,-1.2447,-1.2305,-1.2311,-1.2257,-1.2108,-1.2108,-1.2115,-1.2094,-1.1945,-1.185,-1.183,-1.1694,-1.1619,-1.1619,-1.164,-1.1647,-1.1647,-1.1667,-1.1823,-1.2088,-1.1952,-1.2101,-1.7478,-1.7989,-1.8314,-1.8314,-1.7705,-1.6901,-1.6097,-1.5244,0.0,0.0,-1.3336,-1.3214,-1.3303,-1.3352,-1.3807,-1.5155,-1.552,-1.6146,-1.7616,-1.7924,-1.8273,0.0,-1.9118,-1.9175,-1.9313,-1.9329,0.0,0.0,-1.9045,-1.8948,-1.898,-1.898,-1.8834,-1.8509,-1.8322,-1.8127,-1.7916,-1.7916,-1.7827,-1.764,-1.7469,-1.7388,-1.738,-1.7193,-1.7112,-1.7112,-1.7112,0.0,-1.6806,-1.6828,-1.6625,-1.6349,-1.6284,-1.617,-1.5966,-1.5966,-1.6024,-1.5975,-1.5788,-1.5473,-1.5129,-1.5045,-1.4833,-1.4618,-1.4485,-1.4229,-1.3923,-1.3395,-1.3297,-1.3319,-1.2848,-1.2865,-1.3047,-1.2995,-1.2901,-1.2895,-1.3029,-1.284,-1.2691,-1.2569,-1.2522,-1.2508,-1.2535,-1.2623,-1.2657,-1.2556,-1.2623,-1.2691,-1.2691,-1.2583,-1.2447,-1.2305,-1.2393,-1.2406,-1.2264,-1.2359,-1.2372,-1.2257,-1.2108,-1.1965,-1.1837,-1.1694,-1.1619,-1.1619,-1.1735,-1.1796,-1.1796,-1.1925,-1.2074,-1.225,-1.2223,-1.225,-1.7802,-1.8249,-1.8525,-1.8241,-1.7567,-1.6714,-1.5723,0.0,0.0,0.0,-1.3222,-1.3181,-1.3457,-1.3433,0.0,-1.4911,-1.5082,-1.561,-1.7145,-1.7591,0.0,-1.9004,-1.9281,-1.9427,0.0,-1.9516,-1.9443,-1.9272,-1.9086,-1.898,-1.898,-1.8712,-1.8485,-1.8314,-1.8038,-1.7859,-1.7778,-1.777,-1.7681,-1.751,-1.7429,-1.7388,-1.738,-1.7193,-1.7112,-1.7112,-1.7112,-1.7063,-1.6982,-1.6806,-1.669,-1.6438,-1.6341,-1.6194,-1.5966,-1.5966,-1.5966,-1.5942,-1.5593,-1.5294,-1.5077,-1.4735,-1.4461,-1.421,-1.3901,-1.3774,-1.3519,-1.3133,-1.3109,-1.3092,-1.2934,-1.2908,-1.2983,-1.3051,-1.3071,-1.3051,-1.3056,-1.2901,-1.2827,-1.2752,-1.2739,-1.2739,-1.2739,-1.28,-1.2827,-1.2752,-1.2732,-1.2759,-1.284,-1.2718,-1.2596,-1.2528,-1.2508,-1.2508,-1.2522,-1.2583,-1.2589,-1.2522,-1.2372,-1.2223,-1.2074,-1.1932,-1.185,-1.185,-1.1918,-1.1952,-1.1952,-1.2026,-1.2142,-1.2291,-1.2291,-1.2332,-1.7997,-1.8395,-1.8663,-1.816,-1.738,-1.6378,-1.5423,-1.4456,0.0,-1.3376,-1.3197,-1.3206,-1.351,-1.3522,-1.3709,0.0,-1.4586,-1.5017,-1.6442,-1.7112,-1.7754,0.0,-1.9248,0.0,-1.9516,-1.9516,0.0,-1.9216,-1.8996,-1.8866,-1.8866,-1.8395,-1.8119,-1.8119,-1.7811,-1.7624,-1.7583,-1.7624,-1.7534,-1.7331,-1.7372,-1.7364,-1.7323,-1.7177,-1.7112,-1.7112,-1.7112,-1.7112,-1.7096,-1.6966,-1.6779,-1.6568,-1.6462,-1.6292,-1.6105,-1.6146,-1.6055,-1.5841,-1.5377,-1.5054,-1.4837,-1.426,-1.4039,-1.385,-1.3497,-1.3354,-1.3237,-1.3015,-1.2983,-1.301,-1.301,-1.303,-1.3085,-1.3193,-1.322,-1.318,-1.3037,-1.301,-1.2996,-1.305,-1.2963,-1.2963,-1.2963,-1.2983,-1.2996,-1.2969,-1.2881,-1.2868,-1.299,-1.2874,-1.2793,-1.282,-1.2718,-1.2684,-1.2773,-1.2807,-1.28,-1.2732,-1.2583,-1.244,-1.2298,-1.2142,-1.2135,-1.2135,-1.2094,-1.2108,-1.2108,-1.2142,-1.2216,-1.2338,-1.2338,-1.2393,-1.8265,-1.8671,-1.8866,-1.8493,-1.7372,-1.6121,-1.5212,0.0,-1.336,-1.3157,-1.3108,-1.3206,-1.351,-1.3558,-1.3855,-1.4586,0.0,-1.5074,-1.6194,-1.695,-1.7664,-1.8412,0.0,0.0,-1.9516,-1.9516,0.0,-1.9037,-1.8696,-1.8596,-1.8596,-1.8144,-1.794,-1.794,-1.7746,-1.7567,-1.7413,-1.7559,-1.7469,-1.7136,-1.7307,-1.7299,-1.7136,-1.712,-1.7112,-1.7112,-1.7112,-1.7112,0.0,-1.7096,-1.6885,-1.6592,-1.6747,-1.6592,-1.63,-1.647,-1.6177,-1.5706,-1.569,-1.4999,-1.4181,-1.3934,-1.3796,-1.3753,-1.3611,-1.3426,-1.3193,-1.3077,-1.3057,-1.3152,-1.3152,-1.3254,-1.3363,-1.3376,-1.3376,-1.3336,-1.3186,-1.3152,-1.3112,-1.2983,-1.2963,-1.2963,-1.2963,-1.3071,-1.3112,-1.2983,-1.3057,-1.3139,-1.3152,-1.303,-1.299,-1.3119,-1.3119,-1.3064,-1.2949,-1.3057,-1.3017,-1.2745,-1.2583,-1.244,-1.2298,-1.2142,-1.2135,-1.2135,-1.2196,-1.2271,-1.2271,-1.24,-1.2467,-1.2481,-1.2481,-1.2488,-1.7986,-1.8359,-1.8352,-1.8277,-1.7105,-1.5734,-1.4875,0.0,-1.2795,-1.2862,-1.2914,-1.3093,-1.3663,-1.3717,-1.3774,-1.4164,-1.414,-1.4367,-1.522,-1.5869,-1.6682,-1.7827,-1.8403,0.0,0.0,0.0,-1.9207,-1.885,-1.859,-1.8403,-1.829,-1.8054,-1.7916,-1.7916,-1.764,-1.7453,-1.7388,-1.7348,-1.725,-1.7112,-1.7185,-1.7185,-1.7112,-1.7112,-1.7112,-1.7112,-1.7112,-1.7112,0.0,-1.6998,-1.6812,-1.6584,-1.6315,-1.6103,-1.5829,-1.5748,-1.5601,-1.5362,-1.5004,-1.4587,-1.4173,-1.3686,-1.3555,-1.3528,-1.3376,-1.3288,-1.318,-1.3214,-1.3268,-1.3308,-1.3308,-1.3356,-1.3403,-1.3403,-1.3403,-1.3383,-1.3322,-1.3308,-1.3295,-1.3234,-1.3227,-1.3227,-1.3227,-1.3275,-1.3288,-1.3234,-1.3193,-1.3207,-1.3302,-1.318,-1.3146,-1.3295,-1.3152,-1.3057,-1.3085,-1.3139,-1.3085,-1.2881,-1.2813,-1.2671,-1.2427,-1.2359,-1.2325,-1.2325,-1.2386,-1.242,-1.242,-1.2474,-1.2501,-1.2501,-1.2501,-1.2501,-1.7142,-1.7614,-1.7726,-1.7752,-1.6681,-1.5354,0.0,-1.331,-1.2406,-1.275,-1.2819,-1.2974,-1.3695,-1.3766,-1.3742,-1.3815,-1.3766,-1.3928,-1.4538,-1.5139,-1.5926,0.0,0.0,-1.8144,0.0,-1.9037,-1.8996,-1.8744,-1.8501,-1.8314,-1.8184,-1.8014,-1.7892,-1.7835,-1.7543,-1.7364,-1.7307,-1.7177,-1.7112,-1.7112,-1.7112,-1.7112,-1.7112,-1.7112,-1.7112,-1.7112,-1.7112,-1.7112,0.0,-1.6838,-1.6779,-1.6572,-1.6144,-1.5895,-1.5732,-1.5474,-1.5246,-1.5015,-1.4557,-1.4288,-1.4021,-1.3582,-1.3437,-1.3383,-1.3275,-1.3268,-1.3322,-1.3383,-1.3403,-1.3403,-1.3403,-1.3403,-1.341,-1.3458,-1.3464,-1.3478,-1.3519,-1.3532,-1.3532,-1.3532,-1.3532,-1.3519,-1.3478,-1.3464,-1.3451,-1.341,-1.3308,-1.3281,-1.339,-1.3308,-1.3281,-1.339,-1.3214,-1.3132,-1.3234,-1.3241,-1.3159,-1.2976,-1.2963,-1.282,-1.2515,-1.2501,-1.2522,-1.2569,-1.2569,-1.2589,-1.2637,-1.2637,-1.2637,-1.2637,-1.2637,-1.2637,-1.5724,-1.6526,-1.7102,-1.6759,-1.598,-1.5025,-1.4336,-1.3218,-1.2406,-1.275,-1.2819,-1.2942,-1.3472,-1.3782,-1.3847,-1.3677,-1.379,-1.4026,-1.4383,-1.5057,0.0,0.0,0.0,-1.7404,-1.8119,-1.8517,-1.8728,-1.8728,-1.8387,0.0,-1.8176,-1.8014,-1.7835,-1.7648,-1.7478,-1.7299,-1.7112,-1.7112,-1.7112,-1.7112,-1.7112,-1.7112,-1.7112,-1.7112,-1.7112,-1.7112,-1.7112,-1.7112,0.0,-1.6838,-1.6766,-1.6766,-1.6238,-1.6065,-1.6081,-1.5813,-1.5337,-1.4771,-1.4771,-1.4307,-1.3627,-1.3627,-1.3526,-1.3403,-1.3397,-1.3505,-1.3593,-1.3444,-1.3403,-1.3403,-1.3403,-1.3403,-1.3437,-1.3593,-1.3627,-1.3661,-1.3804,-1.3838,-1.3838,-1.3838,-1.3838,-1.379,-1.3648,-1.3627,-1.3573,-1.3424,-1.3397,-1.3397,-1.3403,-1.3397,-1.3397,-1.3403,-1.3397,-1.3397,-1.3397,-1.3397,-1.3275,-1.2983,-1.2963,-1.282,-1.2515,-1.2501,-1.2576,-1.2725,-1.2725,-1.28,-1.2956,-1.2956,-1.2956,-1.2956,-1.2956,-1.2956,-1.4652,-1.4983,-1.5016,-1.5362,-1.4697,-1.3756,-1.3133,-1.2352,-1.1845,-1.236,-1.2475,-1.2666,-1.3472,-1.3623,-1.3639,-1.3582,-1.379,0.0,0.0,0.0,0.0,-1.5893,-1.7104,-1.7973,0.0,0.0,-1.8298,-1.8184,-1.8176,-1.8127,-1.8005,-1.7949,-1.7835,-1.7648,-1.7478,-1.7299,-1.7112,-1.7112,-1.7112,-1.7112,-1.7112,-1.7112,-1.7112,-1.7112,-1.7112,-1.7112,-1.7112,-1.7047,0.0,-1.6435,-1.6254,-1.616,-1.5414,-1.5119,-1.5133,-1.4861,-1.4625,-1.4481,-1.4371,-1.418,-1.3912,-1.381,-1.3743,-1.3702,-1.3702,-1.3593,-1.3464,-1.3417,-1.3478,-1.3559,-1.3559,-1.3559,-1.3593,-1.3736,-1.3777,-1.3783,-1.3831,-1.3838,-1.3838,-1.3838,-1.3838,-1.3824,-1.3783,-1.3777,-1.3756,-1.3709,-1.3702,-1.3668,-1.3566,-1.3641,-1.3627,-1.3424,-1.3492,-1.3512,-1.341,-1.3403,-1.3315,-1.3119,-1.3105,-1.3017,-1.282,-1.2813,-1.284,-1.2888,-1.2888,-1.2908,-1.2963,-1.2963,-1.2963,-1.2963,-1.2963,-1.2963,0.0,-1.3698,-1.3749,-1.4165,-1.3718,-1.2993,-1.2495,-1.1874,-1.1469,-1.2072,-1.2103,-1.2277,-1.321,-1.3408,-1.341,-1.3485,-1.3693,-1.3823,0.0,0.0,0.0,-1.5869,0.0,0.0,0.0,-1.8022,-1.803,-1.7924,-1.7949,-1.7924,-1.7819,-1.7754,-1.7664,-1.7551,-1.7445,-1.7299,-1.7112,-1.7112,-1.7112,-1.7112,-1.7112,-1.7112,-1.7112,-1.7112,-1.7112,-1.7112,-1.7112,-1.696,0.0,-1.627,-1.5956,-1.5744,-1.501,-1.4719,-1.4776,-1.4441,-1.4299,-1.4285,-1.419,-1.4122,-1.4055,-1.396,-1.3885,-1.3838,-1.3838,-1.3709,-1.358,-1.3634,-1.3682,-1.3709,-1.3709,-1.3709,-1.3743,-1.3892,-1.3926,-1.3946,-1.4,-1.4014,-1.4014,-1.4014,-1.4014,-1.3994,-1.3939,-1.3926,-1.3905,-1.3851,-1.3838,-1.381,-1.3722,-1.3783,-1.377,-1.3587,-1.3607,-1.3593,-1.3498,-1.3437,-1.3336,-1.3186,-1.3173,-1.3112,-1.305,-1.2963,-1.2983,-1.3037,-1.3044,-1.3071,-1.3125,-1.3125,-1.3125,-1.3125,-1.3125,-1.3125,0.0,-1.2483,-1.3013,-1.3034,-1.2903,-1.261,-1.2302,-1.1727,0.0,-1.1946,-1.1767,-1.1827,-1.2914,-1.3117,-1.3145,-1.3384,-1.3514,-1.3701,0.0,-1.4391,0.0,0.0,-1.6714,0.0,-1.7096,-1.7583,-1.7892,0.0,0.0,-1.764,-1.7624,-1.7478,-1.7388,-1.7388,-1.7372,-1.7283,-1.7112,-1.7112,-1.7104,-1.7096,-1.7104,-1.7104,-1.7096,-1.7104,-1.7112,0.0,-1.7096,-1.6825,0.0,-1.6127,-1.5897,-1.5587,-1.4922,-1.4783,-1.4911,-1.4476,-1.4299,-1.4299,-1.4299,-1.4204,-1.4089,-1.4089,-1.3987,-1.3871,-1.3871,-1.3865,-1.3885,-1.4021,-1.396,-1.3858,-1.3858,-1.3858,-1.3899,-1.4055,-1.4089,-1.4129,-1.4272,-1.4299,-1.4299,-1.4299,-1.4299,-1.4251,-1.4116,-1.4089,-1.4041,-1.3892,-1.3871,-1.3871,-1.3858,-1.3865,-1.3865,-1.3844,-1.3736,-1.3654,-1.3648,-1.3492,-1.3342,-1.32,-1.3186,-1.3132,-1.2996,-1.299,-1.3057,-1.3186,-1.3186,-1.3261,-1.3403,-1.3403,-1.3403,-1.3403,-1.3403,-1.3403,-1.0961,0.0,-1.1509,-1.1743,-1.1743,-1.1745,0.0,-1.1459,-1.1538,-1.2271,-1.1927,-1.1864,-1.3074,-1.3101,-1.2956,-1.3122,-1.3433,-1.359,-1.3631,0.0,0.0,-1.6475,-1.7055,-1.7218,-1.6942,-1.7396,0.0,0.0,0.0,-1.7583,-1.7453,-1.7413,-1.7388,-1.7388,-1.725,-1.7153,-1.7112,-1.7112,-1.7047,-1.683,-1.7047,-1.7039,-1.6917,-1.7047,-1.7112,-1.7104,-1.6974,-1.6562,-1.6119,-1.5726,-1.5307,-1.4915,-1.4569,-1.4441,-1.4476,-1.4299,-1.4299,-1.4299,-1.4299,-1.4278,-1.4245,-1.4245,-1.4224,-1.419,-1.419,-1.4109,-1.4,-1.3919,-1.3953,-1.4014,-1.4014,-1.4014,-1.4055,-1.4211,-1.4245,-1.4258,-1.4292,-1.4299,-1.4299,-1.4299,-1.4299,-1.4285,-1.4251,-1.4245,-1.4231,-1.4197,-1.419,-1.415,-1.4034,-1.4122,-1.4102,-1.3865,-1.3919,-1.3919,-1.3797,-1.3553,-1.3383,-1.3349,-1.3349,-1.3336,-1.3302,-1.3295,-1.3315,-1.3349,-1.3349,-1.3363,-1.3403,-1.3403,-1.3403,-1.3403,-1.3403,-1.3403,-1.0907,-1.0887,-1.0914,-1.1212,-1.1287,-1.1307,-1.1375,-1.1389,-1.1579,-1.2278,-1.179,-1.1646,-1.3026,-1.283,-1.2595,-1.3041,-1.3336,0.0,0.0,0.0,-1.5593,-1.6495,-1.6844,-1.7006,0.0,0.0,0.0,0.0,-1.7291,-1.7356,-1.7266,-1.7258,-1.7258,-1.7258,-1.7161,-1.7112,-1.7112,-1.7031,-1.6942,-1.6766,-1.686,-1.686,-1.6766,-1.686,-1.6958,-1.7104,-1.6925,-1.6459,-1.592,-1.5658,-1.5133,-1.4534,-1.4353,-1.4299,-1.4299,-1.4299,-1.4299,-1.4299,-1.4299,-1.4299,-1.4299,-1.4299,-1.4299,-1.4299,-1.4299,-1.4245,-1.4156,-1.4075,-1.4109,-1.4177,-1.4177,-1.4177,-1.4197,-1.4278,-1.4299,-1.4299,-1.4299,-1.4299,-1.4299,-1.4299,-1.4299,-1.4299,-1.4299,-1.4299,-1.4299,-1.4299,-1.4299,-1.4272,-1.419,-1.4251,-1.4238,-1.4068,-1.4061,-1.4041,-1.3953,-1.3736,-1.3573,-1.3512,-1.3505,-1.3505,-1.3505,-1.3437,-1.3403,-1.3403,-1.3403,-1.3403,-1.3403,-1.3403,-1.3403,-1.3403,-1.3403,-1.3403,-1.1077,-1.0928,-1.0819,-1.109,-1.1234,-1.1199,-1.1328,0.0,0.0,0.0,0.0,0.0,0.0,-1.251,0.0,0.0,0.0,0.0,-1.4529,-1.4919,-1.5431,-1.6251,-1.6535,0.0,0.0,0.0,0.0,0.0,-1.7112,-1.7112,-1.7112,-1.7112,-1.7112,-1.7112,-1.7112,-1.7096,-1.6984,-1.6838,-1.6766,-1.6766,-1.6698,-1.669,-1.6803,-1.6682,-1.6787,-1.6976,0.0,0.0,-1.5616,-1.5587,-1.5051,-1.4265,-1.4292,-1.4285,-1.4272,-1.4292,-1.4299,-1.4299,-1.4299,-1.4299,-1.4299,-1.4299,-1.4299,-1.4299,-1.4299,-1.4299,-1.4299,-1.4299,-1.4299,-1.4299,-1.4299,-1.4299,-1.4299,-1.4299,-1.4299,-1.4299,-1.4299,-1.4299,-1.4299,-1.4299,-1.4299,-1.4299,-1.4299,-1.4299,-1.4299,-1.4299,-1.4299,-1.4299,-1.4299,-1.4299,-1.4299,-1.4299,-1.4183,-1.4109,-1.4109,-1.3987,-1.3851,-1.3702,-1.3675,-1.3661,-1.3661,-1.3539,-1.3464,-1.3464,-1.3464,-1.3458,-1.3437,-1.3437,-1.3424,-1.3403,-1.3403,-1.3403,-1.0853,-1.0846,-1.0887,-1.1124,-1.1234,-1.1241,-1.1261,-1.1104,-1.1248,0.0,0.0,0.0,0.0,-1.2611,-1.2452,0.0,0.0,-1.4408,0.0,0.0,-1.604,-1.6487,0.0,0.0,0.0,0.0,0.0,0.0,-1.7112,-1.7112,-1.7112,-1.7112,-1.7112,-1.7112,-1.7112,-1.6864,-1.6364,-1.6695,-1.6766,-1.6766,-1.6741,-1.6747,-1.6625,-1.6755,-1.6577,-1.627,0.0,-1.5681,-1.5073,-1.4944,-1.4545,-1.4122,-1.4251,-1.4224,-1.4122,-1.4251,-1.4299,-1.4299,-1.4299,-1.4299,-1.4299,-1.4299,-1.4299,-1.4299,-1.4299,-1.4299,-1.4299,-1.4299,-1.4299,-1.4299,-1.4299,-1.4299,-1.4299,-1.4299,-1.4299,-1.4299,-1.4299,-1.4299,-1.4299,-1.4299,-1.4299,-1.4299,-1.4299,-1.4299,-1.4299,-1.4299,-1.4299,-1.4299,-1.4299,-1.4299,-1.4299,-1.4299,-1.4278,-1.4265,-1.4265,-1.4245,-1.4163,-1.4014,-1.3878,-1.381,-1.381,-1.3783,-1.3777,-1.3777,-1.3777,-1.3715,-1.3593,-1.3593,-1.3526,-1.3403,-1.3403,-1.3403,-1.1097,-1.1192,-1.1287,-1.1185,-1.1104,-1.1139,-1.142,-1.1386,-1.1495,-1.2185,0.0,0.0,0.0,0.0,-1.2666,-1.3761,0.0,-1.4846,-1.5536,-1.5788,-1.6032,0.0,0.0,0.0,0.0,0.0,0.0,0.0,-1.7112,-1.7071,-1.6974,-1.7055,-1.7023,-1.6828,-1.6657,-1.6451,-1.6012,-1.5926,-1.5794,-1.5794,-1.5693,-1.5655,-1.5755,-1.5655,-1.567,-1.5668,0.0,-1.5216,-1.475,-1.4764,-1.451,-1.4082,-1.415,-1.4183,-1.4204,-1.4272,-1.4299,-1.4299,-1.4299,-1.4299,-1.4299,-1.4299,-1.4299,-1.4299,-1.4299,-1.4299,-1.4299,-1.4299,-1.4299,-1.4299,-1.4299,-1.4299,-1.4299,-1.4299,-1.4299,-1.4299,-1.4299,-1.4299,-1.4299,-1.4299,-1.4299,-1.4299,-1.4299,-1.4299,-1.4299,-1.4299,-1.4299,-1.4299,-1.4299,-1.4299,-1.4299,-1.4299,-1.4299,-1.4299,-1.4299,-1.4299,-1.4238,-1.4082,-1.4007,-1.3926,-1.3759,-1.3919,-1.3926,-1.3844,-1.3838,-1.381,-1.3743,-1.3743,-1.3668,-1.3526,-1.3526,-1.3478,-1.1233,-1.1369,-1.1443,-1.1138,-1.1029,-1.1084,-1.157,-1.166,-1.1812,-1.233,-1.2005,0.0,0.0,-1.2696,0.0,-1.4552,-1.4984,-1.5317,-1.5764,-1.5943,-1.6146,-1.6454,-1.6617,0.0,0.0,0.0,0.0,-1.7112,-1.7071,-1.699,-1.6774,-1.6942,-1.686,-1.6592,-1.6285,-1.6012,-1.5663,-1.511,-1.4905,-1.511,-1.4855,-1.484,-1.4967,-1.4832,-1.4914,-1.5075,-1.499,-1.4756,-1.4458,-1.4492,-1.4347,-1.3973,-1.4007,-1.4109,-1.4251,-1.4285,-1.4299,-1.4299,-1.4299,-1.4299,-1.4299,-1.4299,-1.4299,-1.4299,-1.4299,-1.4299,-1.4299,-1.4299,-1.4299,-1.4299,-1.4299,-1.4299,-1.4299,-1.4299,-1.4299,-1.4299,-1.4299,-1.4299,-1.4299,-1.4299,-1.4299,-1.4299,-1.4299,-1.4299,-1.4299,-1.4299,-1.4299,-1.4299,-1.4299,-1.4299,-1.4299,-1.4299,-1.4299,-1.4299,-1.4299,-1.4299,-1.4251,-1.4136,-1.4122,-1.4075,-1.3953,-1.4061,-1.4068,-1.3953,-1.3946,-1.3933,-1.3892,-1.3892,-1.3817,-1.3682,-1.3682,-1.36,-1.088,-1.0975,-1.1124,-1.0826,-1.0955,-1.1248,-1.1457,-1.1496,-1.175,-1.2582,-1.2338,-1.2217,0.0,-1.3445,-1.4027,-1.483,-1.5382,-1.5959,-1.6657,0.0,-1.6844,-1.7031,-1.7063,0.0,0.0,0.0,0.0,-1.7112,-1.6966,-1.6782,-1.6766,-1.6706,-1.6609,-1.6584,-1.6158,-1.5655,-1.5073,-1.4554,-1.4619,-1.529,-1.5034,-1.4959,-1.4967,-1.4959,-1.4791,-1.4393,-1.4393,-1.4133,-1.3844,-1.3851,-1.3783,-1.3675,-1.3804,-1.3953,-1.4102,-1.4245,-1.4299,-1.4299,-1.4299,-1.4299,-1.4299,-1.4299,-1.4299,-1.4299,-1.4299,-1.4299,-1.4299,-1.4299,-1.4299,-1.4299,-1.4299,-1.4299,-1.4299,-1.4299,-1.4299,-1.4299,-1.4299,-1.4299,-1.4299,-1.4299,-1.4299,-1.4299,-1.4299,-1.4299,-1.4299,-1.4299,-1.4299,-1.4299,-1.4299,-1.4299,-1.4299,-1.4299,-1.4299,-1.4299,-1.4299,-1.4299,-1.4292,-1.4285,-1.4285,-1.4278,-1.4265,-1.4278,-1.4278,-1.4265,-1.4265,-1.4197,-1.4055,-1.4055,-1.3973,-1.3824,-1.3824,-1.3749,-1.084,-1.1009,-1.1118,-1.0914,-1.0948,-1.1104,-1.1549,-1.1909,-1.2182,-1.2138,-1.2602,-1.302,-1.3262,0.0,-1.4343,-1.5171,-1.5756,-1.6316,-1.6925,-1.7015,-1.7039,-1.7104,0.0,0.0,0.0,0.0,0.0,-1.7104,-1.6844,-1.6682,-1.6682,-1.6617,-1.6422,-1.6089,-1.5521,-1.5021,-1.4512,-1.386,-1.365,-1.3877,-1.3922,-1.3985,-1.3985,-1.3985,-1.3902,-1.3735,-1.3832,-1.3768,-1.3573,-1.3668,-1.3675,-1.3641,-1.3783,-1.3933,-1.4082,-1.4136,-1.4217,-1.4299,-1.4299,-1.4299,-1.4299,-1.4299,-1.4299,-1.4299,-1.4299,-1.4299,-1.4299,-1.4299,-1.4299,-1.4299,-1.4299,-1.4299,-1.4299,-1.4299,-1.4299,-1.4299,-1.4299,-1.4299,-1.4299,-1.4299,-1.4299,-1.4299,-1.4299,-1.4299,-1.4299,-1.4299,-1.4299,-1.3856,-1.2692,-1.3584,-1.385,-1.2597,-1.3584,-1.4299,-1.4299,-1.4299,-1.4299,-1.4299,-1.4299,-1.4299,-1.4299,-1.4299,-1.4299,-1.4299,-1.4299,-1.4272,-1.4211,-1.4211,-1.4136,-1.3987,-1.3987,-1.3905,-1.082,-1.0982,-1.1063,-1.0982,-1.0941,-1.1022,-1.1657,-1.2233,-1.2604,-1.2499,-1.3202,-1.3777,-1.365,0.0,0.0,0.0,-1.5918,-1.6495,-1.7031,0.0,0.0,0.0,0.0,0.0,0.0,0.0,0.0,-1.676,-1.658,-1.6386,-1.6077,-1.6105,-1.5881,-1.5377,-1.4749,-1.429,-1.3989,-1.3356,-1.2963,-1.2963,-1.3166,-1.3288,-1.3329,-1.3376,-1.3403,-1.3403,-1.3512,-1.3498,-1.341,-1.3512,-1.3559,-1.3573,-1.3715,-1.3865,-1.4007,-1.4055,-1.417,-1.4299,-1.4299,-1.4299,-1.4299,-1.4299,-1.4299,-1.4299,-1.4299,-1.4299,-1.4299,-1.4299,-1.4299,-1.4299,-1.4299,-1.4299,-1.4299,-1.4299,-1.4299,-1.4299,-1.4299,-1.4299,-1.4299,-1.4299,-1.4299,-1.4299,-1.4299,-1.4299,-1.4122,-1.3496,-1.3401,-1.2692,-1.0728,-1.2154,-1.3135,-1.242,-1.3496,-1.4299,-1.4299,-1.4299,-1.4299,-1.4299,-1.4299,-1.4299,-1.4299,-1.4299,-1.4299,-1.4299,-1.4299,-1.4299,-1.4299,-1.4299,-1.4245,-1.4143,-1.4143,-1.3707,-1.0758,-1.0833,-1.0975,-1.1157,-1.0923,-1.0947,-1.1903,-1.2466,-1.3039,-1.392,-1.4128,-1.418,-1.4188,-1.4326,0.0,-1.5155,-1.5837,-1.6487,-1.7031,0.0,0.0,0.0,0.0,0.0,0.0,0.0,-1.6406,-1.5895,-1.6145,-1.5886,-1.4893,-1.5046,-1.4958,-1.4316,-1.3822,-1.3582,-1.3582,-1.3189,-1.3036,-1.3036,-1.3036,-1.303,-1.318,-1.3329,-1.3397,-1.3403,-1.3403,-1.3403,-1.3403,-1.3403,-1.3403,-1.3417,-1.3566,-1.3715,-1.3858,-1.4014,-1.4163,-1.4299,-1.4299,-1.4299,-1.4299,-1.4299,-1.4299,-1.4299,-1.4299,-1.4299,-1.4299,-1.4299,-1.4299,-1.4299,-1.4299,-1.4299,-1.4299,-1.4299,-1.4299,-1.4299,-1.4299,-1.4299,-1.4299,-1.4299,-1.4299,-1.4299,-1.4299,-1.4299,-1.3584,-1.1705,-1.1349,-1.0728,-0.8854,-1.0189,-1.2154,-1.4122,-1.4299,-1.4299,-1.4299,-1.4299,-1.4299,-1.4299,-1.4299,-1.4299,-1.4299,-1.4299,-1.4299,-1.4299,-1.4299,-1.4299,-1.4299,-1.4299,-1.4299,-1.4299,-1.421,-1.3148,-1.0731,-1.1034,-1.1251,-1.0958,0.0,-1.1657,-1.1981,-1.2165,-1.2726,-1.4051,-1.416,-1.4136,-1.4684,-1.4773,0.0,-1.5366,-1.5821,-1.6267,-1.6682,0.0,0.0,0.0,0.0,0.0,0.0,0.0,-1.5386,-1.5453,-1.5066,-1.4853,-1.4788,-1.4614,-1.4388,-1.4136,-1.3663,-1.3376,-1.3262,-1.2871,-1.2637,-1.2637,-1.2745,-1.2929,-1.3173,-1.322,-1.3302,-1.3403,-1.3403,-1.3403,-1.3403,-1.3403,-1.3403,-1.3403,-1.3451,-1.3559,-1.3709,-1.3858,-1.4007,-1.4156,-1.4265,-1.4299,-1.4299,-1.4299,-1.4299,-1.4299,-1.4299,-1.4299,-1.4299,-1.4299,-1.4299,-1.4299,-1.4299,-1.4299,-1.4299,-1.4299,-1.4299,-1.4299,-1.4299,-1.4299,-1.4299,-1.4299,-1.4299,-1.4299,-1.4299,-1.3135,-1.2065,-1.1527,-1.0278,-0.9744,-1.0461,-0.9922,-1.0639,-1.3945,-1.4299,-1.4299,-1.4299,-1.4299,-1.4299,-1.4299,-1.4299,-1.4299,-1.4299,-1.4299,-1.4299,-1.4299,-1.4299,-1.4299,-1.4299,-1.2958,-1.2243,-1.2243,-1.0905,-0.9997,-1.0937,-1.1294,0.0,-1.1301,-1.1672,-1.2175,-1.2299,0.0,0.0,0.0,-1.4851,-1.4697,-1.5147,-1.5065,0.0,-1.5455,-1.5756,-1.6064,-1.6422,0.0,0.0,0.0,0.0,0.0,0.0,0.0,-1.4773,-1.4644,-1.446,-1.4208,-1.4018,-1.3924,-1.3712,-1.3332,-1.3099,-1.2902,-1.2804,-1.2574,-1.2447,-1.2501,-1.1888,-1.1732,-1.2024,-1.2815,-1.3166,-1.3315,-1.3376,-1.3403,-1.3403,-1.3403,-1.3403,-1.3403,-1.3403,-1.3492,-1.3648,-1.379,-1.3939,-1.4095,-1.4245,-1.4299,-1.4299,-1.4299,-1.4299,-1.4299,-1.4299,-1.4299,-1.4299,-1.4299,-1.4299,-1.4299,-1.4299,-1.4299,-1.4299,-1.4299,-1.4299,-1.4299,-1.4299,-1.4299,-1.4299,-1.4299,-1.4299,-1.4033,-1.3318,-1.2154,-1.0905,-0.9388,-0.7517,-0.6984,-0.8854,-0.8854,-0.9744,-1.2781,-1.385,-1.4033,-1.3224,-1.3135,-1.3135,-1.3135,-1.242,-1.2692,-1.421,-1.4299,-1.3584,-1.2065,-1.2781,-1.2781,-1.2065,-1.0816,-1.0278,-1.0278,-0.9121,-0.823,-1.1311,-1.165,-1.2037,-1.2052,-1.2194,0.0,-1.2854,-1.3946,-1.5129,-1.5982,0.0,-1.5512,-1.5433,-1.5244,-1.5122,-1.5384,-1.565,-1.5853,-1.6162,0.0,0.0,0.0,0.0,0.0,0.0,-1.4764,-1.4445,-1.3547,-1.3851,-1.3706,-1.2698,-1.3084,-1.3028,-1.2277,-1.2284,-1.2284,-1.2271,-1.2271,-1.2262,-1.2249,-1.069,-0.9974,-1.0019,-1.1745,-1.2695,-1.2935,-1.2903,-1.2969,-1.3148,-1.2982,-1.2899,-1.2899,-1.3065,-1.3234,-1.3374,-1.3698,-1.3933,-1.4075,-1.4062,-1.4122,-1.421,-1.385,-1.4033,-1.4299,-1.4122,-1.4122,-1.4299,-1.4299,-1.421,-1.4033,-1.4033,-1.4033,-1.4033,-1.4033,-1.421,-1.4299,-1.4299,-1.4299,-1.4299,-1.4299,-1.4122,-1.3496,-1.1705,-1.1083,-0.9655,-0.6001,-0.4037,-0.368,-0.5733,-0.7517,-0.9388,-1.1438,-1.3224,-1.3496,-1.1527,-1.1438,-1.1349,-1.1172,-0.9566,-1.01,-1.3407,-1.3673,-1.2243,-0.8943,-1.0367,-1.0283,-0.8587,-0.8409,-0.8319,-0.8319,-0.8141,-0.716,-1.1447,-1.1818,0.0,0.0,-1.2748,-1.3509,-1.4113,-1.4664,-1.5017,-1.4694,-1.5065,-1.5433,-1.5114,-1.5209,-1.5344,-1.5098,-1.5305,-1.5545,-1.548,-1.5528,0.0,0.0,0.0,0.0,0.0,-1.3568,-1.3362,-1.2759,-1.2726,-1.265,-1.2386,-1.2463,-1.245,-1.2115,-1.223,-1.223,-1.2115,-1.2108,-1.1573,0.0,-1.0015,-0.9233,-0.8094,-0.8586,-0.9693,-1.1201,-0.9748,-0.9973,-1.1142,-0.9721,-0.9137,-0.9304,-1.0726,-1.1326,-1.1545,-1.3226,-1.3865,-1.3667,-1.2425,-1.3046,-1.385,-1.0816,-1.1888,-1.4033,-1.2509,-1.3046,-1.4299,-1.4299,-1.3224,-1.1976,-1.1976,-1.1976,-1.1976,-1.1976,-1.3224,-1.4299,-1.4299,-1.4299,-1.4299,-1.4299,-1.3046,-1.1888,-1.1438,-0.8943,-0.618,-0.3859,-0.3143,-0.4126,-0.7517,-0.8319,-0.9922,-1.3312,-1.4033,-1.3496,-1.1527,-1.1438,-1.0728,-0.9299,-0.8854,-0.8319,-0.7606,-0.9032,-1.01,-1.0816,-0.9744,-0.9032,-0.8587,-0.707,-0.6359,-0.627,-0.4841,-0.3857,-1.1489,0.0,0.0,-1.262,0.0,-1.378,-1.437,-1.4702,-1.4721,-1.4386,-1.4919,-1.5329,-1.4845,-1.4995,-1.5096,-1.4712,-1.4953,-1.502,-1.4684,-1.4911,0.0,0.0,0.0,0.0,0.0,-1.2977,-1.2838,-1.2374,-1.2223,-1.2182,-1.2182,-1.2182,-1.2108,-1.1959,-1.2026,-1.2033,-1.1952,-1.2026,-1.1302,-0.9824,-0.9039,-0.7468,-0.5176,-0.6933,-0.8321,-0.9241,-0.8354,-0.8505,-0.9304,-0.8386,-0.7968,-0.8136,-0.9054,-0.9388,-0.9574,-1.0752,-1.1196,-1.1101,-1.0322,-1.0682,-1.1261,-0.921,-0.9922,-1.1527,-1.1438,-1.1438,-1.1799,-1.2692,-1.1527,-1.01,-1.01,-1.01,-1.0278,-1.1172,-1.2154,-1.3135,-1.4122,-1.3584,-1.3224,-1.4122,-1.2692,-1.1083,-1.0189,-0.6895,-0.4037,-0.3053,-0.2874,-0.3947,-0.6803,-0.7249,-0.8319,-1.1261,-1.1533,-1.0816,-0.8854,-0.8676,-0.823,-0.7249,-0.6359,-0.627,-0.707,-0.627,-0.6359,-0.7338,-0.7249,-0.6806,-0.5912,-0.4841,-0.4395,-0.4305,-0.3321,-0.2874,-1.1518,0.0,-1.2308,-1.2975,-1.3412,0.0,-1.4309,-1.4432,-1.4432,-1.4432,-1.4911,-1.5128,-1.4501,-1.4592,-1.4649,-1.4275,-1.4302,-1.435,-1.4093,0.0,0.0,0.0,0.0,0.0,0.0,-1.2703,-1.2487,-1.2067,-1.2006,-1.2013,-1.1986,-1.2006,-1.1952,-1.1796,-1.1816,-1.1816,-1.1796,-1.1649,-1.0883,-0.9335,-0.7537,-0.5173,-0.2595,-0.554,-0.7051,-0.7382,-0.7128,-0.7285,-0.7547,-0.7212,-0.7048,-0.7129,-0.7463,-0.7547,-0.7642,-0.8146,-0.8321,-0.8239,-0.807,-0.8244,-0.8498,-0.7874,-0.8052,-0.8854,-1.0011,-0.9566,-0.8943,-1.0461,-0.9566,-0.8141,-0.8141,-0.8141,-0.8498,-1.0011,-1.0456,-1.1172,-1.3761,-1.2514,-1.1527,-1.3407,-1.1976,-0.9833,-0.7963,-0.502,-0.2874,-0.2874,-0.2874,-0.368,-0.5912,-0.5912,-0.6538,-0.8854,-0.8765,-0.7784,-0.5823,-0.5733,-0.5554,-0.5199,-0.3769,-0.4305,-0.7517,-0.4574,-0.2874,-0.2874,-0.4395,-0.4485,-0.2874,-0.2874,-0.2874,-0.2874,-0.2874,-0.2874,0.0,0.0,-1.299,0.0,-1.3619,-1.3954,0.0,0.0,-1.4432,0.0,-1.4505,-1.4346,-1.3581,-1.3775,-1.3909,-1.3469,-1.3454,0.0,0.0,0.0,0.0,0.0,0.0,0.0,0.0,0.0,0.0,0.0,-1.1789,-1.1809,-1.1687,-1.1796,-1.1796,-1.1653,-1.1769,-1.1775,-1.1647,-1.0316,-0.8958,-0.741,-0.4575,-0.2906,-0.2517,-0.3056,-0.4142,-0.5523,-0.3954,-0.4246,-0.5622,-0.4034,-0.3447,-0.3532,-0.5119,-0.5706,-0.5966,-0.7638,-0.8321,-0.8066,-0.6586,-0.7187,-0.8052,-0.4753,-0.5912,-0.8319,-0.6895,-0.7427,-0.8676,-0.8943,-0.7606,-0.6091,-0.6091,-0.6091,-0.618,-0.6359,-0.6448,-0.7874,-1.3135,-1.1527,-0.9566,-1.1438,-0.8943,-0.5823,-0.3949,-0.3231,-0.2874,-0.2874,-0.2874,-0.4216,-0.7784,-0.6713,-0.707,-1.0639,-0.9566,-0.7784,-0.5823,-0.5733,-0.502,-0.3411,-0.3053,-0.3143,-0.368,-0.3143,-0.2874,-0.2874,-0.3143,-0.3143,-0.2874,-0.2874,-0.2874,-0.2874,-0.2874,-0.2874,-1.1121,-1.17,-1.2395,0.0,-1.3115,-1.3491,-1.3752,0.0,-1.3839,-1.3839,-1.3839,-1.3714,-1.3213,-1.3402,-1.3382,0.0,0.0,0.0,0.0,0.0,0.0,0.0,0.0,0.0,0.0,0.0,0.0,0.0,-1.1681,-1.1687,-1.1619,-1.1681,-1.1687,-1.1619,-1.08,-1.0366,-1.0311,-0.8887,-0.7402,-0.5935,-0.3591,-0.2514,-0.2517,-0.2575,-0.3007,-0.374,-0.2983,-0.3097,-0.3866,-0.3027,-0.2692,-0.2777,-0.3614,-0.3866,-0.3952,-0.4813,-0.5215,-0.5123,-0.4368,-0.4686,-0.5109,-0.3411,-0.4037,-0.5467,-0.5644,-0.5557,-0.5644,-0.6716,-0.5644,-0.4126,-0.4126,-0.4126,-0.4395,-0.5467,-0.493,-0.5378,-1.01,-0.8943,-0.7249,-0.8052,-0.6892,-0.5109,-0.3233,-0.2874,-0.2874,-0.2874,-0.2874,-0.3859,-0.6627,-0.5288,-0.5199,-0.7874,-0.6538,-0.502,-0.4216,-0.4126,-0.3769,-0.2964,-0.2874,-0.2874,-0.2874,-0.2874,-0.2874,-0.2874,-0.2874,-0.2874,-0.2874,-0.2874,-0.2874,-0.2874,-0.2874,-0.2874,0.0,0.0,-1.1805,-1.2391,-1.2781,-1.3129,0.0,0.0,-1.3425,0.0,-1.3368,-1.3274,-1.2978,-1.3042,0.0,0.0,0.0,0.0,0.0,0.0,0.0,0.0,0.0,0.0,0.0,0.0,0.0,0.0,-1.1619,-1.1397,-1.1038,-1.1038,-1.0815,-1.0455,-0.9291,-0.8724,-0.8677,-0.7331,-0.5826,-0.4312,-0.3062,-0.2514,-0.2517,-0.2575,-0.2601,-0.2605,-0.2665,-0.2692,-0.2692,-0.2692,-0.2692,-0.2692,-0.2692,-0.2698,-0.2703,-0.2703,-0.2743,-0.2795,-0.2795,-0.283,-0.2874,-0.2874,-0.2874,-0.3143,-0.4574,-0.4037,-0.3233,-0.4574,-0.3947,-0.2874,-0.2874,-0.2874,-0.3233,-0.4662,-0.3947,-0.368,-0.6538,-0.6359,-0.5557,-0.5109,-0.502,-0.4572,-0.3143,-0.2874,-0.2874,-0.2874,-0.2874,-0.359,-0.5467,-0.4037,-0.359,-0.5465,-0.4037,-0.2874,-0.2874,-0.2874,-0.2874,-0.2874,-0.2874,-0.2874,-0.2874,-0.2874,-0.2874,-0.2874,-0.2874,-0.2874,-0.2874,-0.2874,-0.2874,-0.2874,-0.2874,-0.2874,0.0,-1.1519,0.0,-1.3054,-1.3101,0.0,0.0,0.0,0.0,0.0,-1.3368,-1.3259,0.0,0.0,0.0,0.0,0.0,0.0,0.0,0.0,0.0,0.0,0.0,0.0,0.0,0.0,0.0,0.0,-1.1619,-1.0966,-0.9507,-0.9435,-0.8781,-0.7259,-0.7187,-0.7156,-0.7096,-0.5689,-0.4181,-0.2592,-0.2514,-0.2514,-0.2517,-0.2575,-0.2601,-0.2605,-0.2665,-0.2692,-0.2692,-0.2692,-0.2692,-0.2692,-0.2692,-0.271,-0.2735,-0.2735,-0.2774,-0.2826,-0.2826,-0.2846,-0.2874,-0.2874,-0.2874,-0.2874,-0.3053,-0.2964,-0.2964,-0.3053,-0.2964,-0.2874,-0.2874,-0.2874,-0.2964,-0.3053,-0.2964,-0.2964,-0.3143,-0.4485,-0.5199,-0.3411,-0.3053,-0.3053,-0.2874,-0.2874,-0.2874,-0.2874,-0.2874,-0.359,-0.5467,-0.4037,-0.359,-0.5465,-0.4037,-0.2874,-0.2874,-0.2874,-0.2874,-0.2874,-0.2874,-0.2874,-0.2874,-0.2874,-0.2874,-0.2874,-0.2874,-0.2874,-0.2874,-0.2874,-0.2874,-0.2874,-0.2874,-0.2874,0.0,0.0,0.0,-1.2549,-1.2604,-1.2597,-1.3166,-1.3178,-1.3141,-1.3162,-1.3287,0.0,0.0,0.0,0.0,0.0,0.0,0.0,0.0,0.0,0.0,0.0,0.0,0.0,0.0,0.0,0.0,0.0,0.0,-0.8853,-0.9291,-0.8348,-0.7548,-0.7042,-0.6032,-0.507,-0.4054,-0.3591,-0.3025,-0.2514,-0.2514,-0.2525,-0.2545,-0.2583,-0.2612,-0.2632,-0.2675,-0.2692,-0.2692,-0.2692,-0.2692,-0.2692,-0.2692,-0.2712,-0.2737,-0.2737,-0.2776,-0.2829,-0.2829,-0.2848,-0.2874,-0.2874,-0.2874,-0.2874,-0.2874,-0.2874,-0.2874,-0.2874,-0.2874,-0.2874,-0.2874,-0.2874,-0.2874,-0.2874,-0.2874,-0.2874,-0.2874,-0.3411,-0.368,-0.3053,-0.2874,-0.2874,-0.2874,-0.2874,-0.2874,-0.2874,-0.2874,-0.3143,-0.3859,-0.3323,-0.3143,-0.3859,-0.3323,-0.2874,-0.2874,-0.2874,-0.2874,-0.2874,-0.2874,-0.2874,-0.2874,-0.2874,-0.2874,-0.2874,-0.2874,-0.2874,-0.2874,-0.2874,-0.2874,-0.2874,-0.2874,-0.2874,-1.1153,0.0,0.0,0.0,0.0,-1.2422,-1.2855,0.0,-1.2764,-1.2728,0.0,0.0,0.0,0.0,0.0,0.0,0.0,0.0,0.0,0.0,0.0,0.0,0.0,0.0,0.0,0.0,0.0,0.0,0.0,0.0,-0.7693,-0.6753,-0.5956,-0.5449,-0.4475,-0.3423,-0.2423,-0.2463,-0.2495,-0.2514,-0.2514,-0.253,-0.256,-0.2589,-0.2619,-0.2566,-0.2679,-0.2692,-0.2692,-0.2692,-0.2692,-0.2692,-0.2692,-0.2717,-0.2754,-0.2754,-0.2792,-0.2844,-0.2844,-0.2857,-0.2874,-0.2874,-0.2874,-0.2874,-0.2874,-0.2874,-0.2874,-0.2874,-0.2874,-0.2874,-0.2874,-0.2874,-0.2874,-0.2874,-0.2874,-0.2874,-0.2874,-0.2874,-0.2874,-0.2874,-0.2874,-0.2874,-0.2874,-0.2874,-0.2874,-0.2874,-0.2874,-0.2874,-0.2874,-0.2874,-0.2874,-0.2874,-0.2874,-0.2874,-0.2874,-0.2874,-0.2874,-0.2874,-0.2874,-0.2874,-0.2874,-0.2874,-0.2874,-0.2874,-0.2874,-0.2874,-0.2874,-0.2874,-0.2874,-0.2874,-0.2874,-0.2874,0.0,0.0,0.0,0.0,0.0,0.0,-1.2621,0.0,-1.2635,0.0,0.0,0.0,0.0,0.0,0.0,0.0,0.0,0.0,0.0,0.0,0.0,0.0,0.0,0.0,0.0,0.0,0.0,0.0,-0.762,-0.6166,-0.4799,-0.4657,-0.3932,-0.2333,-0.2391,-0.2424,-0.2424,-0.2484,-0.2515,-0.2515,-0.2515,-0.2532,-0.2563,-0.259,-0.2619,-0.2567,-0.2679,-0.2692,-0.2692,-0.2692,-0.2692,-0.2692,-0.2694,-0.2731,-0.2784,-0.2784,-0.2823,-0.2874,-0.2874,-0.2874,-0.2874,-0.2874,-0.2874,-0.2874,-0.2874,-0.2874,-0.2874,-0.2874,-0.2874,-0.2874,-0.2874,-0.2874,-0.2874,-0.2874,-0.2874,-0.2874,-0.2874,-0.2874,-0.2874,-0.2874,-0.2874,-0.2874,-0.2874,-0.2874,-0.2874,-0.2874,-0.2874,-0.2874,-0.2874,-0.2874,-0.2874,-0.2874,-0.2874,-0.2874,-0.2874,-0.2874,-0.2874,-0.2874,-0.2874,-0.2874,-0.2874,-0.2874,-0.2874,-0.2874,-0.2874,-0.2874,-0.2874,-0.2874,-0.2874,-0.2874,-0.2874,-0.2874,-1.2301,0.0,0.0,0.0,0.0,0.0,0.0,0.0,0.0,0.0,0.0,0.0,0.0,0.0,0.0,0.0,0.0,0.0,0.0,0.0,0.0,0.0,0.0,0.0,0.0,0.0,0.0,0.0,-0.5065,-0.3879,-0.4654,-0.3569,-0.277,-0.2333,-0.2391,-0.2424,-0.2424,-0.2484,-0.2526,-0.2547,-0.2547,-0.2574,-0.2623,-0.2631,-0.2652,-0.268,-0.2688,-0.2692,-0.2692,-0.2692,-0.2692,-0.2695,-0.2717,-0.2748,-0.2787,-0.2808,-0.2841,-0.2874,-0.2874,-0.2874,-0.2874,-0.2874,-0.2874,-0.2874,-0.2874,-0.2874,-0.2874,-0.2874,-0.2874,-0.2874,-0.2874,-0.2874,-0.2874,-0.2874,-0.2874,-0.2874,-0.2874,-0.2874,-0.2874,-0.2874,-0.2874,-0.2874,-0.2874,-0.2874,-0.2874,-0.2874,-0.2874,-0.2874,-0.2874,-0.2874,-0.2874,-0.2874,-0.2874,-0.2874,-0.2874,-0.2874,-0.2874,-0.2874,-0.2874,-0.2874,-0.2874,-0.2874,-0.2874,-0.2874,-0.2874,-0.2874,-0.2874,-0.2874,-0.2874,-0.2874,-0.2874,-0.2874,-1.2604,-1.2873,-1.307,-1.2958,0.0,0.0,-1.2914,-1.264,0.0,0.0,0.0,0.0,0.0,0.0,0.0,0.0,0.0,0.0,0.0,0.0,0.0,0.0,0.0,0.0,0.0,-0.5691,-0.4742,-0.5696,-0.3645,-0.2734,-0.3639,-0.2842,-0.2333,-0.2333,-0.2391,-0.2424,-0.2424,-0.2484,-0.253,-0.264,-0.264,-0.259,-0.2565,-0.2565,-0.2664,-0.2692,-0.2692,-0.2692,-0.2692,-0.2692,-0.2692,-0.2695,-0.2727,-0.2757,-0.2787,-0.2818,-0.2848,-0.2874,-0.2874,-0.2874,-0.2874,-0.2874,-0.2874,-0.2874,-0.2874,-0.2874,-0.2874,-0.2874,-0.2874,-0.2874,-0.2874,-0.2874,-0.2874,-0.2874,-0.2874,-0.2874,-0.2874,-0.2874,-0.2874,-0.2874,-0.2874,-0.2874,-0.2874,-0.2874,-0.2874,-0.2874,-0.2874,-0.2874,-0.2874,-0.2874,-0.2874,-0.2874,-0.2874,-0.2874,-0.2874,-0.2874,-0.2874,-0.2874,-0.2874,-0.2874,-0.2874,-0.2874,-0.2874,-0.2874,-0.2874,-0.2874,-0.2874,-0.2874,-0.2874,-0.2874,-0.2874,-0.2874,-1.2615,-1.299,-1.3356,-1.2988,-1.3006,0.0,-1.2696,-1.2562,-1.23,0.0,0.0,0.0,0.0,0.0,0.0,0.0,0.0,0.0,0.0,0.0,0.0,0.0,0.0,0.0,-0.6461,-0.4972,-0.4153,-0.4142,-0.3009,-0.2307,-0.2331,-0.2333,-0.2333,-0.2333,-0.2391,-0.2424,-0.2424,-0.2484,-0.253,-0.264,-0.2563,-0.2593,-0.2565,-0.2567,-0.2667,-0.2692,-0.2692,-0.2692,-0.2692,-0.2692,-0.2692,-0.2695,-0.2727,-0.2757,-0.2787,-0.2818,-0.2848,-0.2874,-0.2874,-0.2874,-0.2874,-0.2874,-0.2874,-0.2874,-0.2874,-0.2874,-0.2874,-0.2874,-0.2874,-0.2874,-0.2874,-0.2874,-0.2874,-0.2874,-0.2874,-0.2874,-0.2874,-0.2874,-0.2874,-0.2874,-0.2874,-0.2874,-0.2874,-0.2874,-0.2874,-0.2874,-0.2874,-0.2874,-0.2874,-0.2874,-0.2874,-0.2874,-0.2874,-0.2874,-0.2874,-0.2874,-0.2874,-0.2874,-0.2874,-0.2874,-0.2874,-0.2874,-0.2874,-0.2874,-0.2874,-0.2874,-0.2874,-0.2874,-0.2874,-0.2874,-0.2874,-0.2874,-1.3136,-1.3468,-1.3766,-1.348,-1.3493,0.0,-1.3097,-1.2756,-1.2427,0.0,0.0,0.0,0.0,0.0,0.0,0.0,0.0,0.0,0.0,0.0,0.0,0.0,0.0,0.0,-0.5051,-0.3616,-0.262,-0.2681,-0.247,-0.2327,-0.2333,-0.2333,-0.2333,-0.2333,-0.2391,-0.2424,-0.2424,-0.2484,-0.253,-0.256,-0.2583,-0.2612,-0.2565,-0.2672,-0.2687,-0.2692,-0.2692,-0.2692,-0.2692,-0.2692,-0.2692,-0.2695,-0.2727,-0.2757,-0.2787,-0.2818,-0.2848,-0.2874,-0.2874,-0.2874,-0.2874,-0.2874,-0.2874,-0.2874,-0.2874,-0.2874,-0.2874,-0.2874,-0.2874,-0.2874,-0.2874,-0.2874,-0.2874,-0.2874,-0.2874,-0.2874,-0.2874,-0.2874,-0.2874,-0.2874,-0.2874,-0.2874,-0.2874,-0.2874,-0.2874,-0.2874,-0.2874,-0.2874,-0.2874,-0.2874,-0.2874,-0.2874,-0.2874,-0.2874,-0.2874,-0.2874,-0.2874,-0.2874,-0.2874,-0.2874,-0.2874,-0.2874,-0.2874,-0.2874,-0.2874,-0.2874,-0.2874,-0.2874,-0.2874,-0.2874,-0.2874,-0.2874,-1.2968,-1.3182,-1.3381,-1.3436,-1.3428,0.0,0.0,-1.2887,-1.2463,-1.1985,-1.1636,0.0,0.0,0.0,0.0,0.0,0.0,0.0,0.0,0.0,0.0,0.0,0.0,0.0,-0.3567,-0.2737,-0.2229,-0.2331,-0.2333,-0.2333,-0.2333,-0.2333,-0.2333,-0.2333,-0.2391,-0.2424,-0.2424,-0.2484,-0.253,-0.256,-0.2589,-0.2617,-0.2565,-0.2679,-0.2692,-0.2692,-0.2692,-0.2692,-0.2692,-0.2692,-0.2692,-0.2695,-0.2727,-0.2747,-0.2766,-0.2812,-0.2838,-0.2853,-0.2868,-0.2874,-0.2874,-0.2874,-0.2874,-0.2874,-0.2874,-0.2874,-0.2874,-0.2874,-0.2874,-0.2874,-0.2874,-0.2874,-0.2874,-0.2874,-0.2874,-0.2874,-0.2874,-0.2874,-0.2874,-0.2874,-0.2874,-0.2874,-0.2874,-0.2874,-0.2874,-0.2874,-0.2874,-0.2874,-0.2874,-0.2874,-0.2874,-0.2874,-0.2874,-0.2874,-0.2874,-0.2874,-0.2874,-0.2874,-0.2874,-0.2874,-0.2874,-0.2874,-0.2874,-0.2874,-0.2874,-0.2874,-0.2874,-0.2874,-0.2874,-0.2874,-0.2874,-0.2874,-1.2654,-1.2798,-1.2884,-1.3202,-1.3159,-1.313,0.0,0.0,0.0,-1.1911,-1.1518,0.0,0.0,0.0,0.0,0.0,0.0,0.0,0.0,0.0,0.0,0.0,0.0,0.0,-0.2397,-0.233,-0.2333,-0.2333,-0.2333,-0.2333,-0.2333,-0.2333,-0.2333,-0.2333,-0.2391,-0.2424,-0.2424,-0.2484,-0.2526,-0.2552,-0.2586,-0.2615,-0.2639,-0.2676,-0.2692,-0.2692,-0.2692,-0.2692,-0.2692,-0.2692,-0.2692,-0.2695,-0.2727,-0.2742,-0.2754,-0.2808,-0.2833,-0.2841,-0.2866,-0.2874,-0.2874,-0.2874,-0.2874,-0.2874,-0.2874,-0.2874,-0.2874,-0.2874,-0.2874,-0.2874,-0.2874,-0.2874,-0.2874,-0.2874,-0.2874,-0.2874,-0.2874,-0.2874,-0.2874,-0.2874,-0.2874,-0.2874,-0.2874,-0.2874,-0.2874,-0.2874,-0.2874,-0.2874,-0.2874,-0.2874,-0.2874,-0.2874,-0.2874,-0.2874,-0.2874,-0.2874,-0.2874,-0.2874,-0.2874,-0.2874,-0.2874,-0.2874,-0.2874,-0.2874,-0.2874,-0.2874,-0.2874,-0.2874,-0.2874,-0.2874,-0.2874,-0.2874,-1.2431,-1.2685,0.0,0.0,-1.3147,-1.2974,-1.2802,0.0,-1.234,-1.1833,0.0,0.0,0.0,0.0,0.0,0.0,0.0,0.0,0.0,0.0,0.0,0.0,0.0,0.0,0.0,-0.2318,-0.2333,-0.2333,-0.2333,-0.2333,-0.2333,-0.2333,-0.2333,-0.2333,-0.2391,-0.2424,-0.2424,-0.2484,-0.2517,-0.2521,-0.2575,-0.2604,-0.2608,-0.2667,-0.2692,-0.2692,-0.2692,-0.2692,-0.2692,-0.2692,-0.2692,-0.2695,-0.2727,-0.2754,-0.2782,-0.2816,-0.2845,-0.287,-0.2872,-0.2874,-0.2874,-0.2874,-0.2874,-0.2874,-0.2874,-0.2874,-0.2874,-0.2874,-0.2874,-0.2874,-0.2874,-0.2874,-0.2874,-0.2874,-0.2874,-0.2874,-0.2874,-0.2874,-0.2874,-0.2874,-0.2874,-0.2874,-0.2874,-0.2874,-0.2874,-0.2874,-0.2874,-0.2874,-0.2874,-0.2874,-0.2874,-0.2874,-0.2874,-0.2874,-0.2874,-0.2874,-0.2874,-0.2874,-0.2874,-0.2874,-0.2874,-0.2874,-0.2874,-0.2874,-0.2874,-0.2874,-0.2874,-0.2874,-0.2874,-0.2874,-0.2874,-0.2874,0.0,0.0,0.0,0.0,0.0,0.0,-1.2517,0.0,-1.2235,0.0,0.0,0.0,0.0,0.0,0.0,0.0,-0.9992,0.0,0.0,0.0,0.0,0.0,0.0,0.0,0.0,0.0,0.0,0.0,-0.2333,-0.2333,-0.2333,-0.2333,-0.2333,-0.2333,-0.2391,-0.2424,-0.2424,-0.2484,-0.2514,-0.2515,-0.2574,-0.2601,-0.2604,-0.2665,-0.2692,-0.2692,-0.2692,-0.2692,-0.2692,-0.2692,-0.2692,-0.2695,-0.2727,-0.2746,-0.2762,-0.2811,-0.2837,-0.2851,-0.2868,-0.2874,-0.2874,-0.2874,-0.2874,-0.2874,-0.2874,-0.2874,-0.2874,-0.2874,-0.2874,-0.2874,-0.2874,-0.2874,-0.2874,-0.2874,-0.2874,-0.2874,-0.2874,-0.2874,-0.2874,-0.2874,-0.2874,-0.2874,-0.2874,-0.2874,-0.2874,-0.2874,-0.2874,-0.2874,-0.2874,-0.2874,-0.2874,-0.2874,-0.2874,-0.2874,-0.2874,-0.2874,-0.2874,-0.2874,-0.2874,-0.2874,-0.2874,-0.2874,-0.2874,-0.2874,-0.2874,-0.2874,-0.2874,-0.2874,-0.2874,-0.2874,-0.2874,-0.2874,-1.1053,0.0,0.0,0.0,0.0,0.0,0.0,0.0,0.0,0.0,0.0,0.0,0.0,0.0,0.0,0.0,0.0,-0.8116,0.0,0.0,0.0,0.0,0.0,0.0,0.0,0.0,0.0,0.0,0.0,-0.2322,-0.2322,-0.2328,-0.2337,-0.2345,-0.2397,-0.2428,-0.2436,-0.2488,-0.2514,-0.2515,-0.2574,-0.2601,-0.2604,-0.2665,-0.2692,-0.2692,-0.2692,-0.2692,-0.2692,-0.2692,-0.2692,-0.2695,-0.2727,-0.2737,-0.2746,-0.2806,-0.2834,-0.2844,-0.2867,-0.2874,-0.2874,-0.2874,-0.2874,-0.2874,-0.2874,-0.2874,-0.2874,-0.2874,-0.2874,-0.2874,-0.2874,-0.2874,-0.2874,-0.2874,-0.2874,-0.2874,-0.2874,-0.2874,-0.2874,-0.2874,-0.2874,-0.2874,-0.2874,-0.2874,-0.2874,-0.2874,-0.2874,-0.2874,-0.2874,-0.2874,-0.2874,-0.2874,-0.2874,-0.2874,-0.2874,-0.2874,-0.2874,-0.2874,-0.2874,-0.2874,-0.2874,-0.2874,-0.2874,-0.2874,-0.2874,-0.2874,-0.2874,-0.2874,-0.2874,-0.2874,-0.2874,-0.2874,0.0,0.0,0.0,-1.1858,0.0,0.0,0.0,0.0,-1.2074,0.0,0.0,0.0,0.0,0.0,-0.6778,-0.6534,0.0,0.0,0.0,0.0,0.0,0.0,0.0,0.0,0.0,0.0,0.0,0.0,-0.2275,0.0,-0.2292,-0.2318,-0.2346,-0.2376,-0.2408,-0.2438,-0.2467,-0.2499,-0.2514,-0.2515,-0.2574,-0.2601,-0.2604,-0.2665,-0.2692,-0.2692,-0.2692,-0.2692,-0.2692,-0.2692,-0.2692,-0.2695,-0.2727,-0.2737,-0.2746,-0.2806,-0.2846,-0.2872,-0.2874,-0.2874,-0.2874,-0.2874,-0.2874,-0.2874,-0.2874,-0.2874,-0.2874,-0.2874,-0.2874,-0.2874,-0.2874,-0.2874,-0.2874,-0.2874,-0.2874,-0.2874,-0.2874,-0.2874,-0.2874,-0.2874,-0.2874,-0.2874,-0.2874,-0.2874,-0.2874,-0.2874,-0.2874,-0.2874,-0.2874,-0.2874,-0.2874,-0.2874,-0.2874,-0.2874,-0.2874,-0.2874,-0.2874,-0.2874,-0.2874,-0.2874,-0.2874,-0.2874,-0.2874,-0.2874,-0.2874,-0.2874,-0.2874,-0.2874,-0.2874,-0.2874,-0.2874,-0.2874,0.0,0.0,-0.6811,-0.8655,0.0,0.0,0.0,0.0,0.0,0.0,0.0,0.0,0.0,-0.7233,-0.6902,-0.678,-0.6909,0.0,0.0,0.0,0.0,0.0,0.0,0.0,0.0,0.0,0.0,0.0,-0.2274,0.0,0.0,-0.2318,-0.2346,-0.2378,-0.2408,-0.2438,-0.2469,-0.2499,-0.2514,-0.2515,-0.2555,-0.2583,-0.2602,-0.2643,-0.2673,-0.2692,-0.2692,-0.2692,-0.2692,-0.2692,-0.2692,-0.2694,-0.2703,-0.272,-0.2746,-0.2806,-0.2836,-0.2846,-0.2867,-0.2874,-0.2874,-0.2874,-0.2874,-0.2874,-0.2874,-0.2874,-0.2874,-0.2874,-0.2874,-0.2874,-0.2874,-0.2874,-0.2874,-0.2874,-0.2874,-0.2874,-0.2874,-0.2874,-0.2874,-0.2874,-0.2874,-0.2874,-0.2874,-0.2874,-0.2874,-0.2874,-0.2874,-0.2874,-0.2874,-0.2874,-0.2874,-0.2874,-0.2874,-0.2874,-0.2874,-0.2874,-0.2874,-0.2874,-0.2874,-0.2874,-0.2874,-0.2874,-0.2874,-0.2874,-0.2874,-0.2874,-0.2874,-0.2874,-0.2874,-0.2874,-0.2874,-0.2874,-0.6166,-0.559,0.0,-0.6937,-0.6612,0.0,-0.8421,0.0,-0.7541,0.0,0.0,0.0,0.0,0.0,-0.5385,-0.5317,-0.5304,-0.4993,0.0,-0.291,0.0,0.0,0.0,0.0,0.0,0.0,-0.2258,-0.2217,-0.2251,0.0,0.0,0.0,-0.2363,-0.2393,-0.2424,-0.2454,-0.2485,-0.2504,-0.2514,-0.2515,-0.2545,-0.2574,-0.2602,-0.2632,-0.2664,-0.2692,-0.2692,-0.2692,-0.2692,-0.2692,-0.2692,-0.2692,-0.2692,-0.2705,-0.2729,-0.2789,-0.2826,-0.2848,-0.2867,-0.2874,-0.2874,-0.2874,-0.2874,-0.2874,-0.2874,-0.2874,-0.2874,-0.2874,-0.2874,-0.2874,-0.2874,-0.2874,-0.2874,-0.2874,-0.2874,-0.2874,-0.2874,-0.2874,-0.2874,-0.2874,-0.2874,-0.2874,-0.2874,-0.2874,-0.2874,-0.2874,-0.2874,-0.2874,-0.2874,-0.2874,-0.2874,-0.2874,-0.2874,-0.2874,-0.2874,-0.2874,-0.2874,-0.2874,-0.2874,-0.2874,-0.2874,-0.2874,-0.2889,-0.292,-0.289,-0.289,-0.2921,-0.2889,-0.2874,-0.2874,-0.2874,-0.2874]}]]